[[{"header":{"parameterUnit":"m.s-1","parameterCategory":1,"la1":30.6,"la2":28.766,"lo1":-90.7593,"lo2":-88.6598,"dy":0.0162,"dx":0.0183,"nx":116,"ny":114,"refTime":"2023-07-27T06:00:00:Z","depth":0,"parameterNumber":2,"parameterNumberName":"U-component_of_WINDS"},"data":[0.0,0.0,0.0,0.0,0.0,0.0,0.0,0.0,0.0,0.0,0.0,0.0,0.0,0.0,0.0,0.0,0.0,0.0,0.0,0.0,0.0,0.0,0.0,0.0,0.0,0.0,0.0,0.0,0.0,0.0,0.0,0.0,0.0,0.0,0.0,0.0,0.0,0.0,0.0,0.0,0.0,0.0,0.0,0.0,0.0,0.0,0.0,0.0,0.0,0.0,0.0,0.0,0.0,0.0,0.0,0.0,0.0,0.0,0.0,0.0,0.0,0.0,0.0,0.0,0.0,0.0,0.0,0.0,0.0,0.0,0.0,0.0,0.0,0.0,0.0,0.0,0.0,0.0,0.0,0.0,0.0,0.0,0.0,0.0,0.0,0.0,0.0,0.0,0.0,0.0,0.0,0.0,0.0,0.0,0.0,0.0,0.0,0.0,0.0,0.0,0.0,0.0,0.0,0.0,0.0,0.0,0.0,0.0,0.0,0.0,0.0,0.0,0.0,0.0,0.0,0.0,0.0,0.0,0.0,0.0,0.0,0.0,0.0,0.0,0.0,0.0,0.0,0.0,0.0,0.0,0.0,0.0,0.0,0.0,0.0,0.0,0.0,0.0,0.0,0.0,0.0,0.0,0.0,0.0,0.0,0.0,0.0,0.0,0.0,0.0,0.0,0.0,0.0,0.0,0.0,0.0,0.0,0.0,0.0,0.0,0.0,0.0,0.0,0.0,0.0,0.0,0.0,0.0,0.0,0.0,0.0,0.0,0.0,0.0,0.0,0.0,0.0,0.0,0.0,0.0,0.0,0.0,0.0,0.0,0.0,0.0,0.0,0.0,0.0,0.0,0.0,0.0,0.0,0.0,0.0,0.0,0.0,0.0,0.0,0.0,0.0,0.0,0.0,0.0,0.0,0.0,0.0,0.0,0.0,0.0,0.0,0.0,0.0,0.0,0.0,0.0,0.0,0.0,0.0,0.0,0.0,0.0,0.0,0.0,0.0,0.0,0.0,0.0,0.0,0.0,0.0,0.0,0.0,0.0,0.0,0.0,0.0,0.0,0.0,0.0,0.0,0.0,0.0,0.0,0.0,0.0,0.0,0.0,0.0,0.0,0.0,0.0,0.0,0.0,0.0,0.0,0.0,0.0,0.0,0.0,0.0,0.0,0.0,0.0,0.0,0.0,0.0,0.0,0.0,0.0,0.0,0.0,0.0,0.0,0.0,0.0,0.0,0.0,0.0,0.0,0.0,0.0,0.0,0.0,0.0,0.0,0.0,0.0,0.0,0.0,0.0,0.0,0.0,0.0,0.0,0.0,0.0,0.0,0.0,0.0,0.0,0.0,0.0,0.0,0.0,0.0,0.0,0.0,0.0,0.0,0.0,0.0,0.0,0.0,0.0,0.0,0.0,0.0,0.0,0.0,0.0,0.0,0.0,0.0,0.0,0.0,0.0,0.0,0.0,0.0,0.0,0.0,0.0,0.0,0.0,0.0,0.0,0.0,0.0,0.0,0.0,0.0,0.0,0.0,0.0,0.0,0.0,0.0,0.0,0.0,0.0,0.0,0.0,0.0,0.0,0.0,0.0,0.0,0.0,0.0,0.0,0.0,0.0,0.0,0.0,0.0,0.0,0.0,0.0,0.0,0.0,0.0,0.0,0.0,0.0,0.0,0.0,0.0,0.0,0.0,0.0,0.0,0.0,0.0,0.0,0.0,0.0,0.0,0.0,0.0,0.0,0.0,0.0,0.0,0.0,0.0,0.0,0.0,0.0,0.0,0.0,0.0,0.0,0.0,0.0,0.0,0.0,0.0,0.0,0.0,0.0,0.0,0.0,0.0,0.0,0.0,0.0,0.0,0.0,0.0,0.0,0.0,0.0,0.0,0.0,0.0,0.0,0.0,0.0,0.0,0.0,0.0,0.0,0.0,0.0,0.0,0.0,0.0,0.0,0.0,0.0,0.0,0.0,0.0,0.0,0.0,0.0,0.0,0.0,0.0,0.0,0.0,0.0,0.0,0.0,0.0,0.0,0.0,0.0,0.0,0.0,0.0,0.0,0.0,0.0,0.0,0.0,0.0,0.0,0.0,0.0,0.0,0.0,0.0,0.0,0.0,0.0,0.0,0.0,0.0,0.0,0.0,0.0,0.0,0.0,0.0,0.0,0.0,0.0,0.0,0.0,0.0,0.0,0.0,0.0,0.0,0.0,0.0,0.0,0.0,0.0,0.0,0.0,0.0,0.0,0.0,0.0,0.0,0.0,0.0,0.0,0.0,0.0,0.0,0.0,0.0,0.0,0.0,0.0,0.0,0.0,0.0,0.0,0.0,0.0,0.0,0.0,0.0,0.0,0.0,0.0,0.0,0.0,0.0,0.0,0.0,0.0,0.0,0.0,0.0,0.0,0.0,0.0,0.0,0.0,0.0,0.0,0.0,0.0,0.0,0.0,0.0,0.0,0.0,0.0,0.0,0.0,0.0,0.0,0.0,0.0,0.0,0.0,0.0,0.0,0.0,0.0,0.0,0.0,0.0,0.0,0.0,0.0,0.0,0.0,0.0,0.0,0.0,0.0,0.0,0.0,0.0,0.0,0.0,0.0,0.0,0.0,0.0,0.0,0.0,0.0,0.0,0.0,0.0,0.0,0.0,0.0,0.0,0.0,0.0,0.0,0.0,0.0,0.0,0.0,0.0,0.0,0.0,0.0,0.0,0.0,0.0,0.0,0.0,0.0,0.0,0.0,0.0,0.0,0.0,0.0,0.0,0.0,0.0,0.0,0.0,0.0,0.0,0.0,0.0,0.0,0.0,0.0,0.0,0.0,0.0,0.0,0.0,0.0,0.0,0.0,0.0,0.0,0.0,0.0,0.0,0.0,0.0,0.0,0.0,0.0,0.0,0.0,0.0,0.0,0.0,0.0,0.0,0.0,0.0,0.0,0.0,0.0,0.0,0.0,0.0,0.0,0.0,0.0,0.0,0.0,0.0,0.0,0.0,0.0,0.0,0.0,0.0,0.0,0.0,0.0,0.0,0.0,0.0,0.0,0.0,0.0,0.0,0.0,0.0,0.0,0.0,0.0,0.0,0.0,0.0,0.0,0.0,0.0,0.0,0.0,0.0,0.0,0.0,0.0,0.0,0.0,0.0,0.0,0.0,0.0,0.0,0.0,0.0,0.0,0.0,0.0,0.0,0.0,0.0,0.0,0.0,0.0,0.0,0.0,0.0,0.0,0.0,0.0,0.0,0.0,0.0,0.0,0.0,0.0,0.0,0.0,0.0,0.0,0.0,0.0,0.0,0.0,0.0,0.0,0.0,0.0,0.0,0.0,0.0,0.0,0.0,0.0,0.0,0.0,0.0,0.0,0.0,0.0,0.0,0.0,0.0,0.0,0.0,0.0,0.0,0.0,0.0,0.0,0.0,0.0,0.0,0.0,0.0,0.0,0.0,0.0,0.0,0.0,0.0,0.0,0.0,0.0,0.0,0.0,0.0,0.0,0.0,0.0,0.0,0.0,0.0,0.0,0.0,0.0,0.0,0.0,0.0,0.0,0.0,0.0,0.0,0.0,0.0,0.0,0.0,0.0,0.0,0.0,0.0,0.0,0.0,0.0,0.0,0.0,0.0,0.0,0.0,0.0,0.0,0.0,0.0,0.0,0.0,0.0,0.0,0.0,0.0,0.0,0.0,0.0,0.0,0.0,0.0,0.0,0.0,0.0,0.0,0.0,0.0,0.0,0.0,0.0,0.0,0.0,0.0,0.0,0.0,0.0,0.0,0.0,0.0,0.0,0.0,0.0,0.0,0.0,0.0,0.0,0.0,0.0,0.0,0.0,0.0,0.0,0.0,0.0,0.0,0.0,0.0,0.0,0.0,0.0,0.0,0.0,0.0,0.0,0.0,0.0,0.0,0.0,0.0,0.0,0.0,0.0,0.0,0.0,0.0,0.0,0.0,0.0,0.0,0.0,0.0,0.0,0.0,0.0,0.0,0.0,0.0,0.0,0.0,0.0,0.0,0.0,0.0,0.0,0.0,0.0,0.0,0.0,0.0,0.0,0.0,0.0,0.0,0.0,0.0,0.0,0.0,0.0,0.0,0.0,0.0,0.0,0.0,0.0,0.0,0.0,0.0,0.0,0.0,0.0,0.0,0.0,0.0,0.0,0.0,0.0,0.0,0.0,0.0,0.0,0.0,0.0,0.0,0.0,0.0,0.0,0.0,0.0,0.0,0.0,0.0,0.0,0.0,0.0,0.0,0.0,0.0,0.0,0.0,0.0,0.0,0.0,0.0,0.0,0.0,0.0,0.0,0.0,0.0,0.0,0.0,0.0,0.0,0.0,0.0,0.0,0.0,0.0,0.0,0.0,0.0,0.0,0.0,0.0,0.0,0.0,0.0,0.0,0.0,0.0,0.0,0.0,0.0,0.0,0.0,0.0,0.0,0.0,0.0,0.0,0.0,0.0,0.0,0.0,0.0,0.0,0.0,0.0,0.0,0.0,0.0,0.0,0.0,0.0,0.0,0.0,0.0,0.0,0.0,0.0,0.0,0.0,0.0,0.0,0.0,0.0,0.0,0.0,0.0,0.0,0.0,0.0,0.0,0.0,0.0,0.0,0.0,0.0,0.0,0.0,0.0,0.0,0.0,0.0,0.0,0.0,0.0,0.0,0.0,0.0,0.0,0.0,0.0,0.0,0.0,0.0,0.0,0.0,0.0,0.0,0.0,0.0,0.0,0.0,0.0,0.0,0.0,0.0,0.0,0.0,0.0,0.0,0.0,0.0,0.0,0.0,0.0,0.0,0.0,0.0,0.0,0.0,0.0,0.0,0.0,0.0,0.0,0.0,0.0,0.0,0.0,0.0,0.0,0.0,0.0,0.0,0.0,0.0,0.0,0.0,0.0,0.0,0.0,0.0,0.0,0.0,0.0,0.0,0.0,0.0,0.0,0.0,0.0,0.0,0.0,0.0,0.0,0.0,0.0,0.0,0.0,0.0,0.0,0.0,0.0,0.0,0.0,0.0,0.0,0.0,0.0,0.0,0.0,0.0,0.0,0.0,0.0,0.0,0.0,0.0,0.0,0.0,0.0,0.0,0.0,0.0,0.0,0.0,0.0,0.0,0.0,0.0,0.0,0.0,0.0,0.0,0.0,0.0,0.0,0.0,0.0,0.0,0.0,0.0,0.0,0.0,0.0,0.0,0.0,0.0,0.0,0.0,0.0,0.0,0.0,0.0,0.0,0.0,0.0,0.0,0.0,0.0,0.0,0.0,0.0,0.0,0.0,0.0,0.0,0.0,0.0,0.0,0.0,0.0,0.0,0.0,0.0,0.0,0.0,0.0,0.0,0.0,0.0,0.0,0.0,0.0,0.0,0.0,0.0,0.0,0.0,0.0,0.0,0.0,0.0,0.0,0.0,0.0,0.0,0.0,0.0,0.0,0.0,0.0,0.0,0.0,0.0,0.0,0.0,0.0,0.0,0.0,0.0,0.0,0.0,0.0,0.0,0.0,0.0,0.0,0.0,0.0,0.0,0.0,0.0,0.0,0.0,0.0,0.0,0.0,0.0,0.0,0.0,0.0,0.0,0.0,0.0,0.0,0.0,0.0,0.0,0.0,0.0,0.0,0.0,0.0,0.0,0.0,0.0,0.0,0.0,0.0,0.0,0.0,0.0,0.0,0.0,0.0,0.0,0.0,0.0,0.0,0.0,0.0,0.0,0.0,0.0,0.0,0.0,0.0,0.0,0.0,0.0,0.0,0.0,0.0,0.0,0.0,0.0,0.0,0.0,0.0,0.0,0.0,0.0,0.0,0.0,0.0,0.0,0.0,0.0,0.0,0.0,0.0,0.0,0.0,0.0,0.0,0.0,0.0,0.0,0.0,0.0,0.0,0.0,0.0,0.0,0.0,0.0,0.0,0.0,0.0,0.0,0.0,0.0,0.0,0.0,0.0,0.0,0.0,0.0,0.0,0.0,0.0,0.0,0.0,0.0,0.0,0.0,0.0,0.0,0.0,0.0,0.0,0.0,0.0,0.0,0.0,0.0,0.0,0.0,0.0,0.0,0.0,0.0,0.0,0.0,0.0,0.0,0.0,0.0,0.0,0.0,0.0,0.0,0.0,0.0,0.7391,0.8537,0.0,0.0,0.0,0.0,0.0,0.0,0.0,0.0,0.0,0.0,0.0,0.0,0.0,0.0,0.0,0.0,0.0,0.0,0.0,0.0,0.0,0.0,0.0,0.0,0.0,0.0,0.0,0.0,0.0,0.0,0.0,0.0,0.0,0.0,0.0,0.0,0.0,0.0,0.0,0.0,0.0,0.0,0.0,0.0,0.0,0.0,0.0,0.0,0.0,0.0,0.0,0.0,0.0,0.0,0.0,0.0,0.0,0.0,0.0,0.0,0.0,0.0,0.0,0.0,0.0,0.0,0.0,0.0,0.0,0.0,0.0,0.0,0.0,0.0,0.0,0.0,0.0,0.0,0.0,0.0,0.0,0.0,0.0,0.0,0.0,0.0,0.0,0.0,0.0,0.0,0.0,0.0,0.0,0.0,0.0,0.0,0.0,0.0,0.0,0.0,0.0,0.0,0.0,0.0,0.0,0.0,0.0,0.0,0.0,0.0,0.0,0.0,0.0,0.0,0.6934,0.7468,0.0,0.0,0.0,0.0,0.0,0.0,0.0,0.0,0.0,0.0,0.0,0.0,0.0,0.0,0.0,0.0,0.0,0.0,0.0,0.0,0.0,0.0,0.0,0.0,0.0,0.0,0.0,0.0,0.0,0.0,0.0,0.0,0.0,0.0,0.0,0.0,0.0,0.0,0.0,0.0,0.0,0.0,0.0,0.0,0.0,0.0,0.0,0.0,0.0,0.0,0.0,0.0,0.0,0.0,0.0,0.0,0.0,0.0,0.0,0.0,0.0,0.0,0.0,0.0,0.0,0.0,0.0,0.0,0.0,0.0,0.0,0.0,0.0,0.0,0.0,0.0,0.0,0.0,0.0,0.0,0.0,0.0,0.0,0.0,0.0,0.0,0.0,0.0,0.0,0.0,0.0,0.0,0.0,0.0,0.0,0.0,0.0,0.0,0.0,0.0,0.0,0.0,0.0,0.0,0.0,0.0,0.0,0.0,0.5857,0.5857,0.6556,0.547,0.578,0.7019,0.6321,0.6475,0.7246,0.7322,0.0,0.0,0.0,0.0,0.0,0.0,0.0,0.0,0.0,0.0,0.0,0.0,0.0,0.0,0.0,0.0,0.0,0.0,0.0,0.0,0.0,0.0,0.0,0.0,0.0,0.0,0.0,0.0,0.0,0.0,0.0,0.0,0.0,0.0,0.0,0.0,0.0,0.0,1.866,1.7366,1.6817,1.6876,1.7345,0.0,0.0,0.0,0.0,0.0,0.0,0.0,0.0,0.0,0.0,0.0,0.0,0.0,0.0,0.0,0.0,0.0,0.0,0.0,0.0,0.0,0.0,0.0,0.0,0.0,0.0,0.0,0.0,0.0,0.0,0.0,0.0,0.0,0.0,0.0,0.0,0.0,0.0,0.0,0.0,0.0,0.0,0.0,1.6936,1.5718,0.0,0.0,0.0,0.0,0.0,0.0,0.0,0.0,0.0,0.0,0.0,0.0,0.0,0.5007,0.4932,0.5007,0.5165,0.5249,0.5171,0.5171,0.5249,0.5093,0.5093,0.5326,0.5171,0.0,0.877,0.8917,0.0,0.0,0.0,0.0,0.0,0.0,0.0,0.0,0.0,0.0,0.0,0.0,0.0,0.0,0.0,0.0,0.0,0.0,0.0,0.0,0.0,0.0,0.0,0.0,0.0,0.0,0.0,0.0,0.0,0.0,0.0,0.0,0.0,0.0,0.0,0.0,1.869,1.7736,1.7092,1.5922,1.5367,1.5367,1.5455,1.5745,1.6184,1.6324,0.0,0.0,0.0,0.0,0.0,0.0,0.0,0.0,0.0,0.0,0.0,0.0,0.0,0.0,0.0,0.0,0.0,0.0,0.0,0.0,0.0,0.0,0.0,0.0,0.0,0.0,0.0,0.0,0.0,0.0,0.0,0.0,0.0,0.0,0.0,0.0,0.0,0.0,0.0,1.4911,1.3302,1.2996,1.1826,1.0982,0.0,0.0,0.0,0.0,0.0,0.0,0.0,0.0,0.0,0.4966,0.4934,0.4952,0.4952,0.4891,0.4937,0.5018,0.4859,0.5015,0.5329,0.5015,0.5323,0.6096,0.5944,0.6861,0.8466,0.7544,0.7702,0.8466,0.0,0.0,0.0,0.0,1.072,1.1484,0.0,0.0,0.0,0.0,0.0,0.0,0.0,0.0,0.0,0.0,0.0,0.0,0.0,0.0,0.0,2.6768,0.0,0.0,0.0,0.0,0.0,0.0,0.0,0.0,0.0,0.0,0.0,0.0,1.7472,1.6298,1.5446,1.4601,1.4178,1.4106,1.3745,1.4114,1.4982,1.5267,1.5267,0.0,0.0,0.0,0.0,0.0,0.0,0.0,0.0,0.0,0.0,0.0,0.0,0.0,0.0,0.0,0.0,0.0,0.0,0.0,0.0,0.0,0.0,0.0,0.0,0.0,0.0,0.0,0.0,0.0,0.0,0.0,0.0,0.0,0.0,0.0,0.0,0.0,0.0,1.2072,1.1068,1.1068,1.0381,1.0033,0.0,0.0,0.0,0.0,0.0,0.0,0.6382,0.5728,0.5296,0.5168,0.5216,0.5233,0.5233,0.5148,0.5091,0.5061,0.4902,0.5042,0.5404,0.5015,0.5398,0.6402,0.6328,0.671,0.7395,0.6633,0.6788,0.7484,0.7484,0.8012,0.8922,0.9362,1.0045,1.0732,0.0,0.0,0.0,0.0,0.0,0.0,0.0,0.0,0.0,0.0,0.0,0.0,0.0,0.0,2.8511,2.8299,2.7845,2.7312,0.0,0.0,0.0,0.0,0.0,0.0,0.0,0.0,0.0,1.7794,1.6428,1.5171,1.4114,1.3324,1.2893,1.2673,1.2445,1.3105,1.4338,1.4338,1.4338,1.4338,0.0,0.0,0.0,0.0,0.0,0.0,0.0,0.0,0.0,0.0,0.0,0.0,0.0,0.0,0.0,0.0,0.0,0.0,0.0,0.0,0.0,0.0,0.0,0.0,0.0,0.0,0.0,0.0,0.0,0.0,0.0,0.0,0.0,0.0,0.0,0.0,0.0,0.0,0.0,1.0376,1.012,0.0,0.0,0.0,0.0,0.8185,0.6387,0.5762,0.675,0.5488,0.5002,0.5454,0.5423,0.536,0.536,0.5355,0.5292,0.5178,0.5178,0.5121,0.5018,0.5018,0.5015,0.5093,0.5323,0.5476,0.5867,0.7544,0.7931,0.7484,0.7484,0.7561,0.7557,0.7169,0.808,0.9372,0.0,0.0,0.0,0.0,0.0,0.0,0.0,0.0,0.0,0.0,0.0,0.0,0.0,2.8967,2.892,2.8858,2.8286,2.7929,2.7849,0.0,0.0,0.0,0.0,0.0,0.0,0.0,1.7658,1.6964,1.5376,1.4186,1.3258,1.2372,1.2003,1.2003,1.1706,1.1996,1.2886,1.3477,1.3702,1.3645,1.4139,1.4304,0.0,0.0,0.0,0.0,0.0,0.0,0.0,0.0,0.0,0.0,0.0,0.0,0.0,0.0,0.0,0.0,0.0,0.0,0.0,0.0,0.0,0.0,0.0,0.0,0.0,0.0,0.0,0.0,0.0,0.0,0.0,0.0,0.0,0.0,0.0,0.0,0.0,0.9689,0.9345,0.0,0.8828,0.8021,0.7489,0.7312,0.6034,0.5328,0.5453,0.5117,0.5005,0.5132,0.5373,0.5485,0.5485,0.5409,0.5347,0.5303,0.5303,0.5284,0.5243,0.5243,0.5283,0.5368,0.5521,0.571,0.5864,0.6714,0.6945,0.6721,0.6872,0.7326,0.7855,0.7851,0.8609,0.9669,0.0,0.0,0.0,0.0,0.0,0.0,0.0,0.0,0.0,0.0,0.0,2.9366,2.9366,2.9366,2.935,2.9259,2.8716,2.8319,2.8255,0.0,0.0,0.0,0.0,0.0,0.0,1.82,1.6835,1.5922,1.4458,1.3324,1.2599,1.1781,1.1484,1.1558,1.1409,1.1558,1.2083,1.3012,1.3357,1.3297,1.3797,1.4033,1.4256,0.0,0.0,0.0,0.0,0.0,0.0,0.0,0.0,0.0,0.0,0.0,0.0,0.0,0.0,0.0,0.0,0.0,0.0,0.0,0.0,0.0,0.0,0.0,0.0,0.0,0.0,0.0,0.0,0.0,0.0,0.0,0.0,0.0,0.0,0.9946,0.9519,0.9345,0.8999,0.874,0.8656,0.7672,0.7048,0.6779,0.5722,0.5015,0.4928,0.501,0.5099,0.5191,0.5476,0.5526,0.5526,0.5532,0.5472,0.5431,0.5431,0.5409,0.5368,0.5368,0.5493,0.558,0.5819,0.5928,0.6083,0.6327,0.6489,0.6555,0.6606,0.7019,0.7702,0.7931,0.8385,0.8993,0.0,0.0,0.0,0.0,0.0,0.0,0.0,0.0,0.0,0.0,2.9726,2.9918,2.9902,2.9918,2.9814,2.9515,2.9152,2.8606,2.7784,2.7246,0.0,0.0,0.0,0.0,1.9465,1.7385,1.5816,1.4903,1.3768,1.2746,1.2003,1.1558,1.1409,1.1409,1.1632,1.1787,1.2035,1.2777,1.3217,1.3466,1.3466,1.3887,1.4523,0.0,0.0,0.0,0.0,0.0,0.0,0.0,0.0,0.0,0.0,0.0,0.0,0.0,0.0,0.0,0.0,0.0,0.0,0.0,0.0,0.0,0.0,0.0,0.0,0.0,0.0,0.0,0.0,0.0,0.0,0.0,0.0,0.0,1.0722,1.0294,0.9864,0.9349,0.9349,0.9087,0.8656,0.7319,0.6605,0.6868,0.5361,0.4743,0.5455,0.5184,0.5272,0.5722,0.5725,0.5725,0.5722,0.573,0.567,0.5464,0.5467,0.5494,0.5379,0.5379,0.5549,0.5713,0.596,0.6121,0.6443,0.6698,0.6947,0.708,0.6774,0.6725,0.6949,0.7188,0.7261,0.7334,0.0,0.0,0.0,0.0,0.0,0.0,0.0,0.0,0.0,0.0,2.9902,2.9902,2.9989,2.9946,2.9902,2.9886,2.956,2.9182,2.8889,0.0,0.0,0.0,0.0,0.0,1.9135,1.6973,1.5392,1.4482,1.3331,1.2452,1.1781,1.1484,1.1409,1.1409,1.1484,1.1827,1.2424,1.2719,1.3311,1.4034,1.4193,1.4489,1.4845,0.0,0.0,0.0,0.0,0.0,0.0,0.0,0.0,0.0,0.0,0.0,0.0,0.0,0.0,0.0,0.0,0.0,0.0,0.0,0.0,0.0,0.0,0.0,0.0,0.0,0.0,0.0,0.0,0.0,0.0,0.0,1.1768,1.1871,1.1435,1.0819,1.0294,0.9864,0.9519,0.9087,0.8656,0.8208,0.794,0.7845,0.7401,0.7085,0.697,0.6963,0.6748,0.6057,0.6319,0.6153,0.5469,0.5646,0.567,0.5464,0.564,0.5665,0.5635,0.5635,0.5759,0.6099,0.6099,0.6295,0.6695,0.7593,0.8082,0.816,0.7426,0.7633,0.8217,0.8452,0.8744,0.9221,0.0,0.0,0.0,0.0,0.0,0.0,0.0,0.0,0.0,0.0,2.9989,3.0033,3.0017,3.0033,3.0033,3.0017,2.9842,2.9621,2.938,0.0,0.0,0.0,0.0,1.9976,1.887,1.6766,1.5251,1.4266,1.3251,1.2452,1.1929,1.1781,1.1632,1.1639,1.1909,1.2283,1.2779,1.3331,1.4029,1.4779,1.5087,1.5301,1.5413,1.5606,1.6004,1.6327,1.6327,1.6492,1.673,1.6984,0.0,0.0,0.0,0.0,0.0,0.0,0.0,0.0,0.0,0.0,0.0,0.0,0.0,0.0,0.0,0.0,0.0,0.0,0.0,0.0,0.0,0.0,0.0,0.0,1.186,1.1957,1.1871,1.1079,1.0463,1.0038,0.9607,0.9087,0.8656,0.8296,0.8204,0.8285,0.7929,0.7796,0.7951,0.7947,0.7733,0.7215,0.7386,0.7049,0.6117,0.6557,0.648,0.6061,0.6427,0.6608,0.6608,0.6353,0.6563,0.7154,0.6905,0.7224,0.8117,0.8774,0.9317,0.9633,0.0,0.0,0.0,0.0,0.9995,1.0346,0.0,0.0,0.0,0.0,0.0,0.0,0.0,0.0,0.0,0.0,0.0,3.0146,3.006,3.0146,3.0146,3.006,3.0017,2.9886,0.0,0.0,0.0,2.4856,2.2517,2.0553,1.9048,1.7092,1.5587,1.4617,1.368,1.2959,1.2445,1.2298,1.2238,1.221,1.2701,1.3071,1.3376,1.4352,1.5014,1.5438,1.595,1.617,1.617,1.617,1.6409,1.682,1.682,1.6812,1.6812,1.6812,0.0,0.0,0.0,0.0,0.0,0.0,0.0,0.0,0.0,0.0,0.0,0.0,0.0,0.0,0.0,0.0,0.0,0.0,0.0,0.0,0.0,0.0,0.0,0.0,1.1946,1.1957,1.1957,1.1251,1.0554,1.0038,0.9694,0.9262,0.8652,0.8113,0.8013,0.8632,0.7918,0.7906,0.8773,0.8591,0.0,0.0,0.0,0.8154,0.7088,0.7759,0.7599,0.6714,0.7435,0.7777,0.7757,0.7263,0.76,0.8518,0.8024,0.8625,0.9991,1.007,1.0609,1.1262,1.0733,1.0724,1.0961,1.0933,1.1003,1.1083,0.0,0.0,0.0,0.0,0.0,0.0,0.0,0.0,0.0,3.0119,3.006,3.0103,3.0274,3.0248,3.0231,3.0333,3.0231,2.993,0.0,0.0,2.6591,2.5901,2.3774,2.2116,2.0986,1.9117,1.761,1.6591,1.5624,1.4585,1.3455,1.3528,1.3528,1.34,1.3615,1.4099,1.4772,1.54,1.572,1.5736,1.6343,1.6574,1.6574,1.6574,1.6902,1.7229,1.7229,1.7473,1.7716,1.7716,1.7716,1.7789,1.8112,1.804,0.0,0.0,0.0,0.0,0.0,0.0,0.0,0.0,0.0,0.0,0.0,0.0,0.0,0.0,0.0,0.0,0.0,0.0,0.0,1.0722,1.1424,1.1957,1.1785,1.1435,1.0911,1.0125,1.0207,0.9864,0.8744,0.917,0.9598,0.9685,0.985,1.012,1.0468,1.0452,1.0114,0.9266,0.934,0.859,0.686,0.7415,0.7059,0.591,0.6996,0.0,0.7342,0.7831,0.8487,0.9061,0.914,0.9587,1.0292,1.1401,1.2462,1.336,1.1589,1.1393,1.1958,1.1819,1.2148,1.2724,0.0,0.0,0.0,0.0,0.0,0.0,0.0,0.0,0.0,0.0,3.0231,3.0274,3.0417,3.0359,3.0359,3.0417,3.0205,0.0,0.0,2.8273,2.7289,2.6236,2.4619,2.3149,2.1908,2.0242,1.8889,1.7842,1.7104,1.6287,1.5334,1.5535,1.5364,1.5028,1.5225,1.5347,1.5389,1.5787,1.6118,1.6444,1.6797,1.7227,1.7635,1.7229,1.731,1.7716,1.7878,1.7959,1.804,1.8112,1.8112,1.804,1.8201,1.8201,1.8112,0.0,0.0,0.0,0.0,0.0,0.0,0.0,0.0,0.0,0.0,0.0,0.0,0.0,0.0,1.3105,1.276,0.0,1.2528,1.1929,1.2106,1.2203,1.1871,1.1613,1.1176,1.0381,1.0463,1.0294,0.9345,0.9694,1.0125,1.0294,1.0463,1.0763,1.1091,1.1165,1.0937,1.0564,1.0588,0.9984,0.8683,0.9294,0.9079,0.805,0.8883,0.933,0.9227,0.939,0.9861,1.063,1.0372,1.0835,1.1911,1.2802,1.3555,1.3984,1.3052,1.2918,1.3175,1.3112,1.3313,1.3647,0.0,0.0,0.0,0.0,0.0,0.0,0.0,0.0,0.0,0.0,3.0359,3.0485,3.0401,3.0485,3.0485,0.0,0.0,0.0,0.0,2.8842,2.7981,2.6605,2.5506,2.4296,2.2865,2.1528,2.0389,1.9327,1.8757,1.8208,1.7628,1.7713,1.7422,1.6945,1.7142,1.6882,1.6388,1.6606,1.7047,1.7647,1.7726,1.831,1.9063,1.8416,1.8256,1.8425,1.8585,1.8665,1.8647,1.8816,1.8807,1.8576,1.8656,1.8736,1.8745,1.8585,1.8264,0.0,0.0,0.0,0.0,0.0,0.0,0.0,0.0,1.5061,1.5144,1.5801,1.547,1.497,1.4963,1.4398,1.3828,1.3307,1.2875,1.2534,1.2123,1.1871,1.1521,1.0901,1.0814,1.0554,1.0038,1.0125,1.0386,1.0549,1.0727,1.0992,1.1348,1.1354,1.1527,1.1785,1.1699,1.1338,1.0611,1.1218,1.1104,1.0119,1.0942,1.1243,1.1197,1.095,1.1301,1.2172,1.1717,1.2261,1.3576,1.3981,1.4166,1.425,1.4398,1.4321,1.425,1.4166,1.4166,1.4088,0.0,0.0,0.0,0.0,0.0,0.0,0.0,0.0,0.0,0.0,0.0,0.0,0.0,0.0,0.0,0.0,0.0,0.0,2.975,2.9166,2.8496,2.7735,2.6909,2.5997,2.5078,2.4058,2.3094,2.2054,2.126,2.0509,1.9828,1.9582,1.9354,1.9164,1.9357,1.9108,1.8662,1.9196,1.9456,1.9525,1.993,2.0345,2.0787,2.071,2.0265,1.9668,1.9747,2.0187,2.0787,2.0797,2.0787,2.0787,2.0961,2.0663,2.0275,2.044,1.9687,1.8754,1.8264,1.7131,1.6162,1.646,1.6296,1.6049,0.0,1.5786,1.5786,1.553,1.4963,1.43,1.3672,1.3535,1.3307,1.2619,1.2619,1.2619,1.2363,1.1946,1.1699,1.1613,1.1348,1.0911,1.0038,1.0738,1.0997,1.0636,1.117,1.1613,1.1613,1.1699,1.1785,1.1957,1.1785,1.1338,1.0611,1.095,1.0575,0.9527,1.0757,1.1221,1.11,1.192,1.2537,1.2871,1.3278,1.3736,1.4266,1.43,1.4482,1.4657,1.465,1.465,1.4566,1.4398,1.4243,1.4166,0.0,0.0,0.0,0.0,0.0,0.0,0.0,0.0,0.0,0.0,0.0,0.0,0.0,0.0,0.0,0.0,0.0,0.0,2.981,2.9454,2.8951,2.8271,2.77,2.7041,2.6308,2.5481,2.467,2.3884,2.3485,2.2995,2.2531,2.2442,2.2157,2.1702,2.151,2.1047,2.0431,2.0389,2.0503,2.0752,2.0885,2.13,2.179,2.179,2.1866,2.1866,2.1048,2.0961,0.0,0.0,2.1247,2.1171,2.1334,2.1268,2.0971,2.0663,2.0372,1.9835,1.8966,1.8407,1.8006,1.7594,1.7585,1.7666,1.7261,1.718,1.718,1.7188,1.6698,1.6041,1.5274,1.488,1.4482,1.3561,1.3483,1.3307,1.2619,1.2454,1.2203,1.1871,1.1699,1.1348,1.0824,1.1089,1.1262,1.0997,1.1435,1.1699,1.1699,1.1785,1.1952,1.2203,1.2283,1.2192,1.2089,1.2272,1.2128,1.1759,1.2271,1.2475,1.2373,1.2883,1.3195,1.3394,1.3931,1.423,1.4398,1.4566,1.465,1.4741,1.4908,1.4824,1.465,1.465,1.4489,1.4496,0.0,0.0,0.0,0.0,0.0,0.0,0.0,0.0,0.0,0.0,0.0,0.0,0.0,0.0,0.0,0.0,0.0,0.0,0.0,2.9605,2.9152,2.8606,2.8174,2.763,2.7071,2.6496,2.5892,2.5204,2.5199,2.5096,2.4813,2.4875,2.4626,2.4011,2.3688,2.3037,2.2143,2.1893,2.1967,2.2193,2.2265,2.256,2.3073,2.3147,2.3514,2.3818,2.2478,2.2103,0.0,0.0,2.2328,2.2167,2.2317,2.2253,2.1973,2.1583,2.1211,2.076,1.9825,1.959,1.9353,1.8638,1.8798,1.8966,1.8567,1.8407,1.8407,1.8585,1.8103,1.7538,1.6878,1.6147,1.5409,1.458,1.425,1.3828,1.3052,1.2875,1.2625,1.2203,1.2037,1.178,1.1527,1.1435,1.144,1.144,1.1693,1.1952,1.1952,1.2118,1.2375,1.2705,1.279,1.2966,1.3137,1.3307,1.3398,1.3398,1.3483,1.3483,1.3568,1.373,1.3815,1.3984,1.4314,1.4482,1.4566,1.4741,1.4824,1.4908,1.509,1.5082,1.4908,1.4908,1.4824,1.4734,0.0,0.0,0.0,0.0,0.0,0.0,0.0,0.0,0.0,0.0,0.0,0.0,0.0,0.0,0.0,0.0,0.0,0.0,0.0,2.9531,2.9075,2.8904,2.8332,2.7806,2.7386,2.7233,2.6803,2.6056,2.6414,2.6483,2.635,2.6675,2.6453,2.5838,2.5983,2.5297,2.4025,2.412,2.4226,2.4255,2.4405,2.4634,2.4933,2.5158,2.5229,2.5087,2.3891,0.0,0.0,0.0,2.4718,2.4718,2.4718,2.4273,2.3824,2.3824,2.2681,2.1461,2.1165,2.0216,1.9344,1.952,1.945,1.9213,1.9045,1.9125,1.9222,1.9301,1.8416,1.7691,1.77,1.655,1.565,1.5401,1.4664,1.4004,1.3737,1.3307,1.2966,1.2705,1.2534,1.2283,1.2037,1.1785,1.1699,1.1699,1.2118,1.2448,1.2619,1.2705,1.2875,1.3392,1.3222,1.3222,1.3392,1.3398,1.3398,1.3398,1.3568,1.3828,1.4088,1.4489,1.465,1.465,1.465,1.4824,1.509,1.509,1.5173,1.5347,1.5431,1.5431,1.5347,1.5347,1.5082,1.4734,0.0,0.0,0.0,0.0,0.0,0.0,0.0,0.0,0.0,0.0,0.0,0.0,0.0,0.0,0.0,0.0,0.0,0.0,0.0,2.9858,2.9531,2.9289,2.8873,2.8446,2.8155,2.7775,2.7423,2.71,2.7671,2.7769,2.7516,2.7995,2.7964,2.7576,2.7064,2.6575,2.613,2.5862,2.5636,2.5546,2.5615,2.5656,2.5606,2.5676,2.5688,2.5606,0.0,0.0,0.0,2.4981,2.4921,2.479,2.4992,2.4778,2.4418,2.4043,2.3298,2.2542,2.1939,2.1471,2.1078,2.0722,2.0644,2.0489,2.0157,2.0089,2.002,1.9557,1.9143,1.8576,1.8006,1.7448,1.6796,1.6147,1.5567,1.5068,1.4643,1.4153,1.3659,1.3392,1.3052,1.2796,1.2717,1.2209,1.1871,1.1871,1.2369,1.2619,1.2705,1.2794,1.304,1.3385,1.3304,1.3381,1.3568,1.3899,1.4062,1.4062,1.4237,1.4405,1.4489,1.4657,1.4734,1.4734,1.4908,1.5166,1.5492,1.5665,1.5997,1.6245,1.6245,1.6245,1.6221,1.599,1.5817,1.5686,0.0,0.0,0.0,0.0,0.0,0.0,0.0,0.0,0.0,0.0,0.0,0.0,0.0,0.0,0.0,0.0,0.0,3.1002,0.0,0.0,3.0044,2.9853,2.9512,2.918,2.895,2.8638,2.8427,2.8293,2.9094,2.9252,2.8742,2.9405,2.9393,2.8881,2.8208,2.7815,2.7617,2.7095,2.6756,2.6564,2.6508,2.6383,2.6176,2.6258,2.6258,0.0,0.0,0.0,0.0,2.5407,2.5277,2.5206,2.5265,2.5123,2.4778,2.4273,2.3824,2.3372,2.2777,2.2402,2.2101,2.1655,2.1436,2.1195,2.0886,2.0722,2.0489,2.0029,1.9627,1.9222,1.8567,1.8167,1.7691,1.696,1.6386,1.5884,1.5394,1.4901,1.4412,1.3906,1.3568,1.3398,1.3222,1.2802,1.2466,1.2381,1.2711,1.2917,1.2909,1.3074,1.3181,1.3417,1.3411,1.3539,1.3908,1.4241,1.4539,1.4727,1.4985,1.5151,1.5318,1.5401,1.5401,1.5401,1.5575,1.5831,1.6064,1.6245,1.6492,1.6722,1.6595,1.6547,1.6508,1.615,1.6023,1.5976,0.0,0.0,0.0,0.0,0.0,0.0,0.0,0.0,0.0,0.0,0.0,0.0,0.0,0.0,0.0,0.0,0.0,0.0,0.0,0.0,0.0,3.0518,3.0276,2.9989,2.9745,2.9729,2.9665,2.957,3.0618,3.0732,2.9941,3.0949,3.0852,2.9651,2.9435,2.9044,2.8481,2.8039,2.7577,2.7229,2.7066,2.6875,2.6726,2.6943,0.0,0.0,0.0,0.0,2.6233,2.5968,2.591,2.584,2.5688,2.5394,2.5052,2.4634,2.4273,2.3897,2.3677,2.3075,2.2402,2.2176,2.1807,2.1502,2.1282,2.0964,2.0644,2.0644,2.0108,1.9557,1.9381,1.8816,1.8256,1.7861,1.7196,1.6542,1.5899,1.565,1.5151,1.4334,1.4173,1.399,1.3542,1.3457,1.3366,1.3178,1.3281,1.3342,1.3326,1.3287,1.3386,1.3502,1.3482,1.3705,1.4258,1.436,1.4671,1.5372,1.5643,1.5982,1.6394,1.6648,1.673,1.673,1.673,1.673,1.673,1.673,1.6804,1.6756,1.6413,1.6269,1.6292,1.587,1.5742,1.5734,0.0,0.0,0.0,0.0,0.0,0.0,0.0,0.0,0.0,0.0,0.0,0.0,0.0,0.0,0.0,0.0,0.0,0.0,0.0,0.0,0.0,0.0,0.0,0.0,0.0,0.0,0.0,0.0,0.0,3.146,3.1585,3.2145,3.186,3.0911,3.0392,2.9737,2.9044,2.8314,2.7868,2.7643,0.0,2.7079,2.6943,0.0,0.0,0.0,0.0,0.0,2.6739,2.6314,2.6037,2.591,2.5828,2.5688,2.5394,2.517,2.4969,2.4611,2.397,2.3666,2.3372,2.2927,2.2478,2.2101,2.1959,2.1578,2.1195,2.1051,2.0654,2.0255,2.0108,1.946,1.8984,1.8674,1.8103,1.7619,1.7456,1.6788,1.6288,1.6041,1.5477,1.4892,1.4568,1.4227,1.3974,1.3668,1.3539,1.3556,1.3484,1.3371,1.3423,1.3731,1.3509,1.3543,1.3936,1.4649,1.5212,1.5544,1.6203,1.6484,1.6648,1.6656,1.673,1.673,1.6886,1.7131,1.7456,1.7627,1.7709,1.7761,1.7657,1.7731,1.7857,1.7551,1.7677,1.8114,0.0,0.0,0.0,0.0,0.0,0.0,0.0,0.0,0.0,0.0,0.0,0.0,0.0,0.0,0.0,0.0,0.0,0.0,0.0,0.0,0.0,0.0,0.0,0.0,0.0,0.0,0.0,0.0,0.0,0.0,0.0,3.3081,3.2763,3.186,3.1417,3.0911,3.0315,2.9393,0.0,0.0,0.0,0.0,0.0,0.0,0.0,0.0,0.0,2.7214,2.7079,2.6658,2.6383,2.6107,2.605,2.5898,2.5676,2.5382,2.5241,2.504,2.4478,2.42,2.3897,2.3519,2.3075,2.2777,2.2553,2.2252,2.1949,2.1655,2.1349,2.1031,2.0644,2.0245,1.9854,1.9469,1.9073,1.8665,1.8193,1.7683,1.7188,1.678,1.6001,1.5434,1.5175,1.4634,1.4324,1.4294,1.3898,1.378,1.3959,1.3921,1.4043,1.4524,1.4408,1.4462,1.4736,1.5623,1.6039,1.6126,1.6798,1.7456,1.8006,1.8086,1.831,1.8603,1.8753,1.8921,1.9158,1.9072,1.9112,1.9099,1.8648,1.8578,1.8663,1.8337,1.8449,1.8733,0.0,0.0,0.0,0.0,0.0,0.0,0.0,0.0,0.0,0.0,0.0,0.0,0.0,0.0,0.0,0.0,0.0,0.0,0.0,0.0,0.0,0.0,0.0,0.0,0.0,0.0,0.0,0.0,0.0,0.0,0.0,0.0,0.0,0.0,0.0,0.0,0.0,0.0,0.0,0.0,0.0,0.0,0.0,0.0,0.0,0.0,2.7669,2.7536,2.7416,2.7146,2.6863,2.644,2.6327,2.6119,2.5898,2.5523,2.5382,2.5324,2.4992,2.4634,2.4261,2.4043,2.3751,2.3372,2.315,2.2927,2.2703,2.2327,2.2035,2.1721,2.1252,2.1011,2.0789,2.0245,2.002,1.9696,1.8736,1.8576,1.8167,1.718,1.6389,1.5849,1.5738,1.5038,1.4742,1.5057,1.452,1.4271,1.4568,1.4507,1.4788,1.533,1.5508,1.5686,1.5928,1.6707,1.7164,1.7136,1.7826,1.8718,1.9825,1.9972,2.042,2.1094,2.1094,2.1064,2.106,2.0696,2.0474,2.0282,1.9425,1.9152,1.9198,1.8832,1.8813,1.8859,0.0,0.0,0.0,0.0,0.0,0.0,0.0,0.0,0.0,0.0,0.0,0.0,0.0,0.0,0.0,0.0,0.0,0.0,0.0,0.0,0.0,0.0,0.0,0.0,0.0,3.2483,3.2463,3.2621,3.3001,0.0,0.0,0.0,0.0,0.0,0.0,0.0,0.0,0.0,0.0,0.0,0.0,0.0,0.0,0.0,0.0,0.0,2.8392,2.821,2.7947,2.7723,2.7323,2.6875,2.6888,2.6589,2.6289,2.6208,2.6013,2.5688,2.5324,2.517,2.504,2.4706,2.4345,2.397,2.3824,2.3446,2.315,2.2927,2.2703,2.2478,2.2392,2.1852,2.1385,2.1231,2.0779,2.0401,2.0245,1.9854,1.946,1.9116,1.8048,1.7157,1.6699,1.5971,1.5626,1.5996,1.5971,1.5516,1.477,1.466,1.4624,1.4776,1.4776,1.5217,1.6074,1.7178,1.8161,1.8937,2.0043,2.0633,2.0874,2.0874,2.0941,2.1094,2.1268,2.1141,2.0785,2.102,2.0699,1.9983,1.9944,2.0055,2.0303,2.0118,2.0409,2.0921,0.0,0.0,0.0,0.0,0.0,0.0,0.0,0.0,0.0,0.0,3.0965,3.1123,0.0,0.0,0.0,0.0,0.0,0.0,0.0,0.0,0.0,0.0,0.0,0.0,0.0,3.3144,3.3436,3.3789,0.0,3.424,3.4789,3.5078,3.4883,3.4251,3.4136,3.3732,3.3093,0.0,0.0,3.1747,3.1332,3.0749,0.0,0.0,0.0,0.0,0.0,2.8638,2.8688,2.8314,2.8352,2.8403,2.7335,2.6875,2.6714,2.6577,2.644,2.6245,2.5873,2.5734,2.5676,2.5336,2.4969,2.4754,2.4527,2.425,2.397,2.3677,2.3519,2.3372,2.3075,2.2692,2.2381,2.2155,2.1711,2.1328,2.1088,2.0712,2.0323,1.9923,1.8926,1.8141,1.7755,1.7187,1.6982,1.7129,1.7503,1.7451,1.6749,1.7014,1.7257,1.7316,1.6991,1.7255,1.8203,1.8581,1.9222,2.0143,2.0969,2.1714,2.2232,2.2307,2.2616,2.301,2.3106,2.2904,2.2419,2.2317,2.1865,2.1174,2.0995,2.102,2.1146,2.1094,2.1285,2.1549,0.0,0.0,0.0,0.0,0.0,0.0,0.0,3.0458,3.0535,3.1145,3.1223,3.1261,3.1355,3.164,0.0,0.0,0.0,0.0,0.0,0.0,0.0,0.0,0.0,0.0,0.0,0.0,0.0,3.4626,3.4695,0.0,0.0,0.0,0.0,0.0,3.4756,3.4448,3.405,3.3646,3.3214,0.0,0.0,3.1875,0.0,0.0,0.0,0.0,0.0,2.9324,2.9484,2.9135,2.9421,2.9704,2.8143,2.751,2.7255,2.7108,2.6918,2.6726,2.6371,2.6302,2.6233,2.5816,2.5594,2.5453,2.5158,2.504,2.4778,2.4478,2.4334,2.4189,2.3677,2.3593,2.3434,2.3075,2.2692,2.2317,2.1918,2.1548,2.1165,2.0702,1.985,1.9286,1.912,1.8708,1.8508,1.8755,1.932,1.9333,1.8593,1.91,1.9518,1.9584,1.9131,1.9313,2.0265,2.0153,2.0597,2.1565,2.2094,2.2798,2.3537,2.3683,2.4154,2.479,2.479,2.4484,2.3943,2.3494,2.2975,2.2392,2.1961,2.1824,2.1824,2.1761,2.1761,2.1761,0.0,0.0,0.0,0.0,0.0,0.0,0.0,3.1199,3.0948,3.1565,3.164,3.1787,3.2127,3.2214,0.0,0.0,0.0,0.0,0.0,0.0,0.0,0.0,0.0,0.0,0.0,0.0,0.0,3.3823,3.438,0.0,0.0,0.0,0.0,0.0,0.0,3.4691,3.4594,3.4333,0.0,0.0,0.0,0.0,0.0,0.0,0.0,0.0,0.0,3.0584,3.0404,3.0343,3.0208,2.995,2.9766,2.9129,2.8376,2.8363,2.7696,2.6943,2.6726,2.6645,2.6577,2.6233,2.6164,2.6025,2.5606,2.5394,2.517,2.4945,2.4838,2.4718,2.4646,2.4455,2.4215,2.4116,2.3875,2.3559,2.3213,2.2927,2.2628,2.2252,2.15,2.1076,2.1364,2.0475,2.0314,2.1459,2.1771,2.0985,1.8803,1.8936,1.8936,1.867,1.887,1.963,2.0871,2.1403,2.241,2.3891,2.4311,2.4562,2.4634,2.4634,2.4718,2.479,2.479,2.4484,2.3931,2.3629,2.3173,2.2662,2.2277,2.2135,2.2123,2.1937,2.1874,2.1874,0.0,0.0,0.0,0.0,0.0,0.0,0.0,3.2133,3.202,3.2699,3.2352,3.2197,3.2639,3.2672,3.2672,0.0,0.0,0.0,0.0,0.0,0.0,0.0,0.0,0.0,0.0,0.0,3.414,3.4404,3.4686,0.0,0.0,0.0,0.0,0.0,0.0,3.4851,3.4691,3.4594,0.0,0.0,0.0,0.0,0.0,0.0,0.0,0.0,0.0,0.0,3.1664,3.1203,3.1435,3.189,3.1435,3.0867,3.0242,2.9614,2.8903,2.8403,2.8376,2.8195,2.7947,2.792,2.7458,2.7069,2.6909,2.6321,2.5804,2.5734,2.5606,2.5419,2.5265,2.5324,2.5241,2.4897,2.4791,2.4624,2.4215,2.3852,2.3559,2.335,2.2972,2.2755,2.2573,2.2366,2.2321,2.2587,2.2641,2.2149,2.1078,2.0974,2.0858,2.0719,2.044,2.1039,2.2604,2.248,2.3283,2.504,2.5111,2.5194,2.5265,2.5265,2.5194,2.5111,2.5265,2.4895,2.4276,2.3965,2.3501,2.2971,2.2639,2.2494,2.2506,2.2432,2.2371,2.2371,0.0,0.0,0.0,0.0,0.0,0.0,3.3498,3.2995,3.2814,3.3494,3.2948,3.2694,3.3191,3.3241,3.3241,3.3241,0.0,0.0,0.0,0.0,0.0,0.0,0.0,0.0,0.0,0.0,3.4031,3.4624,3.4565,3.4687,0.0,0.0,3.5048,3.4835,0.0,0.0,0.0,0.0,0.0,0.0,0.0,0.0,0.0,0.0,0.0,0.0,0.0,0.0,0.0,0.0,0.0,3.3187,3.2656,3.2296,3.1875,3.0822,2.9997,2.9484,2.9456,2.9282,2.9093,2.8953,2.8441,2.792,2.7828,2.7069,2.6371,2.6371,2.6164,2.6025,2.5886,2.6025,2.6037,0.0,2.5709,2.5557,2.5217,2.4921,2.4767,2.4743,2.4472,2.4355,2.4675,2.4558,2.4392,2.4151,2.3596,2.3276,2.3405,2.2899,2.2494,2.2197,2.1981,2.2467,2.3791,2.3546,2.4205,2.5688,2.5535,2.5535,2.5688,2.5688,2.5606,2.5465,2.5606,2.5399,2.486,2.4475,2.4006,2.3469,2.307,2.2825,2.269,2.269,2.269,2.269,0.0,0.0,0.0,0.0,0.0,0.0,0.0,3.3795,3.3169,3.374,3.3286,3.3187,3.4008,3.4097,3.4097,3.4097,0.0,0.0,0.0,0.0,0.0,0.0,0.0,0.0,0.0,0.0,3.3261,3.3917,3.3778,3.3697,3.3641,3.4124,3.4259,3.4225,0.0,0.0,0.0,0.0,0.0,0.0,0.0,0.0,0.0,0.0,0.0,0.0,0.0,0.0,0.0,0.0,0.0,0.0,0.0,3.3309,0.0,3.1931,3.0822,2.9889,2.9421,2.9656,2.9766,2.898,2.8648,2.8427,2.8051,2.7284,2.6714,2.6714,2.6496,2.6414,2.6414,2.6577,2.6645,2.6427,2.6577,2.6577,2.622,2.6151,2.6333,2.6815,2.5954,2.6029,2.7931,2.7144,2.6494,2.666,2.504,2.445,2.5217,2.4231,2.315,2.2247,2.3018,2.3607,2.4001,2.4682,2.5369,2.591,2.5898,2.5898,2.591,2.591,2.591,2.5898,2.591,2.5898,2.5849,2.532,2.4779,2.4239,2.3686,2.3157,2.269,2.269,2.269,2.269,0.0,0.0,0.0,0.0,0.0,0.0,0.0,3.5278,3.5037,3.5313,3.4834,3.4579,3.4829,3.4865,3.465,3.4151,0.0,0.0,0.0,0.0,0.0,0.0,0.0,0.0,0.0,0.0,3.2486,3.3144,3.3009,3.3145,3.3607,3.3643,3.3886,3.4242,3.4437,3.4685,0.0,0.0,0.0,0.0,0.0,0.0,3.4101,0.0,0.0,0.0,0.0,0.0,0.0,0.0,0.0,0.0,0.0,0.0,0.0,3.3124,3.2281,3.142,3.1534,3.1319,3.0999,3.0999,3.0615,3.0165,3.0043,2.9352,2.8657,2.8363,2.7894,2.7577,2.7484,2.7443,2.7443,2.7497,2.7776,2.7855,2.7497,2.7217,2.7338,2.7894,2.7967,2.8071,2.8319,2.8036,2.7563,2.7006,2.5953,2.556,2.6179,2.5382,2.4372,2.3223,2.3801,2.4418,2.4911,2.5557,2.6127,2.6671,2.6521,2.6452,2.6452,2.6452,2.6371,2.622,2.6371,2.6314,2.6057,2.5635,2.5244,2.4876,2.4165,2.3816,2.3678,2.3301,2.3223,2.333,0.0,0.0,0.0,0.0,0.0,0.0,0.0,3.5908,3.5752,3.5962,3.5456,3.5207,3.5632,3.565,3.5471,3.5007,0.0,0.0,0.0,0.0,0.0,0.0,0.0,0.0,0.0,3.18,3.1987,3.2431,3.2299,3.2422,3.2798,3.3005,3.3347,3.391,3.4124,3.4543,0.0,0.0,0.0,0.0,0.0,0.0,3.4201,0.0,0.0,0.0,0.0,0.0,0.0,0.0,0.0,0.0,0.0,0.0,0.0,0.0,3.3455,3.2841,3.2641,3.2382,3.2176,3.212,3.1679,3.1188,3.1188,3.0466,2.9737,2.9442,2.9213,2.8947,2.8762,2.8862,2.8898,2.8925,2.9016,2.9016,2.8925,2.8556,2.8427,2.8925,2.9662,2.9872,2.9139,2.9032,2.8788,2.8228,2.7242,2.6858,2.7203,2.6538,2.58,2.4965,2.5166,2.5521,2.5807,2.627,2.6678,2.7024,2.6863,2.6794,2.6794,2.6794,2.6726,2.6645,2.6794,2.6658,0.0,2.6198,2.5946,2.5561,2.5012,2.4608,2.4238,2.3956,2.3688,2.3628,0.0,0.0,0.0,0.0,0.0,0.0,0.0,0.0,0.0,0.0,3.5435,3.5439,3.6399,3.6488,3.6453,0.0,0.0,0.0,0.0,0.0,0.0,0.0,0.0,0.0,0.0,3.18,3.18,3.18,3.1671,3.1559,3.1534,3.2134,3.2686,3.3169,3.3893,3.4549,0.0,0.0,0.0,0.0,0.0,0.0,0.0,0.0,0.0,0.0,0.0,0.0,0.0,0.0,0.0,0.0,0.0,0.0,0.0,0.0,0.0,0.0,0.0,3.2996,3.3171,3.2516,3.2043,3.169,3.1562,3.0867,0.0,3.0194,3.0392,3.0422,3.0179,3.0527,3.0778,3.0586,3.0274,3.0153,3.0468,3.0076,2.9737,2.9832,3.1028,3.1407,3.0466,3.028,3.0192,3.009,2.8897,2.8205,2.8358,2.7788,2.7423,2.7313,2.7073,2.6893,2.6803,2.6997,2.7079,2.7079,2.7079,2.7079,2.7092,2.7011,2.7011,2.7079,2.7024,2.7011,2.7024,2.7024,2.6716,2.6242,2.6191,2.5589,2.4638,2.4548,2.4189,2.368,0.0,0.0,0.0,0.0,0.0,0.0,0.0,0.0,0.0,0.0,0.0,3.7059,3.7273,3.7309,0.0,0.0,0.0,0.0,0.0,0.0,0.0,0.0,0.0,0.0,0.0,3.18,3.18,3.18,3.1671,3.1579,3.1596,3.1577,3.197,3.2693,3.3237,3.408,0.0,0.0,0.0,0.0,0.0,0.0,0.0,0.0,0.0,0.0,3.4349,3.4349,0.0,0.0,0.0,0.0,0.0,0.0,0.0,0.0,3.4448,3.4349,3.4134,0.0,3.3398,3.3277,3.3049,3.2873,0.0,3.2711,3.2422,3.2059,3.186,3.1675,3.1462,3.1402,3.1429,3.166,3.1702,3.1758,3.1717,3.1804,3.1747,3.136,3.2155,3.2437,3.1807,3.1702,3.1429,3.0822,3.0046,2.9711,3.0007,2.9403,2.9215,2.9551,2.9265,2.8553,2.7476,2.7954,2.8197,2.8197,2.8197,2.8197,2.8197,2.7443,2.739,2.7815,2.7066,2.693,2.7214,2.7214,2.7069,2.678,2.6345,2.6077,2.5845,2.4955,2.4676,2.458,0.0,0.0,0.0,0.0,0.0,0.0,0.0,0.0,0.0,0.0,0.0,0.0,0.0,0.0,0.0,0.0,0.0,0.0,0.0,0.0,0.0,0.0,0.0,0.0,3.1929,3.1837,3.18,3.18,3.1709,3.1671,3.1617,3.1504,3.1815,3.2553,3.3339,0.0,0.0,0.0,0.0,0.0,3.4899,0.0,0.0,0.0,0.0,0.0,3.4448,3.4448,0.0,3.4497,3.4546,3.4594,0.0,0.0,0.0,0.0,3.4691,3.4691,3.4691,3.4349,3.3949,3.3949,3.3797,3.3658,3.3658,3.3503,3.3346,3.3049,3.2964,3.2879,3.268,3.2779,3.2908,3.3061,3.3008,3.2833,3.2741,3.3024,3.3145,3.281,3.3177,3.3261,3.285,3.2617,3.2216,3.161,3.1108,3.0849,3.0807,3.0529,3.0441,3.0493,3.0068,2.9406,2.8588,2.873,2.8766,2.8688,2.8688,2.8495,2.8105,2.7564,2.7297,2.7323,2.7108,2.7175,2.7377,2.7603,2.7669,2.7709,2.7275,2.6922,2.666,2.608,2.5467,2.4922,0.0,0.0,0.0,0.0,0.0,0.0,0.0,0.0,0.0,0.0,0.0,0.0,0.0,0.0,0.0,0.0,0.0,0.0,0.0,0.0,0.0,0.0,0.0,3.2108,3.2108,3.1893,3.18,3.18,3.18,3.1746,3.1617,3.1617,3.1983,3.2723,3.3736,3.4633,0.0,0.0,3.5245,3.5135,3.5135,0.0,0.0,0.0,0.0,0.0,0.0,0.0,0.0,3.4546,3.4643,3.4739,3.4739,0.0,0.0,0.0,0.0,0.0,3.4947,3.4804,3.4594,3.4546,3.4349,3.4201,3.4151,3.3899,3.3642,3.3642,3.3848,3.3899,3.3694,3.4151,3.4546,3.4448,3.4102,3.3802,3.3649,3.3919,3.4118,3.405,3.4,3.3899,3.3607,3.3193,3.2819,3.2398,3.2007,3.1682,3.1307,3.1351,3.1234,3.094,3.0251,2.9884,2.9851,2.9338,2.9085,2.8994,2.8994,2.8597,2.7868,2.7604,2.7204,2.6688,2.7082,2.7351,2.755,2.7855,2.8262,2.8587,2.8276,2.7889,2.7421,2.7327,2.6432,2.5248,0.0,0.0,0.0,0.0,0.0,0.0,0.0,0.0,0.0,0.0,0.0,0.0,0.0,0.0,0.0,0.0,0.0,0.0,0.0,0.0,0.0,0.0,3.2472,3.2232,3.2108,3.1893,3.18,3.18,3.18,3.18,3.1763,3.1654,3.2273,3.3437,3.3516,3.4267,3.5492,3.5492,3.54,3.5245,3.5245,0.0,0.0,0.0,0.0,0.0,0.0,0.0,0.0,3.4804,3.4947,3.5041,3.5041,0.0,0.0,0.0,0.0,0.0,3.5245,3.5198,3.5105,3.4739,3.4643,3.4594,3.4448,3.4399,3.4349,3.4349,3.4399,3.4399,3.4349,3.4611,3.4851,3.4947,3.493,3.4883,3.4835,3.4691,3.4594,3.4594,3.4594,3.4448,3.405,3.3848,3.3523,3.3087,3.2695,3.2382,3.2231,3.1883,3.1597,3.1379,3.0613,3.0447,3.0895,2.9822,2.9449,2.9913,2.9913,2.9851,2.9651,2.8103,2.7657,2.796,2.6483,2.6471,2.7484,2.7564,2.7973,2.8587,2.8522,2.8468,2.8319,2.7791,2.7168,2.6377,0.0,0.0,0.0,0.0,0.0,0.0,0.0,0.0,0.0,0.0,0.0,0.0,0.0,0.0,0.0,0.0,0.0,0.0,0.0,0.0,0.0,3.2987,3.2639,3.2386,3.2197,3.1929,3.18,3.18,3.18,3.18,3.18,3.1671,3.2102,3.3076,3.3362,3.4058,3.4975,3.538,3.552,3.54,0.0,0.0,0.0,0.0,0.0,0.0,0.0,0.0,0.0,0.0,3.5152,3.5198,3.5198,0.0,0.0,0.0,0.0,0.0,3.5291,3.5337,3.5354,3.5105,3.5041,3.4994,3.4947,3.4899,3.4835,3.4835,3.4835,3.4835,3.4835,3.4994,3.5152,3.5198,3.5274,3.5367,3.5337,3.5228,3.5165,3.5041,3.5041,3.4851,3.4448,3.4151,3.3848,3.3523,3.3156,3.2834,3.2453,3.2287,3.2079,3.1796,3.1073,3.0896,3.1336,3.0025,2.9794,3.0476,3.0476,3.0007,2.9044,2.822,2.7511,2.696,2.6414,2.6744,2.7696,2.7736,2.8274,2.9099,2.8908,2.8844,2.8776,2.8007,2.7346,2.6761,0.0,0.0,0.0,0.0,0.0,0.0,0.0,0.0,0.0,0.0,0.0,0.0,0.0,0.0,0.0,0.0,0.0,0.0,0.0,0.0,3.4793,3.3241,3.2989,3.2682,3.2318,3.2037,3.1837,3.18,3.18,3.18,3.18,3.1671,3.1953,3.2644,3.3291,3.3956,3.4539,3.5301,3.5594,3.552,0.0,0.0,0.0,0.0,0.0,0.0,0.0,0.0,0.0,0.0,0.0,0.0,0.0,0.0,0.0,3.5429,3.5429,3.5429,3.5475,3.552,3.5611,3.5475,3.5429,3.5367,3.5321,3.5274,3.5228,3.5228,3.5228,3.5228,3.5228,3.5367,3.5458,3.5458,3.5577,3.5667,3.5566,3.5594,3.5549,3.5383,3.5337,3.5152,3.4851,3.4448,3.4101,3.3899,3.3607,3.3171,3.2617,3.2477,3.2272,3.1868,3.1175,3.0984,3.1321,3.0194,3.0025,3.0642,3.0462,2.9685,2.839,2.8155,2.7378,2.6302,2.6414,2.696,2.7643,2.7868,2.8597,2.9477,2.9352,2.9352,2.9205,2.8319,2.7673,2.7322,0.0,0.0,0.0,0.0,0.0,0.0,0.0,0.0,0.0,0.0,0.0,0.0,0.0,0.0,0.0,0.0,0.0,0.0,0.0,0.0,3.5632,3.4079,3.3805,3.3281,3.2335,3.2161,3.1982,3.18,3.18,3.18,3.18,3.1671,3.1953,3.2644,3.3291,3.3956,3.4539,3.5301,3.5577,3.5577,3.5577,0.0,0.0,0.0,0.0,0.0,0.0,0.0,0.0,0.0,0.0,0.0,0.0,0.0,3.5577,3.5728,3.5773,3.5773,3.5932,3.5975,3.5975,3.5932,3.5756,3.5532,3.5424,3.547,3.5577,3.5577,3.5577,3.5577,3.5577,3.5756,3.5932,3.5932,3.5975,3.5932,3.5773,3.5684,3.5594,3.5492,3.54,3.5245,3.5105,3.4707,3.4448,3.4448,3.3949,3.3555,3.324,3.2422,3.1849,3.1537,3.0748,3.0464,3.0687,3.0404,3.0222,3.0129,2.9526,2.9162,2.9022,2.8012,2.7471,2.7351,2.6358,2.6371,2.7108,2.7736,2.8468,2.9226,2.9803,3.005,2.9917,2.9128,2.8799,2.8672,0.0,0.0,0.0,0.0,0.0,0.0,0.0,0.0,0.0,0.0,0.0,0.0,0.0,0.0,0.0,0.0,0.0,0.0,0.0,0.0,3.5489,3.3437,3.3746,3.3539,3.2506,3.2809,3.2686,3.2126,3.2037,3.1929,3.18,3.1746,3.1826,3.2021,3.2656,3.3342,3.3965,3.4651,3.5182,3.5622,3.5622,3.5577,0.0,0.0,0.0,0.0,0.0,0.0,0.0,0.0,3.5503,3.5594,0.0,3.5684,3.5773,3.5905,3.5932,3.5975,3.6131,3.6191,3.6216,3.6343,3.6367,3.6241,3.5871,3.58,3.5871,3.6002,3.5932,3.5888,3.6002,3.6019,3.6062,3.6191,3.6105,3.5975,3.5932,3.5817,3.5684,3.5594,3.5429,3.5245,3.5088,3.4787,3.4594,3.4497,3.425,3.3781,3.3033,3.2625,3.2185,3.1537,3.1131,3.0911,3.0851,3.0297,2.9931,2.9775,2.9685,2.9435,2.8881,2.8287,2.7696,2.7121,2.6508,2.6633,2.731,2.7364,2.8091,2.9162,2.9865,3.0111,3.0083,2.9779,2.9437,2.9123,0.0,0.0,0.0,0.0,0.0,0.0,0.0,0.0,0.0,0.0,0.0,0.0,0.0,0.0,0.0,0.0,0.0,0.0,0.0,3.6238,3.556,3.3705,3.3937,3.3657,3.2722,3.3351,3.3213,3.2283,3.2179,3.2037,3.1893,3.1837,3.1709,3.1614,3.2363,3.2878,3.3318,3.4185,3.4854,3.5284,3.552,3.5622,0.0,0.0,0.0,0.0,0.0,0.0,0.0,0.0,3.5622,0.0,0.0,0.0,0.0,3.6036,3.6122,3.6191,3.636,3.6468,3.655,3.6673,3.6794,3.6753,3.6385,3.6318,3.6343,3.6468,3.6385,3.636,3.6402,3.6318,3.6233,3.6301,3.6174,3.6105,3.6079,3.5993,3.5861,3.5667,3.5458,3.5274,3.5198,3.4899,3.4643,3.4497,3.4399,3.3866,3.2841,3.268,3.2185,3.1321,3.1161,3.0911,3.0598,3.0176,2.9837,2.9602,2.9685,2.9359,2.8753,2.8417,2.7908,2.7201,2.6905,2.6973,2.7335,2.731,2.8091,2.9401,3.0036,3.0294,3.0233,3.0158,2.9886,2.9585,0.0,0.0,0.0,0.0,0.0,0.0,0.0,0.0,0.0,0.0,0.0,0.0,0.0,0.0,0.0,0.0,0.0,0.0,0.0,3.6827,3.6042,3.5239,3.4508,3.3723,3.2934,3.3669,3.3521,3.2318,3.2179,3.2108,3.2126,3.191,3.1746,3.1651,3.2441,3.2684,3.2604,3.4083,3.4609,3.4556,3.5318,3.5622,3.5622,0.0,0.0,0.0,0.0,0.0,0.0,0.0,3.5622,3.5622,0.0,0.0,0.0,3.614,3.6335,3.6544,3.6643,3.6846,3.7009,3.7027,3.7027,3.7027,3.7027,3.7009,3.6987,3.6987,3.6987,3.6948,3.6725,3.6702,3.6602,3.6343,3.6301,3.6276,3.6208,3.6225,3.6079,3.5817,3.556,3.5396,3.5291,3.4947,3.4643,3.4497,3.4399,3.3866,3.2841,3.2376,3.1721,3.0821,3.0702,3.0326,2.9808,3.0129,3.0083,2.9602,2.9289,2.8908,2.8587,2.8365,2.8105,2.7776,2.759,2.7335,2.7011,2.7723,2.8739,2.987,3.0507,3.0702,3.0568,3.0387,3.0312,3.0312,0.0,0.0,0.0,0.0,0.0,0.0,0.0,0.0,0.0,0.0,0.0,0.0,0.0,0.0,0.0,0.0,0.0,0.0,0.0,3.67,3.5932,3.4554,3.484,3.4342,3.2952,3.3116,3.3286,3.3352,3.2736,3.2335,3.2108,3.2037,3.1893,3.1763,3.1912,3.2192,3.2616,3.3564,3.4134,3.4556,3.5318,3.5622,3.5622,0.0,0.0,0.0,0.0,0.0,0.0,0.0,0.0,0.0,0.0,0.0,0.0,3.6478,3.6602,3.6725,3.7087,3.722,3.7259,3.7466,3.7466,3.7429,3.7485,3.7241,3.6987,3.6987,3.7105,3.7182,3.7105,3.7005,3.6869,3.6811,3.6667,3.6502,3.6318,3.6251,3.6122,3.5949,3.5605,3.5396,3.5291,3.4994,3.4804,3.4643,3.4497,3.4068,3.3251,3.2625,3.1977,3.1321,3.0628,3.0158,3.0036,2.9913,2.9727,2.9602,2.9477,2.9289,2.8908,2.8651,2.8327,2.8,2.7789,2.7523,2.7268,2.7776,2.8468,2.9331,3.0054,3.0568,3.0955,3.0895,3.0484,3.0032,0.0,0.0,0.0,0.0,0.0,0.0,0.0,0.0,0.0,0.0,0.0,0.0,0.0,0.0,0.0,0.0,0.0,0.0,0.0,0.0,3.5747,3.476,3.4885,3.4318,3.2983,3.2948,3.3116,3.3448,3.2869,3.2506,3.2318,3.2179,3.2054,3.1893,3.1746,3.1874,3.2256,3.2906,3.3598,3.4245,3.4922,3.5351,3.5667,0.0,0.0,0.0,0.0,0.0,0.0,0.0,0.0,0.0,3.6036,0.0,0.0,3.662,3.6806,3.7005,3.7279,3.741,3.7484,3.7613,3.7649,3.7649,3.7757,3.754,3.7279,3.7279,3.7354,3.741,3.7297,3.7182,3.7105,3.7009,3.6846,3.6643,3.6502,3.6318,3.6208,3.6019,3.5756,3.5487,3.5383,3.5152,3.4947,3.4804,3.4594,3.4168,3.3443,3.3002,3.2367,3.1552,3.0851,3.0447,3.0158,2.9927,2.9727,2.9651,2.9651,2.954,2.9289,2.9099,2.878,2.8471,2.8066,2.7723,2.7403,2.7973,2.8403,2.8826,2.9808,3.0387,3.0732,3.0734,3.0396,2.9956,0.0,0.0,0.0,0.0,0.0,0.0,0.0,0.0,0.0,0.0,0.0,0.0,0.0,0.0,0.0,0.0,0.0,0.0,0.0,0.0,3.5436,3.5508,3.4753,3.388,3.3028,3.2979,3.2979,3.2916,3.2705,3.2639,3.2588,3.2284,3.2144,3.2108,3.1893,3.1746,3.1668,3.2325,3.3003,3.3646,3.4296,3.4999,3.5671,3.565,0.0,0.0,0.0,0.0,0.0,0.0,0.0,0.0,3.6122,3.6377,3.6544,3.6684,3.7005,3.7314,3.7334,3.7484,3.7613,3.7613,3.7685,3.7757,3.7899,3.7792,3.7739,3.7703,3.7649,3.754,3.7372,3.7334,3.7259,3.7066,3.6869,3.6742,3.6702,3.6502,3.6216,3.6019,3.5844,3.5701,3.5537,3.5245,3.5041,3.4947,3.4643,3.4218,3.3563,3.3287,3.2718,3.1709,3.1349,3.094,3.0372,3.0158,3.0036,2.9822,2.9822,2.9761,2.9602,2.9602,2.9415,2.9035,2.8406,2.7868,2.759,2.8157,2.8417,2.8532,2.9747,3.0251,3.024,3.0162,3.007,2.9938,0.0,0.0,0.0,0.0,0.0,0.0,0.0,0.0,0.0,0.0,0.0,0.0,0.0,0.0,0.0,0.0,0.0,0.0,0.0,0.0,3.4993,3.5638,3.4785,3.388,3.3028,3.2979,3.2979,3.2979,3.2884,3.2737,3.2606,3.2539,3.2404,3.2249,3.2108,3.1948,3.1891,3.2479,3.2792,3.2969,3.4277,3.484,3.4992,3.5552,3.5667,0.0,0.0,0.0,0.0,0.0,0.0,0.0,3.6377,3.6561,3.6725,3.7066,3.722,3.7334,3.7577,3.7631,3.7721,3.781,3.7881,3.7949,3.7967,3.7967,3.788,3.7739,3.7703,3.7631,3.754,3.7558,3.7484,3.7259,3.7182,3.7083,3.6725,3.6544,3.636,3.6019,3.58,3.5594,3.5492,3.5245,3.5105,3.5041,3.4691,3.4448,3.4267,3.3578,3.3077,3.281,3.1777,3.1116,3.0999,3.0387,3.0111,3.0036,3.0036,2.9974,2.9761,2.9665,2.9415,2.9035,2.8406,2.8079,2.7947,2.7802,2.8338,2.9268,2.958,3.0283,3.1145,3.0592,3.0041,2.9466,0.0,0.0,0.0,0.0,0.0,0.0,0.0,0.0,0.0,0.0,0.0,0.0,0.0,0.0,0.0,0.0,0.0,0.0,0.0,0.0,0.0,3.5738,3.5259,3.442,3.306,3.3042,3.3011,3.2948,3.2916,3.2852,3.2737,3.2639,3.2521,3.242,3.2197,3.2073,3.2018,3.2176,3.2441,3.2796,3.3505,3.4011,3.4379,3.5087,3.5334,3.5324,3.5725,0.0,0.0,0.0,0.0,0.0,0.0,0.0,3.7044,3.722,3.741,3.754,3.7667,3.7757,3.781,3.7916,3.7967,3.8018,3.8088,3.8088,3.8054,3.788,3.7774,3.7703,3.7631,3.7613,3.7558,3.7447,3.7372,3.7182,3.6886,3.6626,3.6377,3.6019,3.58,3.5639,3.5566,3.5321,3.5198,3.5198,3.4739,3.4497,3.4497,3.3968,3.3475,3.3198,3.2281,3.1637,3.1349,3.0687,3.028,3.0219,3.0219,3.0083,2.9808,2.9651,2.9415,2.9099,2.8716,2.8471,2.8327,2.8131,2.8546,2.9407,2.9642,3.0141,3.0613,3.0242,2.96,2.8904,0.0,0.0,0.0,0.0,0.0,0.0,0.0,0.0,0.0,0.0,0.0,0.0,0.0,0.0,0.0,0.0,0.0,0.0,0.0,0.0,0.0,0.0,3.553,3.4834,3.3183,3.3147,3.3073,3.293,3.2916,3.2916,3.2884,3.2737,3.2639,3.2639,3.2266,3.2144,3.2108,3.1765,3.2053,3.2731,3.2676,3.3066,3.3779,3.447,3.4805,3.4951,3.5608,3.5916,3.6079,3.6419,0.0,0.0,0.0,0.0,3.7297,3.7372,3.754,3.7703,3.7721,3.7828,3.7934,3.8002,3.8036,3.807,3.8174,3.8192,3.8174,3.8036,3.7845,3.7721,3.7703,3.7649,3.7594,3.754,3.741,3.722,3.6987,3.6667,3.636,3.6019,3.5861,3.5728,3.5622,3.5412,3.5291,3.5291,3.4804,3.4497,3.4497,3.425,3.3917,3.3355,3.2857,3.2312,3.1807,3.1073,3.0732,3.0658,3.0539,3.0251,2.9822,2.9789,2.954,2.9162,2.9099,2.8908,2.8716,2.8716,2.9008,2.9546,3.0011,3.0118,2.9982,2.9749,2.9214,2.8554,0.0,0.0,0.0,0.0,0.0,0.0,0.0,0.0,0.0,0.0,0.0,0.0,0.0,0.0,0.0,0.0,0.0,0.0,3.5078,0.0,0.0,3.3826,3.4461,3.4395,3.3382,3.3364,3.3274,3.3055,3.3011,3.2948,3.2916,3.2884,3.2852,3.2834,3.2454,3.2283,3.2249,3.1929,3.1852,3.2007,3.2607,3.2896,3.3024,3.3779,3.4384,3.4924,3.5094,3.5582,3.6208,3.6561,3.6643,0.0,0.0,0.0,3.7334,3.7577,3.7667,3.7721,3.7846,3.7951,3.8002,3.814,3.8174,3.8174,3.8192,3.8192,3.8174,3.8036,3.7933,3.7846,3.7703,3.7649,3.754,3.7372,3.7297,3.7143,3.6806,3.6485,3.6276,3.6019,3.58,3.5622,3.5622,3.5412,3.5291,3.5291,3.4804,3.4497,3.4497,3.4349,3.4201,3.3984,3.3527,3.3182,3.2971,3.1905,3.1652,3.2104,3.1407,3.0718,3.005,3.0341,3.0158,2.954,2.9226,2.9099,2.9035,2.9135,2.9608,3.0208,3.0674,3.0847,3.0739,3.0021,2.9411,2.8813,0.0,0.0,0.0,0.0,0.0,0.0,0.0,0.0,0.0,0.0,0.0,0.0,0.0,0.0,0.0,3.5499,3.6314,3.6655,3.6318,3.623,3.5622,3.4335,3.4539,3.4298,3.347,3.3364,3.3322,3.3214,3.3104,3.3024,3.2993,3.2993,3.2961,3.2884,3.2606,3.2386,3.2283,3.2073,3.1893,3.1834,3.2145,3.2262,3.2311,3.3051,3.3493,3.3905,3.4788,3.5322,3.5725,3.6464,3.6766,3.6926,3.722,0.0,0.0,0.0,3.7774,3.7898,3.8038,3.8106,3.814,3.8192,3.8192,3.8192,3.8192,3.8192,3.8174,3.8036,3.7951,3.7864,3.7703,3.7649,3.754,3.7334,3.7297,3.7143,3.6742,3.6461,3.6216,3.6019,3.5756,3.5577,3.5566,3.5383,3.5245,3.5198,3.4851,3.4594,3.4594,3.4497,3.4349,3.4201,3.3681,3.3339,3.3182,3.2407,3.1992,3.1879,3.1537,3.1087,3.0476,3.0341,3.005,2.9602,3.0007,3.0007,2.9837,3.0115,3.0584,3.1087,3.0832,3.0648,3.0449,2.9622,2.8955,2.8414,0.0,0.0,0.0,0.0,0.0,0.0,0.0,0.0,0.0,0.0,0.0,0.0,0.0,0.0,0.0,0.0,3.6353,3.6971,3.6999,3.6701,3.5973,3.4789,3.4556,3.4167,3.3567,3.3452,3.3382,3.331,3.3214,3.3147,3.3086,3.316,3.3147,3.3011,3.277,3.2555,3.2386,3.2232,3.2001,3.18,3.1873,3.1837,3.1852,3.2403,3.2748,3.3059,3.4197,3.4869,3.5324,3.618,3.6711,3.7066,3.7297,3.7503,0.0,0.0,0.0,3.807,3.8174,3.8192,3.8192,3.8192,3.8192,3.8192,3.8192,3.8192,3.8174,3.8036,3.7951,3.7864,3.7703,3.7649,3.754,3.7334,3.7259,3.7105,3.6742,3.6419,3.6174,3.6019,3.5756,3.5594,3.552,3.5383,3.5245,3.5152,3.4899,3.4691,3.4691,3.4546,3.4448,3.43,3.3834,3.3563,3.3423,3.3018,3.2437,3.1709,3.1864,3.1637,3.1131,3.0911,3.0539,3.0068,3.0613,3.0673,3.0493,3.097,3.1379,3.1664,3.0985,3.0555,3.0164,2.9352,2.8632,2.8118,0.0,0.0,0.0,0.0,0.0,0.0,0.0,0.0,0.0,0.0,0.0,0.0,0.0,3.2572,3.2783,3.3222,3.475,3.5736,3.5866,3.4931,3.4321,3.4247,3.3994,0.0,3.3698,3.3671,3.3549,3.331,3.3352,3.3304,3.3117,3.3361,3.3437,3.3364,3.2912,3.2702,3.2669,3.242,3.2091,3.1837,3.2001,3.1965,3.18,3.1834,3.2283,3.2921,3.299,3.3955,3.5278,3.5714,3.6338,3.7066,3.7466,3.7577,3.7649,0.0,0.0,0.0,3.8192,3.8192,3.8192,3.8192,3.8192,3.8192,3.8192,3.8192,3.8174,3.8036,3.7951,3.7864,3.7703,3.7649,3.754,3.7334,3.7143,3.6948,3.6742,3.6293,3.6019,3.6019,3.5756,3.5622,3.5577,3.5412,3.5291,3.5291,3.4947,3.4691,3.4691,3.4546,3.4448,3.43,3.425,3.4184,3.405,3.405,3.3455,3.2342,3.2879,3.2741,3.2043,3.2446,3.217,3.1261,3.0598,3.0553,3.1029,3.1495,3.1682,3.1664,3.1427,3.0944,3.0283,2.949,2.8832,2.8348,0.0,0.0,0.0,0.0,0.0,0.0,0.0,0.0,0.0,0.0,0.0,0.0,0.0,3.2269,3.2604,3.3354,3.4941,3.5716,3.5185,3.5227,3.5045,3.4491,3.4173,3.3998,3.4023,3.3807,3.3643,3.3549,3.3491,3.3422,3.3304,3.3569,3.3734,3.378,3.3332,3.3063,3.2862,3.2621,3.237,3.2126,3.2108,3.2054,3.1965,3.1873,3.1955,3.2265,3.2731,3.3248,3.3908,3.5192,3.5892,3.638,3.7175,3.754,3.7703,3.7898,3.8072,3.8192,3.8192,3.8192,3.8192,3.8192,3.8322,3.8465,3.8465,3.8523,3.8504,3.8231,3.8083,3.7967,3.7685,3.7613,3.7466,3.7182,3.7066,3.6851,3.6485,3.6191,3.6019,3.6019,3.5756,3.5532,3.5412,3.5337,3.5245,3.5058,3.4899,3.4851,3.4851,3.4804,3.4659,3.4448,3.4448,3.43,3.4101,3.4101,3.3713,3.2895,3.3093,3.2971,3.2555,3.2431,3.2446,3.2602,3.1792,3.1465,3.1495,3.1951,3.2176,3.2069,3.1144,3.0628,3.0237,2.9116,2.8563,2.8411,0.0,0.0,0.0,0.0,0.0,0.0,0.0,0.0,0.0,0.0,0.0,0.0,0.0,0.0,2.7272,2.8242,3.1042,3.2612,3.2336,3.4419,3.54,3.4788,3.4476,3.4274,3.4245,3.3739,3.3558,3.3726,3.3387,3.3332,3.3643,3.385,3.4005,3.4074,3.3787,3.3496,3.3184,3.288,3.2639,3.2386,3.242,3.2386,3.2318,3.2091,3.2073,3.2214,3.2446,3.2792,3.3303,3.4683,3.5392,3.5896,3.6973,3.7466,3.7739,3.7845,3.7967,3.8106,3.8106,3.8106,3.8106,3.814,3.8368,3.8554,3.8541,3.8688,3.8711,3.8455,3.8249,3.8034,3.781,3.7613,3.7392,3.7126,3.7066,3.6869,3.6485,3.6191,3.6019,3.6019,3.5756,3.5549,3.5383,3.5354,3.5198,3.4994,3.4947,3.4899,3.4899,3.4851,3.4707,3.4448,3.4399,3.43,3.4101,3.4101,3.3882,3.3527,3.3527,3.3423,3.323,3.2933,3.3002,3.3398,3.2873,3.2492,3.2247,3.2342,3.2314,3.206,3.0859,3.0289,2.995,2.8827,2.8411,2.8411,0.0,0.0,0.0,0.0,0.0,0.0,0.0,0.0,0.0,0.0,0.0,0.0,0.0,0.0,0.0,1.7809,2.2802,2.6253,2.7097,3.2061,3.495,3.487,3.4774,3.4591,3.4316,3.3483,3.3297,3.3815,0.0,0.0,0.0,3.4237,3.426,3.4221,3.4213,3.3981,3.3607,3.3262,3.293,3.2654,3.2988,3.3001,3.2795,3.2519,3.2648,3.2885,3.2073,3.2508,3.3547,3.4149,3.484,3.5667,3.6844,3.7449,3.7703,3.7703,3.781,3.7899,0.0,0.0,0.0,3.8002,3.8234,3.851,3.8415,3.8628,3.8789,3.8628,3.8364,3.8101,3.8101,3.7667,3.7314,3.7314,3.7105,3.6908,3.6742,3.6293,3.6019,3.6019,3.5756,3.5594,3.5492,3.54,3.5245,3.5088,3.4994,3.4899,3.4899,3.4756,3.4546,3.43,3.4151,3.4101,3.4101,3.4101,3.4101,3.4101,3.4101,3.4101,3.4101,3.4101,3.3949,3.3694,3.371,3.3555,3.3256,3.2672,3.216,3.1706,3.0778,3.0012,2.9335,2.8658,2.8411,2.8411,0.0,0.0,0.0,0.0,0.0,0.0,0.0,0.0,0.0,0.0,0.0,0.0,0.0,1.8386,1.7781,1.811,1.9937,2.1175,2.1317,2.6631,2.9715,2.961,3.3109,3.4981,3.4809,3.4423,3.417,3.4099,0.0,0.0,0.0,0.0,0.0,3.442,3.442,3.4357,3.42,3.3688,3.3372,3.3255,3.3273,3.3255,3.3148,3.2384,3.2248,3.2351,3.1821,3.1849,3.2273,3.3219,3.3656,3.4094,3.5726,3.6801,3.7485,3.7485,3.7685,3.7899,3.7899,0.0,0.0,0.0,0.0,0.0,3.8741,3.8961,3.9146,3.9036,3.8796,3.8446,3.7897,3.7703,3.7429,3.6965,3.6806,3.6684,3.6444,3.6191,3.6019,3.6019,3.5756,3.5549,3.5383,3.5337,3.5198,3.4994,3.4899,3.4899,3.4899,3.4691,3.4497,3.4448,3.4201,3.4101,3.4101,3.4101,3.4101,3.4101,3.4101,3.4101,3.4101,3.4101,3.405,3.3949,3.3607,3.3503,3.3555,3.2973,3.2353,3.1706,3.0778,3.0012,2.9335,2.8658,2.8411,2.8411,0.0,0.0,0.0,0.0,0.0,0.0,0.0,0.0,0.0,0.0,0.0,0.0,0.0,0.0,1.4885,1.2809,1.5053,1.6621,1.6634,2.1843,2.4905,2.4776,2.7435,2.9855,3.1832,3.1302,3.2102,3.4367,0.0,0.0,0.0,0.0,0.0,0.0,3.4572,3.4508,3.4379,3.4204,3.4037,3.3854,3.375,3.3723,3.3634,3.2885,3.2616,3.2634,3.2003,3.1804,3.1998,3.2758,3.3318,3.3885,3.4888,3.5922,3.6728,3.6728,3.718,3.7649,3.7649,3.7703,3.7775,3.781,0.0,0.0,3.873,3.9017,3.9272,3.9192,3.8913,3.8572,3.8168,3.7897,3.7541,3.7009,3.6851,3.665,3.6318,3.6105,3.5975,3.5932,3.5711,3.5532,3.5337,3.5291,3.5198,3.4899,3.4899,3.4899,3.4899,3.4643,3.4546,3.4594,3.425,3.4151,3.4201,3.4151,3.4101,3.4101,3.4101,3.4101,3.4101,3.4101,3.4101,3.4101,3.3745,3.3694,3.3832,3.3081,3.2233,3.127,3.0361,2.9581,2.895,2.855,2.8411,2.8411,0.0,0.0,0.0,0.0,0.0,0.0,0.0,0.0,0.0,0.0,0.0,0.0,0.0,0.0,0.0,0.0,0.9501,1.24,1.2593,1.7515,0.0,2.0217,2.0399,2.2527,2.6853,2.6421,2.8705,3.39,0.0,0.0,0.0,0.0,0.0,0.0,0.0,3.4593,3.436,3.4775,3.4756,3.4489,3.4379,3.4284,3.4179,3.3588,3.3372,3.3237,3.2316,3.2109,3.2302,3.2576,3.3356,3.4227,3.4227,3.4885,3.5653,3.5653,3.6347,3.7117,3.7117,3.7339,3.754,3.7649,3.8099,0.0,3.8491,3.8894,3.9219,3.9129,3.8855,3.8615,3.8585,3.8183,3.7703,3.7301,3.7055,3.6759,3.6251,3.6062,3.5932,3.5817,3.5667,3.5532,3.5337,3.5291,3.5198,3.4899,3.4899,3.4899,3.4899,3.4643,3.4594,3.4707,3.4349,3.4201,3.43,3.4201,3.4101,3.4101,3.4101,3.4101,3.4101,3.4101,3.4101,3.4101,3.405,3.405,3.3986,3.2896,3.1845,3.0779,2.9825,2.9046,2.8444,2.8411,2.8411,2.8411,0.0,0.0,0.0,0.0,0.0,0.0,0.0,0.0,0.0,0.0,0.0,0.0,0.0,0.0,0.0,0.0,0.7569,0.8173,0.8382,1.3137,0.0,1.6049,2.0107,2.2748,2.3623,2.6759,2.8763,2.9532,0.0,0.0,0.0,0.0,0.0,0.0,0.0,3.4997,3.51,3.5133,3.5133,3.5083,3.4636,3.4464,3.4353,3.3468,3.3172,3.3063,3.2214,3.1949,3.1948,3.1823,3.2351,3.3124,3.3124,3.3835,3.4673,3.4673,3.5349,3.6081,3.6081,3.6594,3.7182,3.7334,3.7703,0.0,3.8428,3.8755,3.9007,3.9073,3.896,3.8725,3.836,3.818,3.798,3.7505,3.7358,3.7034,3.6293,3.6062,3.5932,3.5817,3.5667,3.5532,3.5337,3.5291,3.5198,3.4899,3.4899,3.4899,3.4899,3.4756,3.4691,3.4691,3.4497,3.4448,3.4448,3.4349,3.425,3.425,3.4151,3.4101,3.4101,3.4101,3.4101,3.4101,3.3848,3.3797,3.3649,3.2119,3.1466,3.1324,3.0172,2.9275,2.8605,2.8444,2.8411,2.8411,0.0,0.0,0.0,0.0,0.0,0.0,0.0,0.0,0.0,0.0,0.0,0.7717,0.7707,0.7652,0.7531,0.7466,0.0,0.0,0.0,1.0159,1.1627,1.1796,1.4186,1.6713,1.9286,2.1067,2.3157,2.5668,0.0,0.0,0.0,0.0,0.0,0.0,0.0,3.5117,3.5203,3.5331,3.5424,3.5402,3.4961,3.4694,3.4416,3.3787,3.3332,3.2921,3.2231,3.1768,3.1428,3.1385,3.1662,3.2047,3.2047,3.2771,3.3585,3.3585,3.4431,3.5433,3.5821,3.645,3.7059,3.756,3.7948,0.0,0.0,3.8713,3.8921,3.8979,3.8766,3.8473,3.8245,3.7962,3.7596,3.7173,3.7228,3.7055,3.6367,3.6241,3.6156,3.6062,3.5783,3.5532,3.5337,3.5291,3.5198,3.4899,3.4899,3.4899,3.4899,3.4787,3.4739,3.4804,3.4594,3.4546,3.4594,3.4399,3.43,3.43,3.4151,3.3922,3.3599,3.3939,3.3922,3.3615,3.3804,3.3899,3.3818,3.2624,3.2031,3.1646,3.0069,2.9155,2.8685,2.8763,2.8589,2.8396,1.6368,0.0,0.0,0.0,0.0,0.0,0.0,0.0,0.0,0.9734,0.9157,0.8765,0.8619,0.8306,0.8117,0.7927,0.7962,0.0,0.8614,0.8674,0.8804,0.912,0.8827,1.0665,1.4979,1.5241,1.7513,2.1964,0.0,0.0,0.0,0.0,0.0,0.0,3.5136,3.52,3.5232,3.5495,3.5593,3.5547,3.5251,3.4907,3.4567,3.416,3.3607,3.296,3.2366,3.1733,3.1196,3.1329,3.1295,3.1278,3.1432,3.1953,3.2544,3.2714,3.3646,3.4783,3.542,3.6131,3.687,3.7569,3.8092,3.8415,0.0,0.0,0.0,3.8803,3.8442,3.8114,3.8114,3.7667,3.7155,3.6865,3.6981,3.702,3.658,3.6498,3.6474,3.6409,3.6088,3.5739,3.5577,3.5458,3.5228,3.4947,3.4899,3.4899,3.4899,3.4804,3.4804,3.4899,3.4691,3.4643,3.4739,3.4366,3.4137,3.4137,3.386,3.3453,3.2902,3.3599,3.3599,3.3129,3.3809,3.4101,3.4052,3.3372,3.274,3.2045,3.0258,2.9391,2.9108,2.9328,2.9201,2.8863,1.5931,1.5001,0.0,0.0,0.0,0.0,0.0,0.0,0.0,0.9402,0.9022,0.8835,0.8952,0.8829,0.8705,0.8705,0.9025,0.9265,0.9346,0.9773,1.0154,1.0571,1.0507,1.0828,1.1668,1.515,1.7396,1.8121,0.0,0.0,0.0,0.0,0.0,3.543,3.5452,3.5532,3.5639,3.5618,3.5519,3.5405,3.5249,3.5127,3.4959,3.4319,3.3843,3.3414,3.2583,3.2127,3.1896,3.1896,3.1548,3.1244,3.1967,3.1858,3.1596,3.2319,3.309,3.3776,3.3864,3.4923,3.6093,3.6506,3.7324,3.8086,3.8135,0.0,3.8541,3.8478,0.0,3.7861,3.7861,0.0,0.0,3.7135,3.7058,3.6981,3.6943,3.6882,3.6821,3.6821,3.6719,3.6615,3.6457,3.5924,3.5362,3.4947,3.4899,3.4899,3.4899,3.4899,3.4899,3.4899,3.4899,3.4851,3.4899,3.4096,3.3625,3.3466,3.2767,3.2301,3.2158,3.287,3.3161,3.3129,3.3809,3.4101,3.4052,3.3372,3.3032,3.2886,3.1759,3.0943,3.0386,3.0537,3.0557,3.0429,1.5059,1.4419,0.0,0.0,0.0,0.0,0.0,0.0,0.0,0.9478,0.9215,0.9151,0.9285,0.9087,0.8958,0.9087,0.9389,0.9649,0.984,1.0367,1.084,1.1099,1.126,1.1409,1.1632,1.3127,0.0,0.0,1.7984,0.0,0.0,0.0,0.0,3.2185,3.443,3.5475,3.5531,3.5668,3.5659,3.5554,3.5438,3.5259,3.5018,3.4319,3.3543,3.2769,3.2127,3.1711,3.1432,3.1432,3.124,3.1123,3.1582,3.1657,3.1657,3.1894,3.2459,3.3122,3.3598,3.4355,3.5198,3.5867,3.6754,3.7482,3.7515,3.7976,3.8368,3.8382,0.0,0.0,0.0,0.0,0.0,0.0,3.6661,3.6661,3.6921,3.6939,3.69,3.69,3.6878,3.6799,3.662,3.619,3.5864,3.5688,3.5644,3.5644,3.5644,3.5436,3.5132,3.4667,3.4392,3.4054,3.3624,3.3156,3.2915,3.2853,3.2406,3.1925,3.1489,3.2172,3.2465,3.2498,3.321,3.3744,3.4084,3.3793,3.3437,3.3097,3.308,3.2191,3.0974,3.1211,3.0707,2.9933,1.435,1.3881,1.3285,0.0,0.0,0.0,0.0,0.0,0.9862,0.9612,0.9408,0.9344,0.9484,0.928,0.9145,0.9274,0.9586,0.9852,1.0043,1.0651,1.1124,1.1471,1.1706,1.1929,1.2157,1.1781,1.1855,1.2305,1.4763,0.0,0.0,0.0,0.0,0.0,3.2156,3.3884,3.382,3.5191,3.5732,3.563,3.55,3.5139,3.4623,3.3981,3.3189,3.2351,3.1821,3.1504,3.1257,3.1235,3.1117,3.0965,3.1355,3.1524,3.1562,3.1748,3.2179,3.2712,3.3278,3.388,3.4506,3.5169,3.6023,3.6717,3.6667,3.7283,3.7896,3.7944,3.7803,0.0,0.0,0.0,3.6516,3.6516,0.0,3.6308,3.6563,3.662,3.6764,3.717,3.7132,3.7017,3.6701,3.6522,3.6357,3.6215,3.6,3.588,3.588,3.5326,3.4726,3.4184,3.3746,3.3226,3.2696,3.2392,3.2248,3.222,3.1814,3.1365,3.0831,3.1426,3.172,3.1769,3.2692,3.3372,3.3841,3.402,3.3809,3.3388,3.3712,3.2898,3.1591,3.1755,3.0982,2.9859,1.407,1.3407,1.2744,1.2544,1.174,1.0933,1.0371,0.9989,0.9804,0.9804,0.9472,0.9344,0.9484,0.9344,0.9274,0.9274,0.9652,0.9988,1.0113,1.0651,1.1203,1.1694,1.1855,1.215,1.2599,1.2157,1.2378,1.3193,1.2338,1.4239,0.0,0.0,0.0,0.0,2.8352,3.0051,2.9765,3.3942,3.5636,3.5485,3.5368,3.4642,3.3595,3.3179,3.2911,3.2603,3.202,3.1858,3.1967,3.1877,3.1359,3.0841,3.1716,3.1493,3.1094,3.2003,3.242,3.2606,3.2558,3.3375,3.4193,3.4163,3.4954,3.5692,3.5591,3.6219,3.6829,3.6764,3.7113,3.7413,3.7413,3.7073,3.6776,3.6776,3.6308,0.0,0.0,3.5933,3.6422,3.7792,3.781,3.7468,3.6939,3.69,3.6684,3.6215,3.5535,3.5156,3.5156,3.4023,3.3347,3.333,3.2977,3.2713,3.268,3.2,3.1583,3.1539,3.0685,3.0168,3.0038,3.068,3.0914,3.104,3.2465,3.3097,3.3178,3.3825,3.4084,3.4003,3.3372,3.2868,3.2556,3.2336,3.1792,3.0998,1.3752,1.3094,1.2552,1.2428,1.1677,1.0933,1.0364,1.0117,0.9926,0.9804,0.9606,0.9478,0.9484,0.9478,0.9414,0.9414,0.9849,1.0184,1.0453,1.1076,1.1565,1.1916,1.2077,1.2298,1.2599,1.2452,1.2673,1.32,1.2599,1.3279,0.0,0.0,0.0,0.0,2.4572,2.7653,2.989,3.1012,3.3102,3.5654,3.5012,3.4486,3.3951,3.2985,3.2366,3.2003,3.16,3.1411,3.1334,3.1295,3.11,3.0902,3.1218,3.1334,3.1355,3.1582,3.1877,3.2144,3.2126,3.2563,3.3046,3.2928,3.3715,3.4418,3.4041,3.4659,3.5207,3.5062,3.5199,3.5449,3.5723,3.543,3.5395,3.6207,3.5893,3.5867,0.0,3.696,3.717,3.7394,3.7577,3.7631,3.7468,3.6932,3.6502,3.6335,3.5592,3.5151,3.5151,3.4533,3.3921,3.3457,3.298,3.2542,3.2026,3.1771,3.1534,3.123,3.0898,3.0593,3.0248,3.0277,3.0563,3.105,3.1445,3.1931,3.2384,3.2627,3.2708,3.2692,3.2465,3.2013,3.15,3.1757,3.1275,3.0337,1.37,1.3033,1.2428,1.2182,1.1498,1.087,1.0498,1.0174,0.9989,0.9862,0.967,0.9484,0.9484,0.9484,0.9548,0.9612,0.9894,1.0219,1.0648,1.1191,1.1676,1.2063,1.2305,1.2526,1.2826,1.2746,1.29,1.3346,1.3112,1.3185,0.0,0.0,0.0,0.0,2.1061,2.482,2.8328,2.9188,3.1977,3.5688,3.4846,3.428,3.3815,3.2588,3.2004,3.177,3.1145,3.0942,3.0935,3.0716,3.0733,3.0831,3.0814,3.0998,3.1196,3.1235,3.1504,3.1765,3.1765,3.2073,3.2353,3.2179,3.279,3.3332,3.2967,3.3599,3.4215,3.4088,3.4335,3.4674,3.503,3.4764,3.4795,3.5705,3.5317,3.5166,0.0,3.6374,3.6503,3.6242,3.7074,3.756,3.7292,3.6755,3.6309,3.6006,3.5291,3.4845,3.4811,3.4147,3.3546,3.309,3.2624,3.2159,3.1677,3.1677,3.149,3.1123,3.1044,3.0797,3.0417,3.0103,3.0277,3.0733,3.0859,3.1186,3.1639,3.1898,3.2012,3.1979,3.172,3.1348,3.0946,3.1181,3.0593,2.9659,1.401,1.3155,1.2359,1.1864,1.124,1.0807,1.0618,1.0308,1.0047,0.9983,0.9734,0.9548,0.9548,0.9548,0.9612,0.9868,0.9862,1.0164,1.091,1.1155,1.1556,1.2278,1.2526,1.2826,1.3193,1.3046,1.3119,1.3564,1.3695,1.3688,1.3411,0.0,0.0,0.0,1.7933,2.1732,2.5171,2.8491,3.2127,3.5586,3.4775,3.3995,3.3177,3.2037,3.1773,3.1915,3.0714,3.0535,3.079,3.0199,3.0284,3.0651,3.0526,3.0568,3.0733,3.1072,3.1329,3.1483,3.1462,3.1837,3.2144,3.193,3.2214,3.2539,3.2283,3.3002,3.3687,3.3687,3.4375,3.4993,3.52,3.4924,3.4783,3.522,3.4563,3.399,3.3894,3.4279,3.4579,3.4616,3.6289,3.7166,3.6417,3.6362,3.6057,3.5204,3.4521,3.4092,3.4044,3.2945,3.2318,3.2318,3.1949,3.175,3.175,3.175,3.1565,3.1162,3.1083,3.0821,3.0417,3.0146,3.0017,3.0049,3.0616,3.0862,3.0881,3.1623,3.1898,3.1834,3.1137,3.0833,3.0833,3.0619,2.9956,2.9075,1.37,1.285,1.2058,1.149,1.131,1.1052,1.0807,1.0561,1.0371,1.0047,0.9919,0.9862,0.974,0.9798,1.0104,1.0654,1.0358,1.0672,1.1798,1.1703,1.183,1.2498,1.2973,1.3273,1.32,1.3404,1.3768,1.4057,1.4057,1.4537,1.55,0.0,0.0,0.0,1.7484,2.0974,2.6101,2.6574,3.0004,3.5095,3.4093,3.3568,3.3239,3.1934,3.1493,3.1456,3.0608,3.041,3.0485,3.0359,3.0316,3.0316,3.0274,3.0401,3.0609,3.0773,3.0975,3.1134,3.123,3.1576,3.1856,3.1728,3.1948,3.2091,3.1674,3.194,3.2243,3.1987,3.2291,3.2631,3.2862,3.2596,3.2661,3.3616,3.3935,3.4086,3.4029,3.4164,3.4335,3.4653,3.5115,3.5456,3.549,3.5025,3.4597,3.4401,3.3684,3.3219,3.3205,3.2927,3.2737,3.2737,3.2672,3.2588,3.2588,3.2588,3.2369,3.1985,3.1677,3.13,3.0902,3.0468,3.0231,3.0162,3.0228,3.0222,3.015,3.0344,3.0425,3.0437,3.0214,3.015,3.015,3.0105,2.9797,2.935,1.3761,1.2911,1.212,1.1747,1.156,1.131,1.087,1.0688,1.0498,1.0174,1.0047,0.9983,0.9926,1.0231,1.0598,1.1094,1.1163,1.1503,1.2137,1.2169,1.2401,1.2892,1.3339,1.384,1.4186,1.4402,1.4681,1.4903,1.5321,1.579,1.6332,0.0,0.0,0.0,1.7794,2.0887,2.6162,2.7955,3.1046,3.4699,3.3776,3.3284,0.0,3.1704,3.1244,3.1123,3.0477,3.03,3.0359,3.0017,3.006,3.0189,3.0044,3.0215,3.0485,3.0651,3.0773,3.0895,3.1072,3.1329,3.1538,3.1559,3.1783,3.1912,3.1579,3.1765,3.1984,3.1785,3.1913,3.2144,3.2369,3.188,3.1688,3.2283,3.2807,3.3214,3.3436,3.3328,3.3401,3.3846,3.3916,3.4002,3.4204,3.4166,3.3987,3.363,3.3248,3.2961,3.2948,3.2948,3.2916,3.2916,3.2916,3.2916,3.2916,3.2916,3.2705,3.2283,3.2056,3.175,3.1338,3.1027,3.0828,3.073,3.0393,3.0241,3.0172,2.9973,2.9918,2.9918,2.9918,2.9918,2.9918,2.9918,2.9814,2.9621,1.4001,1.3216,1.2482,1.2182,1.1879,1.1498,1.0926,1.0807,1.0681,1.0428,1.0358,1.0295,1.0295,1.0843,1.1274,1.1545,1.1965,1.2235,1.2322,1.2528,1.2862,1.3414,1.3803,1.4537,1.5666,1.5666,1.5737,1.6018,1.7051,1.7248,0.0,0.0,0.0,1.9159,1.9017,2.1562,2.6233,3.0687,3.3237,3.4308,3.3533,3.3003,3.2563,3.1448,3.101,3.0935,3.0443,3.0316,3.0274,2.9665,2.9754,3.006,2.9897,3.0044,3.0359,3.0609,3.0651,3.0733,3.0895,3.1055,3.123,3.1385,3.1671,3.1839,3.18,3.202,3.2249,3.2283,3.242,3.2606,3.2787,3.2092,3.1493,3.1334,3.16,3.2002,3.242,3.2196,3.2231,3.277,3.2802,0.0,3.2884,3.3591,3.3731,3.3033,3.3042,3.3073,3.2979,3.2997,3.2979,3.2916,3.2916,3.2916,3.2916,3.2916,3.2737,3.2386,3.2318,3.2127,3.175,3.1605,3.1514,3.1459,3.0954,3.069,3.0625,3.0172,2.9946,2.9918,2.9918,2.9918,2.9918,2.9918,2.9918,2.9858,1.3571,1.3268,1.2964,1.2243,1.2058,1.1809,1.1303,1.1553,1.1615,1.1178,1.1655,1.202,1.1896,1.2074,1.2451,1.3078,1.222,1.2054,1.2949,1.2785,1.3051,1.3931,1.4576,1.5455,1.6531,1.6489,1.6835,1.7794,1.793,1.866,0.0,0.0,0.0,2.1588,2.1779,2.4284,2.8515,3.0771,3.246,3.3587,3.2577,3.2127,3.1968,3.1393,3.1055,3.0912,3.0708,3.0526,3.0359,3.0103,2.9886,2.9649,2.987,2.9957,2.9984,3.0359,3.0485,3.0568,3.0733,3.0895,3.1055,3.123,3.1423,3.1576,3.1634,3.1802,3.2002,3.2108,3.2266,3.2318,3.2232,3.1948,3.1654,3.1334,3.1432,3.1565,3.1823,3.166,3.1733,3.2335,3.2386,3.2539,3.2884,3.3041,3.3059,3.2934,3.2979,3.2979,3.2916,3.2979,3.2979,3.2916,3.2916,3.2916,3.2979,3.2916,3.2884,3.2884,3.2488,3.2249,3.2162,3.1823,3.1605,3.1497,3.1384,3.1227,3.0988,3.0642,3.0241,2.9918,2.9918,2.9918,2.9918,2.9918,2.9918,2.9858,1.3992,1.3571,1.3208,1.2903,1.2544,1.2174,1.174,1.2112,1.2236,1.1615,1.2097,1.2512,1.2389,1.2818,1.3252,1.3571,1.3442,1.3449,1.3873,1.3794,1.4219,1.5178,1.5716,1.6624,1.8045,1.8065,1.8277,1.8911,1.9354,1.9944,0.0,2.1187,2.1889,2.2689,2.3974,2.6023,2.8624,3.0325,3.1881,3.31,3.2231,3.1966,3.2002,3.16,3.1274,3.1072,3.1061,3.0821,3.0485,3.013,2.987,2.9798,2.987,2.9957,3.0087,3.0342,3.0485,3.0526,3.0651,3.0814,3.0992,3.1151,3.1308,3.1406,3.1521,3.1728,3.193,3.1984,3.2161,3.2214,3.1894,3.1912,3.1819,3.1372,3.1317,3.149,3.1949,3.1804,3.1913,3.2521,3.2606,3.2672,3.2884,3.2916,3.2916,3.2948,3.3011,3.3042,3.3011,3.3091,3.3122,3.3011,3.2993,3.3042,3.3042,3.2979,3.2979,3.2997,3.2737,3.2606,3.2588,3.242,3.2283,3.2231,3.1915,3.1735,3.1568,3.105,3.0683,3.0342,3.0172,3.013,3.0087,2.9946,2.9918,2.9858,1.4529,1.3992,1.3571,1.3511,1.3086,1.2605,1.229,1.2605,1.2728,1.2104,1.2528,1.2879,1.3,1.3623,1.3992,1.3992,1.4478,1.4715,1.4579,1.4775,1.5371,1.6307,1.6667,1.769,1.9468,1.9479,1.9597,2.0064,2.0839,2.1135,2.1112,2.2075,2.2967,2.3794,2.556,2.7156,2.8656,2.9929,3.1316,3.2639,3.2038,3.1912,3.2002,3.1748,3.1466,3.123,3.1278,3.1044,3.0609,3.0113,2.9957,2.993,2.9913,3.0,3.0172,3.0401,3.0485,3.0526,3.0609,3.079,3.0952,3.1112,3.1213,3.1312,3.1423,3.1617,3.1785,3.1802,3.2002,3.2038,3.1657,3.1858,3.1948,3.1524,3.1449,3.1674,3.2214,3.2073,3.2144,3.277,3.2852,3.2834,3.2884,3.2916,3.2916,3.2979,3.3055,3.3086,3.3086,3.3214,3.3262,3.3117,3.3086,3.3117,3.3135,3.3073,3.3011,3.3011,3.2948,3.2916,3.2916,3.2916,3.2916,3.2884,3.2453,3.2213,3.2057,3.1435,3.1067,3.0828,3.0518,3.0418,3.0377,3.0087,2.9989,2.9989,1.4588,1.441,1.4231,1.3631,1.345,1.326,1.2948,1.3199,1.3321,1.2956,1.345,1.4061,1.4725,1.4843,1.4852,1.4852,1.441,1.4323,1.4855,1.4939,1.5529,1.6757,1.7022,1.8114,2.0273,1.9941,2.0415,2.1675,2.1937,2.2297,2.2714,2.2919,2.4013,2.5859,2.6256,2.7819,3.0079,3.0009,3.0761,3.1966,3.1651,3.1538,3.1538,3.1538,3.1402,3.119,3.1095,3.0895,3.0692,3.0468,3.0103,2.977,3.006,3.0,2.9897,3.0316,3.0443,3.0526,3.0526,3.0692,3.0912,3.0912,3.1072,3.123,3.1312,3.1334,3.1389,3.15,3.1596,3.1654,3.1617,3.1875,3.2073,3.2037,3.2037,3.2091,3.2283,3.2161,3.2214,3.2573,3.2639,3.2705,3.2884,3.2916,3.2916,3.2979,3.3055,3.3086,3.3086,3.3214,3.3262,3.3117,3.3086,3.3165,3.3262,3.3135,3.3086,3.3086,3.3011,3.2948,3.2916,3.2916,3.2916,3.2916,3.2834,3.257,3.2057,3.1696,3.1338,3.1044,3.0845,3.0747,3.0707,3.0393,3.0267,3.0225,1.5313,1.502,1.4725,1.4428,1.4121,1.3821,1.3511,1.3511,1.3674,1.4076,1.4282,1.4606,1.5088,1.543,1.5662,1.5662,1.57,1.5796,1.613,1.6178,1.6753,1.7923,1.8071,1.8814,2.031,2.0239,2.0618,2.1411,2.1871,2.2387,2.3032,2.3735,2.5024,2.6784,2.7926,2.9035,3.0161,3.0633,3.1317,3.1984,3.1651,3.1593,3.1688,3.1617,3.1445,3.123,3.1295,3.1117,3.079,3.0651,3.0401,3.0162,3.029,3.0231,3.0215,3.0401,3.0485,3.0526,3.0609,3.0773,3.0912,3.0952,3.1072,3.119,3.1213,3.1274,3.1295,3.1351,3.1504,3.1617,3.1709,3.1819,3.1946,3.1946,3.1946,3.1965,3.2179,3.2144,3.2214,3.2573,3.2606,3.2672,3.2884,3.2916,3.293,3.3073,3.3086,3.3135,3.3214,3.3322,3.3352,3.3286,3.3286,3.3304,3.3352,3.3292,3.3214,3.3214,3.3104,3.3042,3.2948,3.2948,3.2948,3.2916,3.2916,3.2687,3.2385,3.2266,3.1985,3.1674,3.1393,3.1201,3.1044,3.0502,3.0293,3.0267,1.5894,1.543,1.5137,1.5137,1.4784,1.4428,1.43,1.4061,1.4282,1.5206,1.5206,1.5235,1.5614,1.6066,1.6343,1.6332,1.6684,1.6965,1.7234,1.7279,1.7779,1.8723,1.8846,1.9371,2.0447,2.0628,2.1014,2.1529,2.2058,2.2588,2.3241,2.4286,2.5626,2.7246,2.8481,2.9235,2.9683,3.042,3.0925,3.1163,3.0908,3.0982,3.1182,3.1057,3.0911,3.0779,3.0837,3.0611,3.0258,3.0179,3.0019,2.9898,3.0311,3.0417,3.0401,3.0526,3.051,3.0526,3.0692,3.0831,3.0912,3.0975,3.1112,3.119,3.119,3.1252,3.1274,3.1295,3.1428,3.1596,3.1688,3.1763,3.18,3.1746,3.1746,3.1873,3.2001,3.2001,3.2108,3.2404,3.2506,3.2606,3.277,3.2884,3.2948,3.3086,3.3086,3.3165,3.3322,3.3382,3.3393,3.3393,3.3393,3.3393,3.3393,3.3352,3.3322,3.331,3.3214,3.3104,3.3042,3.3011,3.2948,3.2916,3.2916,3.2802,3.2672,3.2621,3.2472,3.2197,3.1894,3.1582,3.1317,3.0666,3.046,3.0377,1.6171,1.57,1.541,1.541,1.5254,1.5205,1.5352,1.5137,1.5313,1.6197,1.6187,1.6255,1.6751,1.6818,1.6864,1.6955,1.7,1.7234,1.7843,1.7995,1.8375,1.8946,1.9263,1.9825,2.0762,2.1144,2.1733,2.2578,2.2764,2.3121,2.3612,2.4566,2.5742,2.7116,2.7336,2.7898,2.8749,2.8935,2.9045,2.9045,2.9191,2.9438,2.9692,2.9489,2.9541,2.9658,2.9262,2.8991,2.8844,2.8807,2.8695,2.8755,3.0063,3.0443,3.0443,3.0651,3.0609,3.0568,3.0831,3.0912,3.0912,3.0975,3.1112,3.119,3.119,3.119,3.123,3.1312,3.1406,3.1517,3.1517,3.1651,3.1763,3.1617,3.1709,3.18,3.18,3.18,3.1873,3.2073,3.2232,3.2386,3.2588,3.277,3.2948,3.3086,3.3086,3.3196,3.3393,3.3393,3.3393,3.3393,3.3393,3.3393,3.3393,3.3393,3.3382,3.331,3.331,3.3214,3.3086,3.3042,3.2948,3.2916,3.2916,3.2916,3.2884,3.2672,3.2606,3.2573,3.2232,3.1912,3.1528,3.0988,3.0788,3.0723,1.6909,1.6673,1.6436,1.6379,1.6046,1.5931,1.6244,1.6083,1.6301,1.7512,1.7622,1.7852,1.8494,1.8116,1.7843,1.7886,1.8255,1.8578,1.875,1.8922,1.9186,1.9643,1.9747,2.0182,2.0908,2.1123,2.1565,2.2311,2.2881,2.3897,2.531,2.5895,2.6726,2.7729,2.8112,2.8498,2.8851,2.9013,2.9157,2.928,2.9193,2.9369,2.9657,2.9489,2.9607,2.9869,2.9557,2.9351,2.9175,2.8941,2.8736,2.8653,2.9082,2.9131,2.9069,2.9232,2.921,2.921,2.9403,2.9479,2.9479,2.961,2.9685,2.9685,2.9685,2.9759,2.978,2.9856,2.9999,3.0052,3.0071,3.0177,3.0195,3.0125,3.016,3.0231,3.0231,3.0231,3.03,3.0506,3.0639,3.0803,3.1013,3.1169,3.1339,3.1446,3.1523,3.2079,3.3339,3.3393,3.3393,3.3393,3.3393,3.3393,3.3393,3.3393,3.3411,3.3382,3.3382,3.3274,3.3086,3.3042,3.2948,3.2916,3.2916,3.2916,3.2884,3.2852,3.2737,3.2606,3.2472,3.2283,3.202,3.1694,3.1545,3.1507,1.7678,1.7335,1.7168,1.7168,1.6832,1.6765,1.7291,1.7169,1.7501,1.8732,1.8891,1.9178,1.985,1.9619,1.9254,1.8951,1.9279,1.9592,1.9798,1.9952,2.0156,2.0434,2.0597,2.0944,2.1431,2.167,2.2049,2.2586,2.3329,2.4372,2.573,2.6099,2.6663,2.7334,2.7657,2.788,2.8078,2.8305,2.8442,2.8493,2.8627,2.8838,2.9043,2.8949,2.9101,2.9373,2.9092,2.8903,2.8774,2.8543,2.8357,2.8202,2.8253,2.8078,2.7961,2.8531,2.8624,2.8586,2.8811,2.8848,2.8811,2.8975,2.9011,2.9011,2.9011,2.9011,2.9102,2.9175,2.9263,2.928,2.9333,2.9403,2.9438,2.9333,2.9438,2.9506,2.9506,2.9506,2.954,2.9676,2.9824,3.0001,3.0176,3.033,3.0499,3.0711,3.0787,3.1286,3.2451,3.2488,3.2488,3.2488,3.2488,3.2488,3.2488,3.2488,3.2488,3.2488,3.2488,3.243,3.2265,3.2194,3.2151,3.2089,3.2023,3.217,3.2438,3.2438,3.2535,3.2705,3.2639,3.2454,3.2179,3.2002,3.1894,3.1858,1.8333,1.7886,1.7545,1.7776,1.7655,1.7797,1.8531,1.8519,1.8761,1.9902,2.0054,2.0268,2.0832,2.114,2.0979,2.0283,2.0144,2.0346,2.0858,2.0993,2.1126,2.1321,2.1684,2.203,2.2324,2.2618,2.3024,2.3436,2.4105,2.4679,2.5185,2.5492,2.5844,2.6239,2.6312,2.6487,2.6774,2.7147,2.7213,2.712,2.7725,2.801,2.8037,2.8102,2.8264,2.8394,2.812,2.7954,2.784,2.7811,2.7707,2.7542,2.7683,2.7348,2.7178,2.833,2.8585,2.8511,2.8786,2.8749,2.8696,2.8822,2.8859,2.8859,2.8859,2.8859,2.8914,2.9022,2.9022,2.8987,2.9057,2.9162,2.9214,2.9092,2.9214,2.9351,2.9351,2.9351,2.9351,2.9351,2.952,2.97,2.9843,3.0017,3.0297,3.0607,3.0635,3.0692,3.0822,3.0822,3.0876,3.0985,3.0985,3.0985,3.0985,3.0985,3.0985,3.0985,3.0985,3.0975,3.091,3.0826,3.0758,3.0689,3.0558,3.0921,3.1617,3.1617,3.2045,3.2706,3.2545,3.2296,3.2057,3.1933,3.1914,3.193,1.8881,1.8721,1.8655,1.8655,1.8886,1.9206,1.9838,2.0117,2.0542,2.1328,2.1424,2.1582,2.1894,2.1988,2.2081,2.2207,2.1718,2.1444,2.1541,2.1813,2.2081,2.2314,2.268,2.3054,2.3421,2.3638,2.4063,2.4679,2.4855,2.5301,2.5934,2.5844,2.6082,2.6572,2.6607,2.6841,2.7241,2.7334,2.7517,2.7754,2.7869,2.811,2.837,2.829,2.8471,2.8749,2.8474,2.8326,2.8237,2.8037,2.7897,2.7794,2.7783,2.7678,2.7569,2.7579,2.7352,2.7093,2.7198,2.7232,2.7198,2.7232,2.7335,2.742,2.7453,2.752,2.7569,2.7602,2.7652,2.7702,2.7602,2.7702,2.7734,2.7635,2.7717,2.7816,2.7816,2.7816,2.7816,2.7816,2.7941,2.808,2.8245,2.8429,2.8632,2.8855,2.8955,2.899,2.9096,2.9148,2.9735,3.0948,3.0985,3.0985,3.0985,3.0985,3.0985,3.0985,3.0985,3.0975,3.091,3.0826,3.0758,3.0689,3.0558,3.0618,3.0779,3.0779,3.0903,3.1064,3.1003,3.1329,3.1781,3.1767,3.2157,3.2606,1.9656,1.95,1.9488,1.985,1.9978,2.0307,2.1148,2.1424,2.1758,2.2452,2.268,2.2815,2.2965,2.3128,2.3304,2.355,2.2905,2.2512,2.2709,2.2965,2.3216,2.3421,2.3694,2.3948,2.4147,2.4461,2.4863,2.5422,2.5476,2.5754,2.6258,2.6222,2.6382,2.6691,2.6742,2.6973,2.7289,2.7444,2.7654,2.7886,2.812,2.8352,2.8569,2.8608,2.8749,2.8929,2.8785,2.8694,2.8608,2.8456,2.8378,2.8299,2.8273,2.8147,2.7992,2.7765,2.7426,2.7117,2.7132,2.7164,2.7132,2.6987,2.6973,2.6959,2.6975,2.704,2.7038,2.7103,2.712,2.7137,2.7103,2.7152,2.7184,2.7103,2.7201,2.7299,2.7299,2.7299,2.7299,2.7299,2.7421,2.7539,2.7701,2.7864,2.8099,2.8327,2.838,2.8432,2.8536,2.8587,2.9011,2.988,2.9898,2.9898,2.9898,2.9898,2.9898,2.9898,2.9898,2.9872,2.9836,2.9782,2.9719,2.9635,2.9543,2.9683,3.0011,3.0011,3.0208,3.0511,3.0511,3.0779,3.1153,3.1153,3.1421,3.1818,2.0472,2.0207,2.0245,2.0979,2.1028,2.1307,2.2346,2.2589,2.286,2.3436,2.3782,2.3952,2.3994,2.4261,2.4451,2.4552,2.396,2.3694,2.3909,2.4147,2.4328,2.4426,2.4639,2.4784,2.4768,2.5176,2.5519,2.5868,2.601,2.6154,2.6365,2.6521,2.6657,2.6758,2.6876,2.7023,2.7213,2.7474,2.7654,2.78,2.8378,2.8619,2.8644,2.8929,2.904,2.904,2.904,2.8975,2.8929,2.8929,2.8881,2.8834,2.881,2.8583,2.8342,2.8316,2.8037,2.773,2.7654,2.7642,2.7535,2.7334,2.7149,2.7007,2.704,2.7057,2.7072,2.712,2.7087,2.7072,2.7103,2.7135,2.7135,2.7135,2.7233,2.7299,2.7299,2.7299,2.7299,2.7299,2.7421,2.7539,2.7701,2.7864,2.8109,2.8398,2.8398,2.8458,2.8587,2.8587,2.8587,2.8587,2.8587,2.8587,2.8587,2.8587,2.8587,2.8587,2.8587,2.8587,2.8587,2.8536,2.8458,2.8398,2.8327,2.8639,2.9226,2.9226,2.9601,3.0154,3.0154,3.0243,3.0332,3.0332,3.0404,3.057,2.0894,2.0845,2.1028,2.1663,2.2165,2.2698,2.3375,2.3906,2.4313,2.4517,2.4614,2.4695,2.4895,2.4934,2.5052,2.5214,2.5291,2.5121,2.4592,2.4799,2.4974,2.5075,2.5384,2.5572,2.5631,2.5941,2.6173,2.6208,2.6364,2.6503,2.6624,2.6674,2.6791,2.7038,2.707,2.7276,2.7612,2.7672,2.7811,2.8075,2.8525,2.8694,2.8718,2.9044,2.9156,2.9156,2.9156,2.913,2.9067,2.9067,2.9021,2.897,2.8905,2.8694,2.8448,2.8396,2.8138,2.7811,2.7517,2.7276,2.712,2.7135,2.7117,2.7103,2.7218,2.725,2.7267,2.725,2.725,2.7267,2.725,2.7282,2.7282,2.7282,2.7282,2.7299,2.7299,2.7299,2.7299,2.7299,2.7421,2.7539,2.7701,2.7864,2.8109,2.8398,2.8398,2.8458,2.8587,2.8587,2.8587,2.8587,2.8587,2.8587,2.8587,2.8587,2.8587,2.8587,2.8587,2.8587,2.8587,2.8536,2.8458,2.8398,2.8327,2.8317,2.8378,2.8378,2.8431,2.8556,2.8556,2.8976,2.9583,2.9583,2.9976,3.0469,2.1636,2.1771,2.2072,2.2696,2.3245,2.3719,2.4251,2.4623,2.4895,2.4997,2.513,2.5285,2.54,2.5513,2.5663,2.5868,2.5957,2.5921,2.5684,2.5701,2.5701,2.5738,2.5921,2.6101,2.6297,2.6453,2.6572,2.6691,2.6742,2.6809,2.6859,2.6908,2.6989,2.7103,2.7184,2.7327,2.7496,2.7569,2.78,2.8183,2.8474,2.8743,2.8998,2.9134,2.92,2.92,2.92,2.9178,2.9134,2.9112,2.9085,2.904,2.8994,2.8881,2.8761,2.8718,2.8326,2.7869,2.7707,2.7491,2.7341,2.7355,2.7279,2.7233,2.7282,2.7299,2.7299,2.7299,2.7299,2.7299,2.7299,2.7299,2.7299,2.7299,2.7299,2.7299,2.7299,2.7299,2.7299,2.7299,2.7465,2.7612,2.7701,2.7968,2.8164,2.8327,2.838,2.8432,2.8536,2.8587,2.8587,2.8587,2.8587,2.8587,2.8587,2.8587,2.8587,2.8587,2.8587,2.8587,2.8587,2.8562,2.851,2.8458,2.838,2.8318,2.8264,2.8209,2.8182,2.8182,2.8182,2.8441,2.8762,2.8762,2.8976,2.9305,2.231,2.262,2.3025,2.3651,2.4101,2.4576,2.5059,2.523,2.5362,2.546,2.5663,2.5828,2.5885,2.6066,2.6225,2.64,2.6435,2.6486,2.6623,2.6452,2.6382,2.6295,2.64,2.6572,2.6775,2.6775,2.6859,2.7007,2.7007,2.7007,2.704,2.707,2.7117,2.7198,2.7296,2.7376,2.739,2.7539,2.7829,2.8174,2.8456,2.8797,2.9115,2.92,2.9262,2.9262,2.9262,2.924,2.9218,2.9175,2.9152,2.9112,2.9044,2.8998,2.8934,2.8934,2.8507,2.7992,2.8075,2.7926,2.776,2.773,2.763,2.7509,2.7496,2.7452,2.7421,2.739,2.7345,2.7299,2.7299,2.7299,2.7299,2.7299,2.7299,2.7299,2.7299,2.7299,2.7299,2.7299,2.7557,2.7701,2.7701,2.7996,2.8237,2.83,2.8353,2.8432,2.851,2.8562,2.8587,2.8587,2.8587,2.8587,2.8587,2.8587,2.8587,2.8587,2.8587,2.8587,2.8587,2.8587,2.8562,2.851,2.8432,2.8353,2.83,2.8237,2.8182,2.8182,2.8182,2.8182,2.8182,2.8182,2.8182,2.8271,2.2844,2.3187,2.3709,2.4225,2.4672,2.516,2.5811,2.5937,2.601,2.6173,2.6279,2.64,2.6537,2.6607,2.6708,2.6842,2.6859,2.6893,2.6959,2.6942,2.6859,2.6657,2.6859,2.6942,2.6975,2.6975,2.6975,2.7007,2.7007,2.7023,2.7103,2.7103,2.723,2.7465,2.7465,2.7539,2.7672,2.7886,2.7982,2.8065,2.8572,2.879,2.8879,2.9243,2.9386,2.9386,2.9386,2.9344,2.9302,2.9302,2.924,2.9178,2.9178,2.8966,2.8724,2.8724,2.8504,2.8324,2.856,2.8453,2.8219,2.8156,2.8183,2.8192,2.8075,2.7915,2.776,2.7672,2.7465,2.7299,2.7299,2.7299,2.7299,2.7299,2.7299,2.7299,2.7299,2.7299,2.7299,2.7299,2.7557,2.7701,2.7701,2.7996,2.8237,2.83,2.8353,2.8432,2.851,2.8562,2.8587,2.8587,2.8587,2.8587,2.8587,2.8587,2.8587,2.8587,2.8587,2.8587,2.8587,2.8587,2.8562,2.851,2.8432,2.8353,2.83,2.8237,2.8182,2.8182,2.8182,2.8182,2.8182,2.8182,2.8182,2.82,2.3651,2.4292,2.4894,2.5051,2.5556,2.5994,2.6154,2.6312,2.6399,2.6503,2.6538,2.664,2.6775,2.6809,2.6876,2.6942,2.6959,2.6975,2.7007,2.7023,2.7023,2.6892,2.6975,2.7007,2.7055,2.7038,2.7152,2.731,2.731,2.7355,2.7461,2.7461,2.7522,2.763,2.776,2.7829,2.7897,2.8183,2.8376,2.8504,2.885,2.9052,2.9181,2.9347,2.9407,2.9407,2.9407,2.9386,2.9365,2.9323,2.9262,2.9262,2.92,2.9115,2.903,2.9052,2.9007,2.8962,2.9097,2.8718,2.8298,2.8272,2.8272,2.8298,2.8246,2.8166,2.8075,2.7915,2.7818,2.7701,2.7569,2.7539,2.7526,2.7452,2.7496,2.7526,2.7452,2.7421,2.7434,2.7539,2.7659,2.776,2.7864,2.8099,2.8209,2.8237,2.8345,2.8406,2.8432,2.8536,2.8587,2.8587,2.8587,2.8587,2.8587,2.8587,2.8587,2.8587,2.8587,2.8587,2.8587,2.8587,2.8587,2.8562,2.845,2.8398,2.8353,2.8237,2.8182,2.8182,2.8182,2.8182,2.8182,2.8182,2.8182,2.8182,2.4471,2.5089,2.5652,2.5652,2.6154,2.6503,2.6486,2.6606,2.6708,2.6708,2.6775,2.6875,2.704,2.7072,2.712,2.7215,2.7215,2.7215,2.7215,2.7244,2.7261,2.7169,2.7184,2.723,2.7276,2.7276,2.7369,2.7569,2.7569,2.76,2.7701,2.7701,2.776,2.7904,2.8027,2.8165,2.8255,2.8547,2.8761,2.892,2.9093,2.9283,2.9407,2.9407,2.9407,2.9407,2.9407,2.9407,2.9386,2.9344,2.9344,2.9323,2.9283,2.9262,2.9283,2.9323,2.9344,2.9323,2.9304,2.8984,2.8646,2.8621,2.8621,2.8621,2.8496,2.8402,2.8316,2.811,2.7971,2.7858,2.773,2.7701,2.7672,2.7569,2.7642,2.7672,2.7569,2.7569,2.76,2.7701,2.776,2.7836,2.7986,2.8126,2.8209,2.8237,2.8345,2.8406,2.8458,2.8536,2.8587,2.8587,2.8587,2.8587,2.8587,2.8587,2.8587,2.8587,2.8587,2.8587,2.8587,2.8587,2.8587,2.8587,2.8458,2.8398,2.8398,2.8264,2.8182,2.8182,2.8182,2.8182,2.8182,2.8182,2.8182,2.8182,2.5221,2.554,2.5852,2.5961,2.633,2.6674,2.6859,2.6893,2.6926,2.6975,2.7055,2.7198,2.7373,2.7465,2.7539,2.7701,2.7701,2.7701,2.7701,2.7701,2.7642,2.7496,2.763,2.7701,2.7701,2.7701,2.7701,2.7701,2.7701,2.7701,2.7683,2.7701,2.7904,2.83,2.83,2.8492,2.8815,2.9021,2.9089,2.9112,2.9304,2.9407,2.9407,2.9407,2.9407,2.9407,2.9407,2.9407,2.9407,2.9407,2.9407,2.9407,2.9407,2.9407,2.9407,2.9407,2.9407,2.9365,2.9152,2.924,2.9386,2.9323,2.9344,2.9304,2.8975,2.8707,2.8446,2.8255,2.7933,2.7701,2.7683,2.7683,2.7683,2.7701,2.7683,2.7683,2.7701,2.7701,2.7701,2.7683,2.7864,2.8014,2.8014,2.8126,2.8237,2.83,2.8353,2.8458,2.8587,2.8587,2.8587,2.8587,2.8587,2.8587,2.8587,2.8587,2.8587,2.8587,2.8587,2.8587,2.8587,2.8587,2.8587,2.8587,2.8458,2.8398,2.8398,2.8264,2.8182,2.8182,2.8182,2.8182,2.8182,2.8182,2.8182,2.8182,2.5835,2.6262,2.664,2.6674,2.6809,2.6909,2.6942,2.7137,2.7247,2.7279,2.7417,2.7552,2.7612,2.7612,2.7642,2.7701,2.7701,2.7701,2.7701,2.7836,2.7911,2.7911,2.7777,2.7701,2.7701,2.7701,2.776,2.7911,2.7911,2.7968,2.8053,2.8201,2.8335,2.844,2.8743,2.8929,2.9021,2.9218,2.9347,2.9372,2.9388,2.947,2.9588,2.951,2.953,2.9626,2.9626,2.9626,2.9607,2.9491,2.9531,2.9588,2.9491,2.945,2.9407,2.9407,2.9407,2.9386,2.9344,2.9347,2.9365,2.9197,2.9175,2.9197,2.924,2.8962,2.8682,2.8626,2.8422,2.8228,2.8081,2.8053,2.8025,2.794,2.7996,2.8025,2.7922,2.7911,2.794,2.8025,2.8025,2.8042,2.8126,2.82,2.8237,2.83,2.8406,2.851,2.8587,2.8587,2.8587,2.8587,2.8587,2.8587,2.8587,2.8587,2.8587,2.8587,2.8587,2.8587,2.8587,2.8587,2.8587,2.8587,2.851,2.8432,2.838,2.8318,2.8237,2.8182,2.8182,2.8182,2.8182,2.8182,2.8182,2.8182,2.6436,2.6742,2.7007,2.7023,2.7023,2.7072,2.7184,2.7341,2.7465,2.7509,2.7612,2.773,2.7806,2.7836,2.7836,2.7893,2.7904,2.7933,2.7979,2.8109,2.8182,2.8209,2.8063,2.7979,2.7979,2.7979,2.8035,2.8164,2.8164,2.8228,2.8396,2.8507,2.8682,2.8868,2.9115,2.9265,2.9368,2.947,2.9549,2.9569,2.953,2.9588,2.9701,2.9608,2.9626,2.9701,2.9701,2.9701,2.9701,2.9626,2.9645,2.9701,2.9589,2.9549,2.9528,2.9528,2.9528,2.949,2.9429,2.945,2.947,2.9265,2.9222,2.924,2.9262,2.9089,2.8887,2.8815,2.87,2.8594,2.8458,2.8432,2.8362,2.8201,2.8273,2.8246,2.8099,2.8071,2.8154,2.8318,2.8246,2.8219,2.83,2.8396,2.8525,2.8633,2.8755,2.8797,2.8743,2.8743,2.8712,2.8612,2.8587,2.8587,2.8587,2.8587,2.8587,2.8587,2.8587,2.8587,2.8587,2.8587,2.8587,2.8587,2.8536,2.8458,2.838,2.8327,2.8246,2.8182,2.8182,2.8182,2.8182,2.8182,2.8182,2.8182,2.7007,2.704,2.7055,2.7135,2.7166,2.723,2.7496,2.7526,2.7569,2.7701,2.773,2.7818,2.8014,2.8025,2.8071,2.8209,2.8273,2.8327,2.8398,2.8398,2.8406,2.8406,2.8352,2.8298,2.8324,2.8316,2.8298,2.8324,2.8324,2.8478,2.8748,2.8748,2.8997,2.9412,2.9412,2.9493,2.957,2.957,2.9589,2.9607,2.9589,2.9645,2.9719,2.9701,2.9701,2.9719,2.9719,2.9719,2.9719,2.9719,2.9701,2.9701,2.972,2.9701,2.9701,2.9701,2.9701,2.9664,2.9491,2.955,2.9645,2.9472,2.9429,2.9386,2.9178,2.9089,2.9021,2.8863,2.8797,2.8797,2.8797,2.8797,2.8743,2.8543,2.8518,2.844,2.8291,2.8264,2.83,2.851,2.8518,2.8518,2.8543,2.8785,2.8997,2.9188,2.9251,2.9209,2.9048,2.9026,2.891,2.8687,2.8637,2.8637,2.8637,2.8612,2.8587,2.8587,2.8587,2.8587,2.8587,2.8587,2.8587,2.8587,2.8536,2.8484,2.8406,2.8327,2.8291,2.8209,2.8209,2.8182,2.8182,2.8182,2.8182,2.8182,2.707,2.7247,2.7404,2.7404,2.7491,2.7582,2.7642,2.7777,2.7911,2.794,2.8025,2.8126,2.8154,2.8191,2.8246,2.8273,2.8327,2.838,2.8398,2.8398,2.8406,2.8484,2.7871,2.7652,2.7848,2.7579,2.7529,2.7713,2.7713,2.8164,2.902,2.9169,2.9312,2.9412,2.9569,2.927,2.867,2.867,2.8742,2.8813,2.8724,2.9152,2.9857,2.9808,2.9825,2.9857,2.9857,2.9857,2.9857,2.9857,2.979,2.972,2.9755,2.9738,2.9701,2.9701,2.9701,2.9701,2.9645,2.9664,2.9701,2.9645,2.9626,2.9588,2.9451,2.9119,2.8887,2.9021,2.891,2.8797,2.8797,2.8797,2.8791,2.8725,2.8725,2.8718,2.8694,2.8669,2.8694,2.8743,2.8725,2.8773,2.879,2.9016,2.9148,2.9188,2.9251,2.9272,2.923,2.923,2.9209,2.9144,2.8984,2.891,2.891,2.8694,2.8587,2.8587,2.8587,2.8587,2.8587,2.8587,2.8587,2.8587,2.8587,2.8536,2.8466,2.8406,2.8327,2.8273,2.8209,2.8182,2.8182,2.8182,2.8182,2.8182,2.7261,2.7386,2.7526,2.7569,2.7642,2.773,2.7836,2.794,2.8025,2.8136,2.8191,2.8264,2.8291,2.8345,2.8353,2.8388,2.8432,2.8458,2.8484,2.8502,2.8348,2.8001,2.7585,2.7061,2.6439,2.6331,2.6581,2.7166,2.7555,2.8088,2.8778,2.9267,2.9551,2.9645,2.9736,2.9319,2.8546,2.8546,2.8372,2.808,2.8013,2.8291,2.8749,2.872,2.8717,2.8806,2.9204,2.9566,2.9888,2.9888,2.9857,2.9808,2.9841,2.9823,2.979,2.979,2.979,2.979,2.979,2.979,2.979,2.979,2.9773,2.9719,2.9608,2.9412,2.9267,2.937,2.9289,2.9206,2.9141,2.9141,2.9097,2.9007,2.8989,2.8943,2.8855,2.8902,2.8966,2.9007,2.9052,2.9144,2.9297,2.9336,2.9397,2.9514,2.957,2.9533,2.9455,2.9455,2.9395,2.9293,2.9206,2.9141,2.9141,2.891,2.8791,2.8791,2.8662,2.8587,2.8587,2.8587,2.8587,2.8587,2.8587,2.8562,2.8492,2.8432,2.8353,2.83,2.8237,2.8182,2.8182,2.8182,2.8182,2.8182,2.7496,2.7557,2.76,2.773,2.776,2.7836,2.7996,2.8025,2.8109,2.8273,2.83,2.8327,2.838,2.8406,2.8432,2.8492,2.8536,2.8536,2.8587,2.8587,2.8225,2.7453,2.7272,2.6535,2.5071,2.51,2.563,2.6617,2.7436,2.8073,2.8479,2.9268,2.9734,2.9888,2.9756,2.9244,2.8502,2.8351,2.7896,2.7285,2.7285,2.738,2.7494,2.7494,2.7494,2.7589,2.8256,2.8919,2.9526,2.9642,2.968,2.9718,2.9851,2.9888,2.9888,2.9888,2.9888,2.9888,2.9888,2.9888,2.9888,2.9888,2.9857,2.9808,2.9756,2.972,2.9701,2.9701,2.9701,2.9664,2.955,2.9531,2.9472,2.9312,2.9291,2.923,2.9064,2.9148,2.9212,2.9291,2.9394,2.9551,2.979,2.9662,2.9662,2.9888,2.9888,2.9839,2.9662,2.9644,2.9551,2.9415,2.9375,2.9355,2.9355,2.9163,2.9026,2.9003,2.8767,2.8637,2.8587,2.8587,2.8587,2.8587,2.8587,2.8562,2.8492,2.8432,2.838,2.8327,2.8264,2.8209,2.8209,2.8209,2.8182,2.8182,2.7642,2.7806,2.794,2.794,2.8071,2.8154,2.8154,2.8219,2.8273,2.83,2.8353,2.838,2.8398,2.8458,2.8492,2.8587,2.8587,2.8587,2.8587,2.8587,2.8225,2.7453,2.6729,2.6023,2.5264,2.4783,2.4947,2.5856,2.6837,2.778,2.8682,2.9477,2.9872,2.9869,2.9169,2.8427,2.7608,2.6854,2.6475,2.6394,2.6394,2.683,2.7494,2.7494,2.7494,2.7513,2.7627,2.774,2.793,2.8635,2.8847,2.8979,2.968,2.9888,2.9888,2.9888,2.9888,2.9888,2.9888,2.9888,2.9888,2.9888,2.9888,2.9872,2.9874,2.979,2.9701,2.9701,2.9701,2.9683,2.9683,2.9664,2.9664,2.9645,2.9626,2.9626,2.9607,2.9626,2.9626,2.9626,2.9701,2.9773,2.9808,2.9841,2.9872,2.9888,2.9888,2.9888,2.9855,2.9855,2.9855,2.9822,2.9644,2.957,2.957,2.9355,2.9185,2.9003,2.8957,2.8815,2.8587,2.8587,2.8587,2.8587,2.8587,2.8587,2.8587,2.8492,2.8466,2.844,2.8327,2.8273,2.8273,2.8209,2.8182,2.8182,2.7836,2.794,2.8025,2.8099,2.8182,2.8264,2.8264,2.83,2.838,2.8406,2.8432,2.8484,2.851,2.8536,2.8562,2.8587,2.8587,2.8587,2.8587,2.8196,2.7628,2.6932,2.6129,2.5413,2.4801,2.4645,2.4765,2.5136,2.6648,2.7588,2.8066,2.9317,2.9661,2.9207,2.8847,2.7991,2.6754,2.6375,2.5939,2.5541,2.5541,2.5768,2.611,2.611,2.611,2.6167,2.6622,2.7096,2.7551,2.7896,2.8029,2.8085,2.8446,2.8881,2.9225,2.9225,2.9547,2.9888,2.9888,2.9888,2.9888,2.9888,2.9888,2.9888,2.9888,2.9857,2.9806,2.9806,2.9806,2.9808,2.9755,2.9756,2.9756,2.9756,2.9756,2.9756,2.9756,2.979,2.9806,2.9806,2.9841,2.9857,2.9857,2.9872,2.9888,2.9888,2.9888,2.9888,2.9888,2.9888,2.9888,2.9888,2.9803,2.9787,2.9787,2.957,2.9435,2.9334,2.9209,2.8962,2.8587,2.8587,2.8587,2.8587,2.8587,2.8587,2.8587,2.8536,2.8492,2.8492,2.8353,2.8273,2.8237,2.8209,2.8182,2.8182]},{"header":{"parameterUnit":"m.s-1","parameterCategory":1,"la1":30.6,"la2":28.766,"lo1":-90.7593,"lo2":-88.6598,"dy":0.0162,"dx":0.0183,"nx":116,"ny":114,"refTime":"2023-07-27T06:00:00:Z","depth":0,"parameterNumber":3,"parameterNumberName":"V-component_of_WINDS"},"data":[0.0,0.0,0.0,0.0,0.0,0.0,0.0,0.0,0.0,0.0,0.0,0.0,0.0,0.0,0.0,0.0,0.0,0.0,0.0,0.0,0.0,0.0,0.0,0.0,0.0,0.0,0.0,0.0,0.0,0.0,0.0,0.0,0.0,0.0,0.0,0.0,0.0,0.0,0.0,0.0,0.0,0.0,0.0,0.0,0.0,0.0,0.0,0.0,0.0,0.0,0.0,0.0,0.0,0.0,0.0,0.0,0.0,0.0,0.0,0.0,0.0,0.0,0.0,0.0,0.0,0.0,0.0,0.0,0.0,0.0,0.0,0.0,0.0,0.0,0.0,0.0,0.0,0.0,0.0,0.0,0.0,0.0,0.0,0.0,0.0,0.0,0.0,0.0,0.0,0.0,0.0,0.0,0.0,0.0,0.0,0.0,0.0,0.0,0.0,0.0,0.0,0.0,0.0,0.0,0.0,0.0,0.0,0.0,0.0,0.0,0.0,0.0,0.0,0.0,0.0,0.0,0.0,0.0,0.0,0.0,0.0,0.0,0.0,0.0,0.0,0.0,0.0,0.0,0.0,0.0,0.0,0.0,0.0,0.0,0.0,0.0,0.0,0.0,0.0,0.0,0.0,0.0,0.0,0.0,0.0,0.0,0.0,0.0,0.0,0.0,0.0,0.0,0.0,0.0,0.0,0.0,0.0,0.0,0.0,0.0,0.0,0.0,0.0,0.0,0.0,0.0,0.0,0.0,0.0,0.0,0.0,0.0,0.0,0.0,0.0,0.0,0.0,0.0,0.0,0.0,0.0,0.0,0.0,0.0,0.0,0.0,0.0,0.0,0.0,0.0,0.0,0.0,0.0,0.0,0.0,0.0,0.0,0.0,0.0,0.0,0.0,0.0,0.0,0.0,0.0,0.0,0.0,0.0,0.0,0.0,0.0,0.0,0.0,0.0,0.0,0.0,0.0,0.0,0.0,0.0,0.0,0.0,0.0,0.0,0.0,0.0,0.0,0.0,0.0,0.0,0.0,0.0,0.0,0.0,0.0,0.0,0.0,0.0,0.0,0.0,0.0,0.0,0.0,0.0,0.0,0.0,0.0,0.0,0.0,0.0,0.0,0.0,0.0,0.0,0.0,0.0,0.0,0.0,0.0,0.0,0.0,0.0,0.0,0.0,0.0,0.0,0.0,0.0,0.0,0.0,0.0,0.0,0.0,0.0,0.0,0.0,0.0,0.0,0.0,0.0,0.0,0.0,0.0,0.0,0.0,0.0,0.0,0.0,0.0,0.0,0.0,0.0,0.0,0.0,0.0,0.0,0.0,0.0,0.0,0.0,0.0,0.0,0.0,0.0,0.0,0.0,0.0,0.0,0.0,0.0,0.0,0.0,0.0,0.0,0.0,0.0,0.0,0.0,0.0,0.0,0.0,0.0,0.0,0.0,0.0,0.0,0.0,0.0,0.0,0.0,0.0,0.0,0.0,0.0,0.0,0.0,0.0,0.0,0.0,0.0,0.0,0.0,0.0,0.0,0.0,0.0,0.0,0.0,0.0,0.0,0.0,0.0,0.0,0.0,0.0,0.0,0.0,0.0,0.0,0.0,0.0,0.0,0.0,0.0,0.0,0.0,0.0,0.0,0.0,0.0,0.0,0.0,0.0,0.0,0.0,0.0,0.0,0.0,0.0,0.0,0.0,0.0,0.0,0.0,0.0,0.0,0.0,0.0,0.0,0.0,0.0,0.0,0.0,0.0,0.0,0.0,0.0,0.0,0.0,0.0,0.0,0.0,0.0,0.0,0.0,0.0,0.0,0.0,0.0,0.0,0.0,0.0,0.0,0.0,0.0,0.0,0.0,0.0,0.0,0.0,0.0,0.0,0.0,0.0,0.0,0.0,0.0,0.0,0.0,0.0,0.0,0.0,0.0,0.0,0.0,0.0,0.0,0.0,0.0,0.0,0.0,0.0,0.0,0.0,0.0,0.0,0.0,0.0,0.0,0.0,0.0,0.0,0.0,0.0,0.0,0.0,0.0,0.0,0.0,0.0,0.0,0.0,0.0,0.0,0.0,0.0,0.0,0.0,0.0,0.0,0.0,0.0,0.0,0.0,0.0,0.0,0.0,0.0,0.0,0.0,0.0,0.0,0.0,0.0,0.0,0.0,0.0,0.0,0.0,0.0,0.0,0.0,0.0,0.0,0.0,0.0,0.0,0.0,0.0,0.0,0.0,0.0,0.0,0.0,0.0,0.0,0.0,0.0,0.0,0.0,0.0,0.0,0.0,0.0,0.0,0.0,0.0,0.0,0.0,0.0,0.0,0.0,0.0,0.0,0.0,0.0,0.0,0.0,0.0,0.0,0.0,0.0,0.0,0.0,0.0,0.0,0.0,0.0,0.0,0.0,0.0,0.0,0.0,0.0,0.0,0.0,0.0,0.0,0.0,0.0,0.0,0.0,0.0,0.0,0.0,0.0,0.0,0.0,0.0,0.0,0.0,0.0,0.0,0.0,0.0,0.0,0.0,0.0,0.0,0.0,0.0,0.0,0.0,0.0,0.0,0.0,0.0,0.0,0.0,0.0,0.0,0.0,0.0,0.0,0.0,0.0,0.0,0.0,0.0,0.0,0.0,0.0,0.0,0.0,0.0,0.0,0.0,0.0,0.0,0.0,0.0,0.0,0.0,0.0,0.0,0.0,0.0,0.0,0.0,0.0,0.0,0.0,0.0,0.0,0.0,0.0,0.0,0.0,0.0,0.0,0.0,0.0,0.0,0.0,0.0,0.0,0.0,0.0,0.0,0.0,0.0,0.0,0.0,0.0,0.0,0.0,0.0,0.0,0.0,0.0,0.0,0.0,0.0,0.0,0.0,0.0,0.0,0.0,0.0,0.0,0.0,0.0,0.0,0.0,0.0,0.0,0.0,0.0,0.0,0.0,0.0,0.0,0.0,0.0,0.0,0.0,0.0,0.0,0.0,0.0,0.0,0.0,0.0,0.0,0.0,0.0,0.0,0.0,0.0,0.0,0.0,0.0,0.0,0.0,0.0,0.0,0.0,0.0,0.0,0.0,0.0,0.0,0.0,0.0,0.0,0.0,0.0,0.0,0.0,0.0,0.0,0.0,0.0,0.0,0.0,0.0,0.0,0.0,0.0,0.0,0.0,0.0,0.0,0.0,0.0,0.0,0.0,0.0,0.0,0.0,0.0,0.0,0.0,0.0,0.0,0.0,0.0,0.0,0.0,0.0,0.0,0.0,0.0,0.0,0.0,0.0,0.0,0.0,0.0,0.0,0.0,0.0,0.0,0.0,0.0,0.0,0.0,0.0,0.0,0.0,0.0,0.0,0.0,0.0,0.0,0.0,0.0,0.0,0.0,0.0,0.0,0.0,0.0,0.0,0.0,0.0,0.0,0.0,0.0,0.0,0.0,0.0,0.0,0.0,0.0,0.0,0.0,0.0,0.0,0.0,0.0,0.0,0.0,0.0,0.0,0.0,0.0,0.0,0.0,0.0,0.0,0.0,0.0,0.0,0.0,0.0,0.0,0.0,0.0,0.0,0.0,0.0,0.0,0.0,0.0,0.0,0.0,0.0,0.0,0.0,0.0,0.0,0.0,0.0,0.0,0.0,0.0,0.0,0.0,0.0,0.0,0.0,0.0,0.0,0.0,0.0,0.0,0.0,0.0,0.0,0.0,0.0,0.0,0.0,0.0,0.0,0.0,0.0,0.0,0.0,0.0,0.0,0.0,0.0,0.0,0.0,0.0,0.0,0.0,0.0,0.0,0.0,0.0,0.0,0.0,0.0,0.0,0.0,0.0,0.0,0.0,0.0,0.0,0.0,0.0,0.0,0.0,0.0,0.0,0.0,0.0,0.0,0.0,0.0,0.0,0.0,0.0,0.0,0.0,0.0,0.0,0.0,0.0,0.0,0.0,0.0,0.0,0.0,0.0,0.0,0.0,0.0,0.0,0.0,0.0,0.0,0.0,0.0,0.0,0.0,0.0,0.0,0.0,0.0,0.0,0.0,0.0,0.0,0.0,0.0,0.0,0.0,0.0,0.0,0.0,0.0,0.0,0.0,0.0,0.0,0.0,0.0,0.0,0.0,0.0,0.0,0.0,0.0,0.0,0.0,0.0,0.0,0.0,0.0,0.0,0.0,0.0,0.0,0.0,0.0,0.0,0.0,0.0,0.0,0.0,0.0,0.0,0.0,0.0,0.0,0.0,0.0,0.0,0.0,0.0,0.0,0.0,0.0,0.0,0.0,0.0,0.0,0.0,0.0,0.0,0.0,0.0,0.0,0.0,0.0,0.0,0.0,0.0,0.0,0.0,0.0,0.0,0.0,0.0,0.0,0.0,0.0,0.0,0.0,0.0,0.0,0.0,0.0,0.0,0.0,0.0,0.0,0.0,0.0,0.0,0.0,0.0,0.0,0.0,0.0,0.0,0.0,0.0,0.0,0.0,0.0,0.0,0.0,0.0,0.0,0.0,0.0,0.0,0.0,0.0,0.0,0.0,0.0,0.0,0.0,0.0,0.0,0.0,0.0,0.0,0.0,0.0,0.0,0.0,0.0,0.0,0.0,0.0,0.0,0.0,0.0,0.0,0.0,0.0,0.0,0.0,0.0,0.0,0.0,0.0,0.0,0.0,0.0,0.0,0.0,0.0,0.0,0.0,0.0,0.0,0.0,0.0,0.0,0.0,0.0,0.0,0.0,0.0,0.0,0.0,0.0,0.0,0.0,0.0,0.0,0.0,0.0,0.0,0.0,0.0,0.0,0.0,0.0,0.0,0.0,0.0,0.0,0.0,0.0,0.0,0.0,0.0,0.0,0.0,0.0,0.0,0.0,0.0,0.0,0.0,0.0,0.0,0.0,0.0,0.0,0.0,0.0,0.0,0.0,0.0,0.0,0.0,0.0,0.0,0.0,0.0,0.0,0.0,0.0,0.0,0.0,0.0,0.0,0.0,0.0,0.0,0.0,0.0,0.0,0.0,0.0,0.0,0.0,0.0,0.0,0.0,0.0,0.0,0.0,0.0,0.0,0.0,0.0,0.0,0.0,0.0,0.0,0.0,0.0,0.0,0.0,0.0,0.0,0.0,0.0,0.0,0.0,0.0,0.0,0.0,0.0,0.0,0.0,0.0,0.0,0.0,0.0,0.0,0.0,0.0,0.0,0.0,0.0,0.0,0.0,0.0,0.0,0.0,0.0,0.0,0.0,0.0,0.0,0.0,0.0,0.0,0.0,0.0,0.0,0.0,0.0,0.0,0.0,0.0,0.0,0.0,0.0,0.0,0.0,0.0,0.0,0.0,0.0,0.0,0.0,0.0,0.0,0.0,0.0,0.0,0.0,0.0,0.0,0.0,0.0,0.0,0.0,0.0,0.0,0.0,0.0,0.0,0.0,0.0,0.0,0.0,0.0,0.0,0.0,0.0,0.0,0.0,0.0,0.0,0.0,0.0,0.0,0.0,0.0,0.0,0.0,0.0,0.0,0.0,0.0,0.0,0.0,0.0,0.0,0.0,0.0,0.0,0.0,0.0,0.0,0.0,0.0,0.0,0.0,0.0,0.0,0.0,0.0,0.0,0.0,0.0,0.0,0.0,0.0,0.0,0.0,0.0,0.0,0.0,0.0,0.0,0.0,0.0,0.0,0.0,0.0,0.0,0.0,0.0,0.0,0.0,0.0,0.0,0.0,0.0,0.0,0.0,0.0,0.0,0.0,0.0,0.0,0.0,0.0,0.0,0.0,0.0,0.0,0.0,0.0,0.0,0.0,0.0,0.0,0.0,0.0,0.0,0.0,0.0,0.0,0.0,0.0,0.0,0.0,0.0,0.0,0.0,0.0,0.0,0.0,0.0,0.0,0.0,0.0,0.0,0.0,0.0,0.0,0.0,0.0,0.0,0.0,0.0,0.0,0.0,0.0,0.0,0.0,0.0,0.0,0.0,0.0,0.0,0.0,0.0,0.0,0.0,0.0,0.0,0.0,0.0,0.0,0.0,0.0,0.0,0.0,0.0,0.0,0.0,0.0,0.0,0.0,0.0,0.0,0.0,0.0,0.0,0.0,0.0,0.0,0.0,0.0,0.0,0.0,0.0,0.0,0.0,0.0,0.0,0.0,-3.5149,-3.4889,0.0,0.0,0.0,0.0,0.0,0.0,0.0,0.0,0.0,0.0,0.0,0.0,0.0,0.0,0.0,0.0,0.0,0.0,0.0,0.0,0.0,0.0,0.0,0.0,0.0,0.0,0.0,0.0,0.0,0.0,0.0,0.0,0.0,0.0,0.0,0.0,0.0,0.0,0.0,0.0,0.0,0.0,0.0,0.0,0.0,0.0,0.0,0.0,0.0,0.0,0.0,0.0,0.0,0.0,0.0,0.0,0.0,0.0,0.0,0.0,0.0,0.0,0.0,0.0,0.0,0.0,0.0,0.0,0.0,0.0,0.0,0.0,0.0,0.0,0.0,0.0,0.0,0.0,0.0,0.0,0.0,0.0,0.0,0.0,0.0,0.0,0.0,0.0,0.0,0.0,0.0,0.0,0.0,0.0,0.0,0.0,0.0,0.0,0.0,0.0,0.0,0.0,0.0,0.0,0.0,0.0,0.0,0.0,0.0,0.0,0.0,0.0,0.0,0.0,-3.5262,-3.5133,0.0,0.0,0.0,0.0,0.0,0.0,0.0,0.0,0.0,0.0,0.0,0.0,0.0,0.0,0.0,0.0,0.0,0.0,0.0,0.0,0.0,0.0,0.0,0.0,0.0,0.0,0.0,0.0,0.0,0.0,0.0,0.0,0.0,0.0,0.0,0.0,0.0,0.0,0.0,0.0,0.0,0.0,0.0,0.0,0.0,0.0,0.0,0.0,0.0,0.0,0.0,0.0,0.0,0.0,0.0,0.0,0.0,0.0,0.0,0.0,0.0,0.0,0.0,0.0,0.0,0.0,0.0,0.0,0.0,0.0,0.0,0.0,0.0,0.0,0.0,0.0,0.0,0.0,0.0,0.0,0.0,0.0,0.0,0.0,0.0,0.0,0.0,0.0,0.0,0.0,0.0,0.0,0.0,0.0,0.0,0.0,0.0,0.0,0.0,0.0,0.0,0.0,0.0,0.0,0.0,0.0,0.0,0.0,-3.5477,-3.5477,-3.5374,-3.5538,-3.5489,-3.5285,-3.5397,-3.5369,-3.5219,-3.5203,0.0,0.0,0.0,0.0,0.0,0.0,0.0,0.0,0.0,0.0,0.0,0.0,0.0,0.0,0.0,0.0,0.0,0.0,0.0,0.0,0.0,0.0,0.0,0.0,0.0,0.0,0.0,0.0,0.0,0.0,0.0,0.0,0.0,0.0,0.0,0.0,0.0,0.0,-3.0599,-3.1329,-3.1627,-3.1573,-3.1452,0.0,0.0,0.0,0.0,0.0,0.0,0.0,0.0,0.0,0.0,0.0,0.0,0.0,0.0,0.0,0.0,0.0,0.0,0.0,0.0,0.0,0.0,0.0,0.0,0.0,0.0,0.0,0.0,0.0,0.0,0.0,0.0,0.0,0.0,0.0,0.0,0.0,0.0,0.0,0.0,0.0,0.0,0.0,-3.6948,-3.7715,0.0,0.0,0.0,0.0,0.0,0.0,0.0,0.0,0.0,0.0,0.0,0.0,0.0,-3.5626,-3.5657,-3.5626,-3.5623,-3.5651,-3.5662,-3.5662,-3.5651,-3.5673,-3.5673,-3.5639,-3.5662,0.0,-3.4851,-3.4793,0.0,0.0,0.0,0.0,0.0,0.0,0.0,0.0,0.0,0.0,0.0,0.0,0.0,0.0,0.0,0.0,0.0,0.0,0.0,0.0,0.0,0.0,0.0,0.0,0.0,0.0,0.0,0.0,0.0,0.0,0.0,0.0,0.0,0.0,0.0,0.0,-3.0649,-3.1189,-3.1479,-3.2109,-3.24,-3.24,-3.2401,-3.2283,-3.2109,-3.2038,0.0,0.0,0.0,0.0,0.0,0.0,0.0,0.0,0.0,0.0,0.0,0.0,0.0,0.0,0.0,0.0,0.0,0.0,0.0,0.0,0.0,0.0,0.0,0.0,0.0,0.0,0.0,0.0,0.0,0.0,0.0,0.0,0.0,0.0,0.0,0.0,0.0,0.0,0.0,-3.7853,-3.8633,-3.884,-3.9294,-3.9599,0.0,0.0,0.0,0.0,0.0,0.0,0.0,0.0,0.0,-3.7721,-3.6859,-3.6383,-3.6383,-3.5938,-3.5695,-3.5704,-3.5706,-3.5684,-3.5659,-3.5684,-3.562,-3.5476,-3.5522,-3.5296,-3.4926,-3.5117,-3.5102,-3.4926,0.0,0.0,0.0,0.0,-3.426,-3.4074,0.0,0.0,0.0,0.0,0.0,0.0,0.0,0.0,0.0,0.0,0.0,0.0,0.0,0.0,0.0,-2.3891,0.0,0.0,0.0,0.0,0.0,0.0,0.0,0.0,0.0,0.0,0.0,0.0,-3.1359,-3.1986,-3.2384,-3.2795,-3.3001,-3.3032,-3.3184,-3.305,-3.2687,-3.2555,-3.2555,0.0,0.0,0.0,0.0,0.0,0.0,0.0,0.0,0.0,0.0,0.0,0.0,0.0,0.0,0.0,0.0,0.0,0.0,0.0,0.0,0.0,0.0,0.0,0.0,0.0,0.0,0.0,0.0,0.0,0.0,0.0,0.0,0.0,0.0,0.0,0.0,0.0,0.0,-3.9178,-3.9575,-3.9575,-3.9781,-3.987,0.0,0.0,0.0,0.0,0.0,0.0,-3.8656,-3.8324,-3.8288,-3.8601,-3.7707,-3.7232,-3.7232,-3.6632,-3.6226,-3.6013,-3.6016,-3.5878,-3.5628,-3.5684,-3.5589,-3.5402,-3.5435,-3.5345,-3.5168,-3.536,-3.533,-3.5209,-3.5209,-3.5053,-3.4812,-3.4636,-3.4464,-3.4298,0.0,0.0,0.0,0.0,0.0,0.0,0.0,0.0,0.0,0.0,0.0,0.0,0.0,0.0,-2.1877,-2.2309,-2.275,-2.3327,0.0,0.0,0.0,0.0,0.0,0.0,0.0,0.0,0.0,-3.1133,-3.1897,-3.2535,-3.305,-3.3397,-3.3587,-3.3671,-3.3734,-3.3484,-3.2975,-3.2975,-3.2975,-3.2975,0.0,0.0,0.0,0.0,0.0,0.0,0.0,0.0,0.0,0.0,0.0,0.0,0.0,0.0,0.0,0.0,0.0,0.0,0.0,0.0,0.0,0.0,0.0,0.0,0.0,0.0,0.0,0.0,0.0,0.0,0.0,0.0,0.0,0.0,0.0,0.0,0.0,0.0,0.0,-3.9762,-3.9848,0.0,0.0,0.0,0.0,-4.023,-3.9764,-3.9741,-4.0337,-3.905,-3.8642,-3.9429,-3.8586,-3.8141,-3.8141,-3.8102,-3.7657,-3.6845,-3.6845,-3.6439,-3.5704,-3.5704,-3.5684,-3.5673,-3.562,-3.5577,-3.5534,-3.5117,-3.5051,-3.5209,-3.5209,-3.5193,-3.5174,-3.5235,-3.4997,-3.4674,0.0,0.0,0.0,0.0,0.0,0.0,0.0,0.0,0.0,0.0,0.0,0.0,0.0,-2.1336,-2.14,-2.1549,-2.2199,-2.2616,-2.2652,0.0,0.0,0.0,0.0,0.0,0.0,0.0,-3.121,-3.1571,-3.2417,-3.3019,-3.3444,-3.3762,-3.3895,-3.3895,-3.3998,-3.3876,-3.3569,-3.3357,-3.3286,-3.3352,-3.3718,-3.3903,0.0,0.0,0.0,0.0,0.0,0.0,0.0,0.0,0.0,0.0,0.0,0.0,0.0,0.0,0.0,0.0,0.0,0.0,0.0,0.0,0.0,0.0,0.0,0.0,0.0,0.0,0.0,0.0,0.0,0.0,0.0,0.0,0.0,0.0,0.0,0.0,0.0,-3.9975,-4.0077,0.0,-4.0234,-4.0323,-4.0406,-4.0438,-4.0372,-4.0471,-4.073,-4.0223,-4.004,-4.0339,-3.948,-3.903,-3.903,-3.8489,-3.8044,-3.7735,-3.7735,-3.7599,-3.7309,-3.7309,-3.7007,-3.6462,-3.64,-3.6054,-3.5515,-3.5364,-3.532,-3.5403,-3.5354,-3.5223,-3.5069,-3.5049,-3.4851,-3.4572,0.0,0.0,0.0,0.0,0.0,0.0,0.0,0.0,0.0,0.0,0.0,-2.085,-2.085,-2.085,-2.0839,-2.0967,-2.1639,-2.2125,-2.2175,0.0,0.0,0.0,0.0,0.0,0.0,-3.0897,-3.1662,-3.2109,-3.2858,-3.3397,-3.3698,-3.3972,-3.4074,-3.4049,-3.4099,-3.4049,-3.3887,-3.3897,-3.3909,-3.3975,-3.4365,-3.4733,-3.5064,0.0,0.0,0.0,0.0,0.0,0.0,0.0,0.0,0.0,0.0,0.0,0.0,0.0,0.0,0.0,0.0,0.0,0.0,0.0,0.0,0.0,0.0,0.0,0.0,0.0,0.0,0.0,0.0,0.0,0.0,0.0,0.0,0.0,0.0,-3.9892,-4.0036,-4.0077,-4.0176,-4.0253,-4.0291,-4.0411,-4.0485,-4.0511,-4.0713,-4.0846,-4.0876,-4.0807,-4.0796,-4.0804,-4.0234,-3.9952,-3.9952,-3.9359,-3.8934,-3.8644,-3.8644,-3.8489,-3.8199,-3.8199,-3.7885,-3.7339,-3.7263,-3.691,-3.635,-3.6348,-3.6339,-3.6248,-3.5643,-3.5285,-3.5102,-3.5051,-3.4925,-3.4774,0.0,0.0,0.0,0.0,0.0,0.0,0.0,0.0,0.0,0.0,-2.0335,-2.0085,-2.0074,-2.0085,-2.0205,-2.0571,-2.1083,-2.1753,-2.2701,-2.3374,0.0,0.0,0.0,0.0,-3.0117,-3.1363,-3.2248,-3.2702,-3.3238,-3.3643,-3.3895,-3.4049,-3.4099,-3.4099,-3.4023,-3.3991,-3.3987,-3.4632,-3.4885,-3.4852,-3.4852,-3.5254,-3.5946,0.0,0.0,0.0,0.0,0.0,0.0,0.0,0.0,0.0,0.0,0.0,0.0,0.0,0.0,0.0,0.0,0.0,0.0,0.0,0.0,0.0,0.0,0.0,0.0,0.0,0.0,0.0,0.0,0.0,0.0,0.0,0.0,0.0,-3.967,-3.9804,-3.9933,-4.0096,-4.0096,-4.0157,-4.0291,-4.0476,-4.0559,-4.0496,-4.0723,-4.0839,-4.075,-4.0746,-4.0734,-4.0713,-4.0732,-4.0732,-4.0713,-4.0771,-4.0346,-3.9507,-3.9526,-3.9088,-3.8276,-3.8276,-3.8272,-3.8228,-3.817,-3.8105,-3.7993,-3.7988,-3.7943,-3.774,-3.6108,-3.5422,-3.5339,-3.5331,-3.5296,-3.5261,0.0,0.0,0.0,0.0,0.0,0.0,0.0,0.0,0.0,0.0,-2.0074,-2.0074,-1.9944,-2.0009,-2.0074,-2.0064,-2.0506,-2.1008,-2.1376,0.0,0.0,0.0,0.0,0.0,-3.0327,-3.1588,-3.2453,-3.2912,-3.3415,-3.3753,-3.3972,-3.4074,-3.4099,-3.4099,-3.4074,-3.4349,-3.4843,-3.4945,-3.5601,-3.6559,-3.6497,-3.6549,-3.6743,0.0,0.0,0.0,0.0,0.0,0.0,0.0,0.0,0.0,0.0,0.0,0.0,0.0,0.0,0.0,0.0,0.0,0.0,0.0,0.0,0.0,0.0,0.0,0.0,0.0,0.0,0.0,0.0,0.0,0.0,0.0,-3.9413,-3.9444,-3.9552,-3.9684,-3.9804,-3.9933,-4.0036,-4.0157,-4.0291,-4.0345,-4.0379,-4.0358,-4.0422,-4.0181,-3.9527,-3.9488,-3.9268,-3.8788,-3.9339,-3.9405,-3.8914,-4.0172,-4.0346,-3.9507,-4.0133,-4.0307,-4.0094,-4.0094,-3.9721,-3.9058,-3.9058,-3.8651,-3.7969,-3.774,-3.7618,-3.7581,-3.7335,-3.6695,-3.5948,-3.5893,-3.5401,-3.4714,0.0,0.0,0.0,0.0,0.0,0.0,0.0,0.0,0.0,0.0,-1.9944,-1.9878,-1.9868,-1.9878,-1.9878,-1.9868,-2.0129,-2.0453,-2.0764,0.0,0.0,0.0,0.0,-2.9756,-3.0493,-3.1699,-3.2519,-3.3006,-3.3426,-3.3753,-3.3921,-3.3972,-3.4023,-3.4042,-3.4341,-3.4686,-3.511,-3.5656,-3.631,-3.7043,-3.7341,-3.7401,-3.744,-3.791,-3.7934,-3.7775,-3.7775,-3.7703,-3.7577,-3.7484,0.0,0.0,0.0,0.0,0.0,0.0,0.0,0.0,0.0,0.0,0.0,0.0,0.0,0.0,0.0,0.0,0.0,0.0,0.0,0.0,0.0,0.0,0.0,0.0,-3.9406,-3.9418,-3.9444,-3.9613,-3.9739,-3.9889,-4.0015,-4.0157,-4.0291,-4.0327,-4.0326,-4.027,-4.0321,-4.0109,-3.9521,-3.9501,-3.9325,-3.8927,-3.9372,-3.9473,-3.9174,-3.9716,-3.9788,-3.938,-3.946,-3.949,-3.949,-3.9552,-3.922,-3.86,-3.8666,-3.8508,-3.819,-3.8004,-3.8076,-3.8279,0.0,0.0,0.0,0.0,-3.6042,-3.5496,0.0,0.0,0.0,0.0,0.0,0.0,0.0,0.0,0.0,0.0,0.0,-1.9671,-1.9802,-1.9671,-1.9671,-1.9802,-1.9868,-2.0064,0.0,0.0,0.0,-2.5739,-2.7682,-2.9217,-3.0336,-3.1479,-3.2316,-3.283,-3.3232,-3.3541,-3.3734,-3.3788,-3.3852,-3.4007,-3.466,-3.496,-3.5075,-3.6435,-3.6928,-3.6816,-3.7575,-3.7864,-3.7864,-3.7864,-3.7739,-3.7558,-3.7558,-3.754,-3.754,-3.754,0.0,0.0,0.0,0.0,0.0,0.0,0.0,0.0,0.0,0.0,0.0,0.0,0.0,0.0,0.0,0.0,0.0,0.0,0.0,0.0,0.0,0.0,0.0,0.0,-3.938,-3.9418,-3.9418,-3.9564,-3.9735,-3.9889,-3.9994,-4.0117,-4.0272,-4.0325,-4.0285,-4.0177,-4.0264,-4.0206,-3.9986,-3.9986,0.0,0.0,0.0,-4.0077,-4.02,-3.9459,-3.9092,-3.9076,-3.8249,-3.7802,-3.7706,-3.7805,-3.7778,-3.7642,-3.775,-3.8118,-3.8631,-3.859,-3.8912,-3.9276,-3.7742,-3.7094,-3.7004,-3.6911,-3.6849,-3.6825,0.0,0.0,0.0,0.0,0.0,0.0,0.0,0.0,0.0,-1.9747,-1.9802,-1.9736,-1.9473,-1.955,-1.9539,-1.9417,-1.9539,-1.9998,0.0,0.0,-2.3942,-2.4687,-2.6637,-2.8054,-2.8884,-3.0153,-3.1125,-3.1702,-3.2212,-3.2759,-3.3302,-3.3273,-3.3694,-3.4459,-3.4563,-3.4896,-3.5443,-3.6281,-3.659,-3.6626,-3.7363,-3.7667,-3.7667,-3.7667,-3.7521,-3.7372,-3.7372,-3.7259,-3.7143,-3.7143,-3.7143,-3.7087,-3.693,-3.6987,0.0,0.0,0.0,0.0,0.0,0.0,0.0,0.0,0.0,0.0,0.0,0.0,0.0,0.0,0.0,0.0,0.0,0.0,0.0,-3.967,-3.9514,-3.9418,-3.9469,-3.9552,-3.9679,-3.9867,-3.9826,-3.9933,-4.0273,-4.0118,-3.9977,-3.9956,-3.9876,-3.9485,-3.8727,-3.8671,-3.8417,-3.7867,-3.8533,-3.8747,-3.8416,-3.9525,-3.9531,-3.8395,-3.8689,0.0,-3.777,-3.7651,-3.7889,-3.8479,-3.844,-3.8814,-3.9441,-3.9114,-3.8933,-3.8799,-3.8203,-3.7854,-3.7638,-3.6924,-3.657,-3.6436,0.0,0.0,0.0,0.0,0.0,0.0,0.0,0.0,0.0,0.0,-1.9539,-1.9473,-1.9285,-1.9341,-1.9341,-1.9285,-1.9615,0.0,0.0,-2.2089,-2.3204,-2.4359,-2.583,-2.7104,-2.8167,-2.9315,-3.0228,-3.0903,-3.1339,-3.1794,-3.2329,-3.2753,-3.3328,-3.3952,-3.4398,-3.4878,-3.5393,-3.5666,-3.5989,-3.6292,-3.6646,-3.6943,-3.7182,-3.7372,-3.7334,-3.7143,-3.7066,-3.7027,-3.6987,-3.693,-3.693,-3.6987,-3.6908,-3.6908,-3.693,0.0,0.0,0.0,0.0,0.0,0.0,0.0,0.0,0.0,0.0,0.0,0.0,0.0,0.0,-3.8886,-3.898,0.0,-3.9137,-3.9324,-3.929,-3.9301,-3.9444,-3.952,-3.9626,-3.9781,-3.9739,-3.9804,-4.0077,-3.9994,-3.9867,-3.9804,-3.9739,-3.9477,-3.9,-3.8939,-3.878,-3.8418,-3.8836,-3.8956,-3.8766,-3.9086,-3.8936,-3.8284,-3.8099,-3.7771,-3.7354,-3.7313,-3.7454,-3.769,-3.7721,-3.8099,-3.8656,-3.8823,-3.8815,-3.8683,-3.845,-3.8331,-3.8264,-3.7811,-3.7595,-3.7496,0.0,0.0,0.0,0.0,0.0,0.0,0.0,0.0,0.0,0.0,-1.9341,-1.9142,-1.9274,-1.9142,-1.9142,0.0,0.0,0.0,0.0,-2.1439,-2.2457,-2.3955,-2.4955,-2.6054,-2.737,-2.8311,-2.9118,-2.9903,-3.031,-3.0757,-3.1317,-3.2119,-3.2766,-3.3256,-3.401,-3.4423,-3.4553,-3.4622,-3.4951,-3.5395,-3.5553,-3.5936,-3.6426,-3.6736,-3.6816,-3.6753,-3.6673,-3.6632,-3.6597,-3.6533,-3.6516,-3.6655,-3.6615,-3.6574,-3.6591,-3.6673,-3.6834,0.0,0.0,0.0,0.0,0.0,0.0,0.0,0.0,-3.8234,-3.8201,-3.7913,-3.805,-3.8249,-3.8231,-3.851,-3.878,-3.8921,-3.9045,-3.9156,-3.9346,-3.9444,-3.9527,-3.9642,-3.9665,-3.9735,-3.9889,-3.9867,-3.98,-3.9717,-3.9689,-3.9637,-3.9577,-3.9596,-3.9546,-3.9469,-3.9495,-3.9539,-3.9599,-3.8801,-3.8407,-3.8436,-3.7539,-3.7063,-3.6913,-3.6967,-3.6963,-3.6912,-3.7161,-3.7458,-3.7812,-3.8414,-3.8658,-3.8627,-3.851,-3.8559,-3.8627,-3.8658,-3.8658,-3.8707,0.0,0.0,0.0,0.0,0.0,0.0,0.0,0.0,0.0,0.0,0.0,0.0,0.0,0.0,0.0,0.0,0.0,0.0,-2.0161,-2.0996,-2.1865,-2.2761,-2.3702,-2.467,-2.5631,-2.6486,-2.728,-2.8102,-2.8732,-2.9701,-3.0974,-3.1338,-3.2051,-3.3026,-3.3026,-3.2765,-3.2324,-3.2917,-3.3195,-3.3313,-3.4004,-3.4711,-3.529,-3.5335,-3.5637,-3.6037,-3.5994,-3.5681,-3.529,-3.5307,-3.529,-3.529,-3.5232,-3.5431,-3.5654,-3.5582,-3.6071,-3.6609,-3.6834,-3.7374,-3.7846,-3.7632,-3.7703,-3.7809,0.0,-3.7877,-3.7877,-3.7962,-3.8231,-3.8504,-3.8608,-3.8759,-3.8921,-3.9129,-3.9129,-3.9129,-3.921,-3.938,-3.9495,-3.952,-3.9577,-3.9679,-3.9889,-3.9727,-3.9656,-3.9693,-3.9607,-3.952,-3.952,-3.9495,-3.9469,-3.9418,-3.9469,-3.9539,-3.9599,-3.9486,-3.9123,-3.8567,-3.8141,-3.7579,-3.6881,-3.6686,-3.6934,-3.7646,-3.829,-3.8523,-3.8413,-3.8504,-3.8478,-3.8433,-3.8415,-3.8415,-3.8446,-3.851,-3.8609,-3.8658,0.0,0.0,0.0,0.0,0.0,0.0,0.0,0.0,0.0,0.0,0.0,0.0,0.0,0.0,0.0,0.0,0.0,0.0,-2.0107,-2.0624,-2.1325,-2.2187,-2.2834,-2.361,-2.4425,-2.5259,-2.5997,-2.6643,-2.7742,-2.8652,-2.9363,-3.0747,-3.179,-3.2479,-3.2653,-3.2722,-3.2696,-3.263,-3.2812,-3.321,-3.3587,-3.4087,-3.4703,-3.4703,-3.4655,-3.4655,-3.5203,-3.5232,0.0,0.0,-3.5015,-3.5061,-3.4985,-3.5048,-3.5249,-3.5431,-3.5644,-3.5968,-3.6433,-3.6719,-3.6917,-3.7094,-3.7076,-3.7038,-3.7228,-3.7266,-3.7266,-3.7283,-3.7505,-3.7791,-3.8044,-3.8263,-3.8478,-3.8833,-3.8881,-3.8921,-3.9129,-3.9202,-3.9301,-3.9444,-3.9495,-3.9577,-3.9703,-3.965,-3.9602,-3.9656,-3.9552,-3.9495,-3.9495,-3.9469,-3.9399,-3.9301,-3.9256,-3.9264,-3.9234,-3.9219,-3.9059,-3.8763,-3.8625,-3.8395,-3.8079,-3.7951,-3.805,-3.8354,-3.8536,-3.8572,-3.851,-3.8446,-3.8415,-3.8401,-3.8336,-3.8368,-3.8415,-3.8415,-3.8496,-3.8515,0.0,0.0,0.0,0.0,0.0,0.0,0.0,0.0,0.0,0.0,0.0,0.0,0.0,0.0,0.0,0.0,0.0,0.0,0.0,-2.0442,-2.1083,-2.1753,-2.231,-2.298,-2.3636,-2.4279,-2.4894,-2.5536,-2.6787,-2.7628,-2.8169,-3.0042,-3.1098,-3.1576,-3.1867,-3.2149,-3.237,-3.1854,-3.2112,-3.2902,-3.2854,-3.329,-3.3887,-3.3836,-3.3582,-3.3391,-3.4284,-3.4528,0.0,0.0,-3.4382,-3.4463,-3.4366,-3.4431,-3.4657,-3.4878,-3.5128,-3.5419,-3.595,-3.6079,-3.6207,-3.658,-3.6498,-3.6433,-3.6638,-3.6719,-3.6719,-3.6673,-3.6913,-3.7185,-3.7468,-3.781,-3.8138,-3.8483,-3.8627,-3.878,-3.9007,-3.9045,-3.9147,-3.9301,-3.9373,-3.9451,-3.9546,-3.9552,-3.9571,-3.9571,-3.9476,-3.9399,-3.9399,-3.9328,-3.9248,-3.9101,-3.9073,-3.9036,-3.8979,-3.8921,-3.891,-3.891,-3.8881,-3.8881,-3.8851,-3.8773,-3.8743,-3.8683,-3.8541,-3.8478,-3.8446,-3.8401,-3.8368,-3.8336,-3.8307,-3.8289,-3.8336,-3.8336,-3.8368,-3.8382,0.0,0.0,0.0,0.0,0.0,0.0,0.0,0.0,0.0,0.0,0.0,0.0,0.0,0.0,0.0,0.0,0.0,0.0,0.0,-2.0582,-2.1221,-2.1388,-2.2235,-2.2921,-2.339,-2.3569,-2.4028,-2.4835,-2.5619,-2.6715,-2.8011,-2.8857,-2.9638,-3.0253,-3.0155,-3.0148,-3.0204,-3.0053,-3.0593,-3.161,-3.1519,-3.1959,-3.2641,-3.2492,-3.2437,-3.2547,-3.3339,0.0,0.0,0.0,-3.2951,-3.2951,-3.2951,-3.3256,-3.3555,-3.3555,-3.4267,-3.5021,-3.5224,-3.5732,-3.619,-3.6139,-3.6199,-3.6326,-3.6392,-3.635,-3.6343,-3.6301,-3.6736,-3.7091,-3.7108,-3.7613,-3.8018,-3.8119,-3.8451,-3.8738,-3.8792,-3.8921,-3.9036,-3.9101,-3.9156,-3.9256,-3.9373,-3.9469,-3.9495,-3.9495,-3.9328,-3.9183,-3.9129,-3.9101,-3.9045,-3.8892,-3.895,-3.895,-3.8892,-3.891,-3.891,-3.891,-3.8851,-3.878,-3.8707,-3.8496,-3.8415,-3.8415,-3.8415,-3.8368,-3.8307,-3.8307,-3.8274,-3.8225,-3.8192,-3.8192,-3.8225,-3.8225,-3.8289,-3.8382,0.0,0.0,0.0,0.0,0.0,0.0,0.0,0.0,0.0,0.0,0.0,0.0,0.0,0.0,0.0,0.0,0.0,0.0,0.0,-2.014,-2.0582,-2.0892,-2.1463,-2.2025,-2.2396,-2.2896,-2.3318,-2.3662,-2.5135,-2.6237,-2.6922,-2.8488,-2.9468,-2.9832,-3.0323,-3.0572,-3.0594,-3.0821,-3.1237,-3.1688,-3.1632,-3.1825,-3.2191,-3.2135,-3.215,-3.2191,0.0,0.0,0.0,-3.2703,-3.2773,-3.2897,-3.2718,-3.2881,-3.315,-3.3398,-3.3899,-3.4382,-3.4771,-3.5038,-3.5253,-3.5532,-3.5577,-3.5667,-3.581,-3.5871,-3.5932,-3.6208,-3.6385,-3.6655,-3.6917,-3.7206,-3.7504,-3.781,-3.8052,-3.8252,-3.8396,-3.8621,-3.884,-3.8892,-3.9007,-3.9092,-3.9138,-3.932,-3.9444,-3.9444,-3.9229,-3.9129,-3.9101,-3.8517,-3.8413,-3.8873,-3.8364,-3.8317,-3.8851,-3.8713,-3.8634,-3.8634,-3.859,-3.8528,-3.8496,-3.8433,-3.8382,-3.8382,-3.8336,-3.8256,-3.8104,-3.8054,-3.7916,-3.781,-3.781,-3.781,-3.7756,-3.7218,-3.7037,-3.7178,0.0,0.0,0.0,0.0,0.0,0.0,0.0,0.0,0.0,0.0,0.0,0.0,0.0,0.0,0.0,0.0,0.0,-1.8444,0.0,0.0,-1.9791,-2.0042,-2.0473,-2.091,-2.1227,-2.1678,-2.2209,-2.2911,-2.409,-2.5205,-2.6337,-2.7662,-2.8634,-2.9261,-2.9856,-3.0222,-3.0404,-3.0896,-3.119,-3.1379,-3.1452,-3.1582,-3.1754,-3.1712,-3.1712,0.0,0.0,0.0,0.0,-3.2373,-3.2499,-3.2554,-3.2484,-3.2594,-3.2881,-3.3256,-3.3555,-3.3848,-3.425,-3.4497,-3.4691,-3.4994,-3.5152,-3.5274,-3.5458,-3.5532,-3.5667,-3.5949,-3.6148,-3.6343,-3.6638,-3.6838,-3.7091,-3.7431,-3.7685,-3.7879,-3.8101,-3.8318,-3.8546,-3.8732,-3.8851,-3.891,-3.895,-3.911,-3.9239,-3.9266,-3.912,-3.8887,-3.8581,-3.7968,-3.7745,-3.789,-3.7353,-3.7452,-3.8212,-3.8089,-3.8123,-3.8364,-3.8285,-3.8219,-3.8153,-3.8119,-3.8119,-3.8119,-3.807,-3.7985,-3.7845,-3.781,-3.7703,-3.7559,-3.7273,-3.7166,-3.7077,-3.6274,-3.5989,-3.6095,0.0,0.0,0.0,0.0,0.0,0.0,0.0,0.0,0.0,0.0,0.0,0.0,0.0,0.0,0.0,0.0,0.0,0.0,0.0,0.0,0.0,-1.8977,-1.9288,-1.9661,-2.0063,-2.0052,-2.0868,-2.2486,-2.2553,-2.3795,-2.6258,-2.6316,-2.7056,-2.8509,-2.8675,-2.9044,-2.9623,-3.0068,-3.0493,-3.0777,-3.0999,-3.119,-3.1292,-3.1132,0.0,0.0,0.0,0.0,-3.1682,-3.1925,-3.1996,-3.2053,-3.215,-3.2358,-3.2648,-3.2989,-3.3256,-3.3503,-3.3658,-3.405,-3.4497,-3.4643,-3.4899,-3.5088,-3.5245,-3.5412,-3.5577,-3.5577,-3.5905,-3.6208,-3.6259,-3.6533,-3.6816,-3.7031,-3.7301,-3.7596,-3.7915,-3.8018,-3.8219,-3.8596,-3.8676,-3.8701,-3.8778,-3.8807,-3.8818,-3.882,-3.8847,-3.8475,-3.7632,-3.7521,-3.703,-3.6113,-3.6058,-3.6413,-3.7143,-3.7166,-3.7485,-3.8047,-3.8,-3.788,-3.7703,-3.7613,-3.7577,-3.7577,-3.7577,-3.7577,-3.7577,-3.7577,-3.7522,-3.7415,-3.6649,-3.6328,-3.6168,-3.5437,-3.5151,-3.5134,0.0,0.0,0.0,0.0,0.0,0.0,0.0,0.0,0.0,0.0,0.0,0.0,0.0,0.0,0.0,0.0,0.0,0.0,0.0,0.0,0.0,0.0,0.0,0.0,0.0,0.0,0.0,0.0,0.0,-2.2857,-2.4127,-2.4777,-2.58,-2.6989,-2.7485,-2.822,-2.9044,-2.9837,-3.028,-3.0433,0.0,-3.1014,-3.1132,0.0,0.0,0.0,0.0,0.0,-3.1307,-3.164,-3.1868,-3.1996,-3.2038,-3.215,-3.2358,-3.2508,-3.2687,-3.2958,-3.345,-3.3642,-3.3848,-3.4151,-3.4448,-3.4691,-3.4804,-3.5041,-3.5274,-3.5383,-3.5594,-3.58,-3.5905,-3.6216,-3.6468,-3.665,-3.6913,-3.7147,-3.7223,-3.7487,-3.7685,-3.7791,-3.8068,-3.8049,-3.7462,-3.7551,-3.7375,-3.6802,-3.7452,-3.7757,-3.7555,-3.6245,-3.5663,-3.6006,-3.5422,-3.5513,-3.6304,-3.6717,-3.6952,-3.7068,-3.7488,-3.7685,-3.7613,-3.7631,-3.7577,-3.7577,-3.7485,-3.7374,-3.7223,-3.7164,-3.6714,-3.6015,-3.5805,-3.5178,-3.4302,-3.3536,-3.3072,-3.2679,0.0,0.0,0.0,0.0,0.0,0.0,0.0,0.0,0.0,0.0,0.0,0.0,0.0,0.0,0.0,0.0,0.0,0.0,0.0,0.0,0.0,0.0,0.0,0.0,0.0,0.0,0.0,0.0,0.0,0.0,0.0,-2.3815,-2.4577,-2.58,-2.6246,-2.687,-2.7657,-2.8634,0.0,0.0,0.0,0.0,0.0,0.0,0.0,0.0,0.0,-3.0895,-3.1014,-3.1351,-3.1582,-3.1811,-3.1883,-3.1981,-3.2135,-3.2342,-3.2453,-3.2633,-3.3081,-3.3309,-3.3503,-3.3745,-3.405,-3.425,-3.4399,-3.4594,-3.4787,-3.4994,-3.5182,-3.535,-3.5577,-3.5783,-3.6002,-3.6233,-3.6444,-3.6632,-3.6891,-3.7073,-3.7283,-3.7469,-3.7468,-3.7262,-3.6862,-3.6681,-3.6363,-3.5828,-3.6444,-3.6614,-3.6128,-3.5115,-3.454,-3.4425,-3.3944,-3.4069,-3.4929,-3.593,-3.6451,-3.6434,-3.7075,-3.7223,-3.6917,-3.6878,-3.6724,-3.651,-3.6411,-3.6347,-3.6222,-3.587,-3.5383,-3.4812,-3.4168,-3.3516,-3.2819,-3.2083,-3.1635,-3.1331,0.0,0.0,0.0,0.0,0.0,0.0,0.0,0.0,0.0,0.0,0.0,0.0,0.0,0.0,0.0,0.0,0.0,0.0,0.0,0.0,0.0,0.0,0.0,0.0,0.0,0.0,0.0,0.0,0.0,0.0,0.0,0.0,0.0,0.0,0.0,0.0,0.0,0.0,0.0,0.0,0.0,0.0,0.0,0.0,0.0,0.0,-3.0462,-3.0582,-3.0717,-3.0955,-3.1176,-3.1509,-3.1655,-3.1826,-3.1981,-3.2231,-3.2342,-3.2413,-3.2718,-3.2989,-3.324,-3.3398,-3.3607,-3.3848,-3.4,-3.4151,-3.43,-3.4546,-3.4756,-3.493,-3.5195,-3.5316,-3.547,-3.5783,-3.5932,-3.6088,-3.6574,-3.6655,-3.6838,-3.7266,-3.6809,-3.6449,-3.6412,-3.5861,-3.5371,-3.5047,-3.5273,-3.51,-3.4321,-3.4177,-3.3609,-3.2504,-3.2332,-3.2702,-3.3582,-3.5028,-3.5784,-3.5927,-3.6549,-3.6539,-3.595,-3.5847,-3.5548,-3.5107,-3.5107,-3.5057,-3.4877,-3.4275,-3.3907,-3.359,-3.2328,-3.1717,-3.1483,-3.0883,-3.0551,-3.0476,0.0,0.0,0.0,0.0,0.0,0.0,0.0,0.0,0.0,0.0,0.0,0.0,0.0,0.0,0.0,0.0,0.0,0.0,0.0,0.0,0.0,0.0,0.0,0.0,0.0,-1.7821,-1.818,-1.8456,-1.9246,0.0,0.0,0.0,0.0,0.0,0.0,0.0,0.0,0.0,0.0,0.0,0.0,0.0,0.0,0.0,0.0,0.0,-2.9789,-2.9988,-3.0233,-3.0387,-3.0747,-3.119,-3.1205,-3.1409,-3.161,-3.1652,-3.1838,-3.215,-3.2413,-3.2508,-3.2633,-3.2935,-3.3203,-3.345,-3.3555,-3.3797,-3.4,-3.4151,-3.43,-3.4448,-3.448,-3.4802,-3.5068,-3.5161,-3.5453,-3.5694,-3.5783,-3.6002,-3.6216,-3.6333,-3.6003,-3.557,-3.501,-3.4446,-3.3702,-3.2617,-3.2564,-3.3085,-3.4171,-3.3516,-3.3041,-3.2802,-3.2802,-3.3009,-3.3512,-3.408,-3.4518,-3.4878,-3.5246,-3.538,-3.5261,-3.5261,-3.5199,-3.5107,-3.5048,-3.4668,-3.4084,-3.3802,-3.2966,-3.1824,-3.1457,-3.0735,-2.9819,-2.9826,-2.9556,-2.9196,0.0,0.0,0.0,0.0,0.0,0.0,0.0,0.0,0.0,0.0,-1.824,-1.7969,0.0,0.0,0.0,0.0,0.0,0.0,0.0,0.0,0.0,0.0,0.0,0.0,0.0,-1.7996,-1.8439,-1.873,0.0,-2.0068,-2.0903,-2.1181,-2.1797,-2.267,-2.2809,-2.3401,-2.4264,0.0,0.0,-2.5938,-2.6408,-2.7085,0.0,0.0,0.0,0.0,0.0,-2.9526,-2.9449,-2.9837,-2.9747,-2.967,-3.0762,-3.119,-3.1278,-3.1394,-3.1509,-3.1697,-3.1951,-3.2064,-3.2135,-3.2428,-3.2687,-3.285,-3.2996,-3.3224,-3.345,-3.3658,-3.3745,-3.3848,-3.405,-3.4284,-3.4464,-3.461,-3.4913,-3.5148,-3.527,-3.5515,-3.5739,-3.5941,-3.5594,-3.5035,-3.4289,-3.3549,-3.2622,-3.1548,-3.1253,-3.1483,-3.2347,-3.1832,-3.1456,-3.1401,-3.1623,-3.1946,-3.2338,-3.3179,-3.3803,-3.4196,-3.4726,-3.475,-3.4398,-3.4349,-3.417,-3.3953,-3.3935,-3.3482,-3.2773,-3.2321,-3.1518,-3.0523,-3.0124,-2.9605,-2.9106,-2.9167,-2.9029,-2.8858,0.0,0.0,0.0,0.0,0.0,0.0,0.0,-1.9404,-1.8988,-1.7891,-1.7755,-1.7687,-1.756,-1.7001,0.0,0.0,0.0,0.0,0.0,0.0,0.0,0.0,0.0,0.0,0.0,0.0,0.0,-1.9193,-1.943,0.0,0.0,0.0,0.0,0.0,-2.2035,-2.2478,-2.3075,-2.3559,-2.4131,0.0,0.0,-2.5812,0.0,0.0,0.0,0.0,0.0,-2.8817,-2.8597,-2.9008,-2.8661,-2.8312,-2.9917,-3.0553,-3.0807,-3.0911,-3.1102,-3.1292,-3.1567,-3.1625,-3.1682,-3.2023,-3.2176,-3.2287,-3.2492,-3.2633,-3.2881,-3.3081,-3.3187,-3.3293,-3.3658,-3.3694,-3.3781,-3.405,-3.4284,-3.4529,-3.4738,-3.4991,-3.5224,-3.5498,-3.4907,-3.4261,-3.3794,-3.2568,-3.1577,-3.0907,-3.0326,-3.0201,-3.064,-3.0418,-3.0199,-3.0156,-3.0468,-3.0907,-3.1506,-3.2409,-3.3122,-3.3689,-3.4185,-3.4119,-3.3614,-3.3511,-3.3245,-3.2897,-3.2897,-3.2491,-3.1774,-3.1036,-3.0351,-2.9715,-2.9012,-2.87,-2.87,-2.8747,-2.8747,-2.8747,0.0,0.0,0.0,0.0,0.0,0.0,0.0,-1.8839,-1.823,-1.7139,-1.7001,-1.6724,-1.6105,-1.5974,0.0,0.0,0.0,0.0,0.0,0.0,0.0,0.0,0.0,0.0,0.0,0.0,0.0,-1.8748,-1.9353,0.0,0.0,0.0,0.0,0.0,0.0,-2.2101,-2.2252,-2.2617,0.0,0.0,0.0,0.0,0.0,0.0,0.0,0.0,0.0,-2.7417,-2.7617,-2.7683,-2.7802,-2.8051,-2.8247,-2.8876,-2.9642,-2.9628,-3.0358,-3.1132,-3.1292,-3.1336,-3.1394,-3.1682,-3.1739,-3.1853,-3.2191,-3.2358,-3.2508,-3.2656,-3.2812,-3.2951,-3.3005,-3.3049,-3.3177,-3.3346,-3.3471,-3.3646,-3.3933,-3.4151,-3.4349,-3.4594,-3.3266,-3.261,-3.3214,-3.123,-2.9976,-3.0084,-2.9155,-2.915,-3.0534,-3.0452,-3.0452,-3.0616,-3.0493,-3.0962,-3.2138,-3.188,-3.2304,-3.3339,-3.3156,-3.3043,-3.2989,-3.2989,-3.2951,-3.2897,-3.2897,-3.2491,-3.1758,-3.0933,-3.02,-2.9534,-2.8771,-2.846,-2.8444,-2.8589,-2.8636,-2.8636,0.0,0.0,0.0,0.0,0.0,0.0,0.0,-1.8834,-1.7932,-1.6661,-1.6395,-1.5965,-1.5133,-1.5062,-1.5062,0.0,0.0,0.0,0.0,0.0,0.0,0.0,0.0,0.0,0.0,0.0,-1.8536,-1.907,-1.9326,0.0,0.0,0.0,0.0,0.0,0.0,-2.1883,-2.2101,-2.2252,0.0,0.0,0.0,0.0,0.0,0.0,0.0,0.0,0.0,0.0,-2.6102,-2.665,-2.6377,-2.5824,-2.6377,-2.695,-2.7591,-2.8349,-2.9156,-2.967,-2.9642,-2.9842,-3.0101,-3.0072,-3.0495,-3.0866,-3.0955,-3.1507,-3.2007,-3.2064,-3.2191,-3.2388,-3.2484,-3.2413,-3.2453,-3.2742,-3.2749,-3.2826,-3.3177,-3.3439,-3.3646,-3.3815,-3.3269,-3.2802,-3.269,-3.1068,-2.9621,-2.8652,-2.821,-2.835,-2.9011,-2.9134,-2.9241,-2.9316,-2.9464,-3.0046,-3.1112,-3.1227,-3.1754,-3.2633,-3.2578,-3.2539,-3.2484,-3.2484,-3.2539,-3.2578,-3.2484,-3.2153,-3.1495,-3.0674,-2.9945,-2.9269,-2.8461,-2.8152,-2.8168,-2.8201,-2.825,-2.825,0.0,0.0,0.0,0.0,0.0,0.0,-1.9634,-1.8668,-1.7539,-1.6336,-1.5715,-1.5246,-1.4864,-1.48,-1.48,-1.48,0.0,0.0,0.0,0.0,0.0,0.0,0.0,0.0,0.0,0.0,-1.8286,-1.8995,-1.9061,-1.9525,0.0,0.0,-2.0851,-2.1242,0.0,0.0,0.0,0.0,0.0,0.0,0.0,0.0,0.0,0.0,0.0,0.0,0.0,0.0,0.0,0.0,0.0,-2.4334,-2.4945,-2.5346,-2.5812,-2.7031,-2.7973,-2.8597,-2.857,-2.8776,-2.8967,-2.9079,-2.958,-3.0072,-3.0104,-3.0866,-3.1567,-3.1567,-3.1739,-3.1853,-3.1966,-3.1853,-3.1868,0.0,-3.2033,-3.213,-3.2422,-3.2625,-3.2718,-3.2687,-3.2623,-3.232,-3.1582,-3.0327,-2.9199,-2.8278,-2.775,-2.7739,-2.8267,-2.8152,-2.8152,-2.8411,-2.8776,-2.9412,-3.0314,-3.0825,-3.1402,-3.215,-3.2247,-3.2247,-3.215,-3.215,-3.2191,-3.2302,-3.2191,-3.1931,-3.1535,-3.0769,-3.0044,-2.9373,-2.8617,-2.8187,-2.802,-2.802,-2.802,-2.802,0.0,0.0,0.0,0.0,0.0,0.0,0.0,-1.8064,-1.69,-1.5913,-1.5082,-1.4776,-1.5141,-1.5181,-1.5181,-1.5181,0.0,0.0,0.0,0.0,0.0,0.0,0.0,0.0,0.0,0.0,-1.7779,-1.8415,-1.8627,-1.8775,-1.9033,-1.9801,-2.0382,-2.0666,0.0,0.0,0.0,0.0,0.0,0.0,0.0,0.0,0.0,0.0,0.0,0.0,0.0,0.0,0.0,0.0,0.0,0.0,0.0,-2.42,0.0,-2.5742,-2.7031,-2.8117,-2.8661,-2.839,-2.8247,-2.9107,-2.9407,-2.9566,-2.995,-3.0703,-3.1278,-3.1278,-3.1437,-3.148,-3.148,-3.1394,-3.1336,-3.1495,-3.1394,-3.1394,-3.1667,-3.1724,-3.1522,-3.0984,-3.0795,-3.0476,-2.9822,-2.8604,-2.8411,-2.9479,-2.781,-2.7394,-2.9009,-2.7874,-2.759,-2.8348,-2.8808,-2.9413,-3.0173,-3.0754,-3.1329,-3.1996,-3.1981,-3.1981,-3.1996,-3.1996,-3.1996,-3.1981,-3.1996,-3.1981,-3.1921,-3.1268,-3.06,-2.9932,-2.9249,-2.8596,-2.802,-2.802,-2.802,-2.802,0.0,0.0,0.0,0.0,0.0,0.0,0.0,-1.8267,-1.7183,-1.6654,-1.5875,-1.5396,-1.5507,-1.5523,-1.5427,-1.5205,0.0,0.0,0.0,0.0,0.0,0.0,0.0,0.0,0.0,0.0,-1.7364,-1.7996,-1.8203,-1.8562,-1.9014,-1.9424,-1.9861,-2.0372,-2.0692,-2.1151,0.0,0.0,0.0,0.0,0.0,0.0,-2.3001,0.0,0.0,0.0,0.0,0.0,0.0,0.0,0.0,0.0,0.0,0.0,0.0,-2.4288,-2.5334,-2.6364,-2.6227,-2.6514,-2.6947,-2.6947,-2.7324,-2.7762,-2.7894,-2.8593,-2.9289,-2.9628,-3.0043,-3.036,-3.0524,-3.0613,-3.0613,-3.0539,-3.0312,-3.0266,-3.0539,-3.0763,-3.0629,-3.0043,-2.96,-2.9069,-2.8443,-2.8036,-2.7927,-2.8088,-2.723,-2.7172,-2.8197,-2.7578,-2.7307,-2.7554,-2.8114,-2.8717,-2.9426,-3.0056,-3.0726,-3.1366,-3.1467,-3.1524,-3.1524,-3.1524,-3.1567,-3.1667,-3.1567,-3.164,-3.1751,-3.096,-3.0624,-3.0446,-2.9185,-2.8509,-2.8218,-2.7769,-2.7554,-2.7437,0.0,0.0,0.0,0.0,0.0,0.0,0.0,-1.8494,-1.7631,-1.7153,-1.6439,-1.5952,-1.5864,-1.5872,-1.5793,-1.5586,0.0,0.0,0.0,0.0,0.0,0.0,0.0,0.0,0.0,-1.6908,-1.7097,-1.7426,-1.7628,-1.7972,-1.8462,-1.8769,-1.935,-1.9974,-2.0302,-2.0858,0.0,0.0,0.0,0.0,0.0,0.0,-2.2852,0.0,0.0,0.0,0.0,0.0,0.0,0.0,0.0,0.0,0.0,0.0,0.0,0.0,-2.3863,-2.4636,-2.4933,-2.53,-2.5594,-2.5664,-2.6114,-2.6637,-2.6637,-2.7432,-2.822,-2.8556,-2.8707,-2.8947,-2.9268,-2.9115,-2.9024,-2.9052,-2.9016,-2.9016,-2.9052,-2.9442,-2.9566,-2.9052,-2.8271,-2.7734,-2.7773,-2.7431,-2.7319,-2.7619,-2.7006,-2.6976,-2.7925,-2.7481,-2.7187,-2.7245,-2.8196,-2.8846,-2.9298,-3.0087,-3.0689,-3.1087,-3.1176,-3.1234,-3.1234,-3.1234,-3.1292,-3.1336,-3.1234,-3.1351,0.0,-3.0947,-3.0648,-3.0462,-2.9545,-2.8812,-2.8254,-2.7802,-2.7491,-2.7181,0.0,0.0,0.0,0.0,0.0,0.0,0.0,0.0,0.0,0.0,-1.6807,-1.6338,-1.6206,-1.6246,-1.623,0.0,0.0,0.0,0.0,0.0,0.0,0.0,0.0,0.0,0.0,-1.6908,-1.6908,-1.6908,-1.7107,-1.7314,-1.748,-1.8088,-1.8776,-1.9538,-1.9964,-2.0657,0.0,0.0,0.0,0.0,0.0,0.0,0.0,0.0,0.0,0.0,0.0,0.0,0.0,0.0,0.0,0.0,0.0,0.0,0.0,0.0,0.0,0.0,0.0,-2.4527,-2.4322,-2.5063,-2.5603,-2.6008,-2.6133,-2.695,0.0,-2.7789,-2.7485,-2.7392,-2.7776,-2.7246,-2.6873,-2.718,-2.7499,-2.7631,-2.7313,-2.7802,-2.822,-2.8063,-2.6854,-2.6471,-2.7432,-2.6672,-2.6594,-2.7815,-2.6947,-2.6883,-2.7989,-2.7426,-2.7184,-2.7432,-2.8779,-2.9478,-2.9507,-3.0514,-3.1014,-3.1014,-3.1014,-3.1014,-3.1028,-3.1073,-3.1073,-3.1014,-3.1087,-3.1073,-3.1087,-3.1087,-3.0734,-3.0188,-3.0129,-2.9307,-2.8218,-2.8115,-2.7703,-2.724,0.0,0.0,0.0,0.0,0.0,0.0,0.0,0.0,0.0,0.0,0.0,-1.6597,-1.6595,-1.6611,0.0,0.0,0.0,0.0,0.0,0.0,0.0,0.0,0.0,0.0,0.0,-1.6908,-1.6908,-1.6908,-1.7107,-1.7235,-1.7245,-1.7684,-1.818,-1.8686,-1.9383,-2.0376,0.0,0.0,0.0,0.0,0.0,0.0,0.0,0.0,0.0,0.0,-2.2628,-2.2628,0.0,0.0,0.0,0.0,0.0,0.0,0.0,0.0,-2.2478,-2.2628,-2.2916,0.0,-2.4043,-2.4177,-2.4455,-2.4659,0.0,-2.4874,-2.5217,-2.5615,-2.58,-2.5995,-2.6283,-2.6233,-2.614,-2.5983,-2.5901,-2.5832,-2.5914,-2.5869,-2.5938,-2.6314,-2.5463,-2.5229,-2.5988,-2.5901,-2.614,-2.7149,-2.6582,-2.6635,-2.7617,-2.7061,-2.7006,-2.7677,-2.8261,-2.8678,-2.8828,-2.9586,-2.9974,-2.9974,-2.9974,-2.9974,-2.9974,-3.0613,-3.0687,-3.0355,-3.0999,-3.1117,-3.0895,-3.0895,-3.0866,-3.0807,-3.0306,-2.9866,-2.9342,-2.833,-2.7769,-2.754,0.0,0.0,0.0,0.0,0.0,0.0,0.0,0.0,0.0,0.0,0.0,0.0,0.0,0.0,0.0,0.0,0.0,0.0,0.0,0.0,0.0,0.0,0.0,0.0,-1.6621,-1.6839,-1.6908,-1.6908,-1.7038,-1.7107,-1.7166,-1.7373,-1.7817,-1.8418,-1.9442,0.0,0.0,0.0,0.0,0.0,-2.1807,0.0,0.0,0.0,0.0,0.0,-2.2478,-2.2478,0.0,-2.2402,-2.2327,-2.2252,0.0,0.0,0.0,0.0,-2.2101,-2.2101,-2.2101,-2.2628,-2.3224,-2.3224,-2.3446,-2.3677,-2.3677,-2.3897,-2.4116,-2.4455,-2.4504,-2.4552,-2.485,-2.4589,-2.435,-2.4241,-2.4313,-2.4517,-2.4672,-2.4325,-2.4192,-2.4612,-2.4215,-2.4166,-2.4754,-2.5028,-2.5511,-2.6289,-2.6219,-2.6464,-2.7255,-2.6891,-2.6932,-2.7577,-2.8039,-2.8397,-2.8588,-2.9108,-2.9401,-2.9449,-2.9449,-2.9637,-3.0007,-3.0478,-3.0718,-3.0747,-3.0911,-3.0851,-3.0673,-3.0522,-3.0462,-3.0372,-3.016,-2.99,-2.9479,-2.8712,-2.8161,-2.7679,0.0,0.0,0.0,0.0,0.0,0.0,0.0,0.0,0.0,0.0,0.0,0.0,0.0,0.0,0.0,0.0,0.0,0.0,0.0,0.0,0.0,0.0,0.0,-1.6272,-1.6272,-1.6691,-1.6908,-1.6908,-1.6908,-1.6968,-1.7166,-1.7166,-1.7637,-1.8514,-1.9576,-2.0401,0.0,0.0,-2.1282,-2.1425,-2.1425,0.0,0.0,0.0,0.0,0.0,0.0,0.0,0.0,-2.2327,-2.2176,-2.2025,-2.2025,0.0,0.0,0.0,0.0,0.0,-2.1731,-2.1959,-2.2252,-2.2327,-2.2628,-2.2852,-2.2927,-2.3298,-2.3666,-2.3666,-2.3372,-2.3298,-2.3593,-2.2927,-2.2327,-2.2478,-2.2894,-2.3231,-2.3452,-2.3095,-2.2905,-2.3075,-2.315,-2.3298,-2.3751,-2.4227,-2.4731,-2.5312,-2.5804,-2.6233,-2.6739,-2.6658,-2.6794,-2.7134,-2.7842,-2.8235,-2.8327,-2.883,-2.9085,-2.9121,-2.9121,-2.9484,-3.0147,-3.0389,-3.0748,-3.1248,-3.0881,-3.0644,-3.0464,-3.0266,-2.9913,-2.9602,-2.9927,-2.9647,-2.9149,-2.9049,-2.8469,-2.7674,0.0,0.0,0.0,0.0,0.0,0.0,0.0,0.0,0.0,0.0,0.0,0.0,0.0,0.0,0.0,0.0,0.0,0.0,0.0,0.0,0.0,0.0,-1.5488,-1.5982,-1.6272,-1.6691,-1.6908,-1.6908,-1.6908,-1.6908,-1.6978,-1.7097,-1.7797,-1.8918,-1.9253,-1.9984,-2.0906,-2.0906,-2.1061,-2.1282,-2.1282,0.0,0.0,0.0,0.0,0.0,0.0,0.0,0.0,-2.1959,-2.1731,-2.1578,-2.1578,0.0,0.0,0.0,0.0,0.0,-2.1282,-2.1359,-2.1512,-2.2025,-2.2176,-2.2252,-2.2478,-2.2553,-2.2628,-2.2628,-2.2553,-2.2553,-2.2628,-2.2262,-2.1883,-2.1731,-2.1721,-2.1797,-2.1873,-2.2101,-2.2252,-2.2252,-2.2252,-2.2478,-2.3075,-2.3372,-2.3801,-2.4371,-2.4862,-2.53,-2.5523,-2.605,-2.6396,-2.6564,-2.7443,-2.7656,-2.7214,-2.83,-2.8688,-2.8262,-2.8262,-2.8327,-2.8509,-2.9875,-3.0315,-3.0115,-3.1422,-3.1407,-3.0524,-3.0478,-3.0129,-2.9602,-2.9665,-2.9608,-2.9454,-2.8904,-2.8257,-2.7554,0.0,0.0,0.0,0.0,0.0,0.0,0.0,0.0,0.0,0.0,0.0,0.0,0.0,0.0,0.0,0.0,0.0,0.0,0.0,0.0,0.0,-1.4601,-1.5133,-1.5621,-1.6053,-1.6621,-1.6908,-1.6908,-1.6908,-1.6908,-1.6908,-1.7107,-1.7703,-1.8524,-1.8971,-1.9564,-2.0397,-2.0633,-2.0819,-2.1061,0.0,0.0,0.0,0.0,0.0,0.0,0.0,0.0,0.0,0.0,-2.1436,-2.1359,-2.1359,0.0,0.0,0.0,0.0,0.0,-2.1205,-2.1128,-2.1138,-2.1512,-2.1578,-2.1655,-2.1731,-2.1807,-2.1873,-2.1873,-2.1873,-2.1873,-2.1873,-2.1655,-2.1436,-2.1359,-2.1195,-2.1041,-2.1128,-2.1272,-2.1339,-2.1578,-2.1578,-2.1883,-2.2478,-2.2927,-2.3372,-2.3801,-2.4311,-2.4743,-2.5241,-2.5453,-2.5746,-2.6094,-2.6892,-2.7095,-2.6645,-2.7999,-2.8274,-2.7683,-2.7683,-2.8105,-2.9044,-2.9737,-3.0421,-3.1014,-3.148,-3.1175,-3.0358,-3.0269,-2.9794,-2.9099,-2.9289,-2.9352,-2.9282,-2.875,-2.8194,-2.7591,0.0,0.0,0.0,0.0,0.0,0.0,0.0,0.0,0.0,0.0,0.0,0.0,0.0,0.0,0.0,0.0,0.0,0.0,0.0,0.0,-1.5491,-1.48,-1.5121,-1.5501,-1.5762,-1.6412,-1.6839,-1.6908,-1.6908,-1.6908,-1.6908,-1.7107,-1.753,-1.8095,-1.8739,-1.9309,-1.9941,-2.0381,-2.0654,-2.0819,0.0,0.0,0.0,0.0,0.0,0.0,0.0,0.0,0.0,0.0,0.0,0.0,0.0,0.0,0.0,-2.0974,-2.0974,-2.0974,-2.0896,-2.0819,-2.0664,-2.0896,-2.0974,-2.1041,-2.1118,-2.1195,-2.1272,-2.1272,-2.1272,-2.1272,-2.1272,-2.1041,-2.0886,-2.0886,-2.0644,-2.0489,-2.0741,-2.0654,-2.0731,-2.1051,-2.1128,-2.1436,-2.1883,-2.2478,-2.3001,-2.3298,-2.3751,-2.4322,-2.5028,-2.5146,-2.5441,-2.6037,-2.6744,-2.6934,-2.6633,-2.7789,-2.7999,-2.7469,-2.7669,-2.8417,-2.9656,-2.9799,-3.054,-3.1625,-3.148,-3.1014,-3.0433,-3.0147,-2.9484,-2.8716,-2.8844,-2.8844,-2.8826,-2.8443,-2.8038,-2.7561,0.0,0.0,0.0,0.0,0.0,0.0,0.0,0.0,0.0,0.0,0.0,0.0,0.0,0.0,0.0,0.0,0.0,0.0,0.0,0.0,-1.5864,-1.5173,-1.5495,-1.5696,-1.5771,-1.6123,-1.656,-1.6908,-1.6908,-1.6908,-1.6908,-1.7107,-1.753,-1.8095,-1.8739,-1.9309,-1.9941,-2.0381,-2.0644,-2.0644,-2.0644,0.0,0.0,0.0,0.0,0.0,0.0,0.0,0.0,0.0,0.0,0.0,0.0,0.0,-2.0644,-2.042,-2.0342,-2.0342,-2.002,-1.9942,-1.9942,-2.002,-2.0333,-2.0722,-2.0867,-2.0789,-2.0644,-2.0644,-2.0644,-2.0644,-2.0644,-2.0333,-2.002,-2.002,-1.9942,-2.002,-2.0342,-2.0498,-2.0654,-2.0906,-2.1061,-2.1282,-2.1512,-2.2111,-2.2478,-2.2478,-2.3224,-2.3824,-2.4261,-2.5217,-2.5906,-2.6346,-2.7204,-2.755,-2.739,-2.7617,-2.7815,-2.7973,-2.8638,-2.9035,-2.9149,-3.004,-3.051,-3.0644,-3.1552,-3.1567,-3.0911,-3.0269,-2.9608,-2.8972,-2.8406,-2.8145,-2.8143,-2.7642,-2.7449,-2.7328,0.0,0.0,0.0,0.0,0.0,0.0,0.0,0.0,0.0,0.0,0.0,0.0,0.0,0.0,0.0,0.0,0.0,0.0,0.0,0.0,-1.5801,-1.4887,-1.5201,-1.5373,-1.5417,-1.6002,-1.6297,-1.6193,-1.6412,-1.6621,-1.6908,-1.6968,-1.719,-1.7567,-1.8195,-1.8768,-1.9412,-1.9905,-2.0312,-2.0566,-2.0566,-2.0644,0.0,0.0,0.0,0.0,0.0,0.0,0.0,0.0,-2.0809,-2.0654,0.0,-2.0498,-2.0342,-2.0108,-2.002,-1.9942,-1.9618,-1.9548,-1.946,-1.9222,-1.9134,-1.9371,-2.0089,-2.0255,-2.0089,-1.9854,-2.002,-2.0098,-1.9854,-1.9863,-1.9784,-1.9548,-1.9706,-1.9942,-2.002,-2.0264,-2.0498,-2.0654,-2.0974,-2.1282,-2.1502,-2.1949,-2.2252,-2.2402,-2.2777,-2.3434,-2.4443,-2.4921,-2.5487,-2.6346,-2.6824,-2.7108,-2.7175,-2.7762,-2.8157,-2.8379,-2.8417,-2.8675,-2.9261,-2.9808,-3.0358,-3.0925,-3.1452,-3.1321,-3.0732,-3.0658,-2.9993,-2.9035,-2.8341,-2.8079,-2.8052,-2.7891,-2.7571,-2.7277,0.0,0.0,0.0,0.0,0.0,0.0,0.0,0.0,0.0,0.0,0.0,0.0,0.0,0.0,0.0,0.0,0.0,0.0,0.0,-1.6134,-1.5833,-1.5006,-1.511,-1.5161,-1.4999,-1.564,-1.5931,-1.5833,-1.6132,-1.6412,-1.6691,-1.6839,-1.7038,-1.7254,-1.7755,-1.8318,-1.8851,-1.9538,-2.0022,-2.0371,-2.0508,-2.0566,0.0,0.0,0.0,0.0,0.0,0.0,0.0,0.0,-2.0566,0.0,0.0,0.0,0.0,-1.9872,-1.9715,-1.9548,-1.9231,-1.8984,-1.8825,-1.8585,-1.8345,-1.8425,-1.9143,-1.9311,-1.9222,-1.8984,-1.9143,-1.9231,-1.9152,-1.9311,-1.9469,-1.9301,-1.9539,-1.9706,-1.9794,-1.9951,-2.0186,-2.0489,-2.0886,-2.1195,-2.1359,-2.1807,-2.2176,-2.2402,-2.2553,-2.3276,-2.4636,-2.485,-2.5487,-2.6633,-2.685,-2.7108,-2.743,-2.7894,-2.8314,-2.8587,-2.8417,-2.8725,-2.9387,-2.9685,-3.019,-3.0881,-3.1087,-3.1029,-3.0762,-3.0732,-2.9993,-2.8766,-2.8131,-2.7881,-2.7947,-2.8,-2.7748,-2.7468,0.0,0.0,0.0,0.0,0.0,0.0,0.0,0.0,0.0,0.0,0.0,0.0,0.0,0.0,0.0,0.0,0.0,0.0,0.0,-1.6397,-1.6047,-1.569,-1.5364,-1.5014,-1.4577,-1.499,-1.5365,-1.5762,-1.6132,-1.6272,-1.6281,-1.67,-1.6968,-1.7185,-1.7614,-1.8024,-1.8447,-1.9283,-1.9781,-1.9951,-2.0391,-2.0566,-2.0566,0.0,0.0,0.0,0.0,0.0,0.0,0.0,-2.0566,-2.0566,0.0,0.0,0.0,-1.9724,-1.932,-1.8922,-1.8772,-1.8371,-1.7951,-1.7959,-1.7959,-1.7959,-1.7959,-1.7951,-1.804,-1.804,-1.804,-1.8121,-1.8612,-1.87,-1.8851,-1.9222,-1.9301,-1.939,-1.9557,-1.9566,-1.9794,-2.0264,-2.0634,-2.0954,-2.1205,-2.1731,-2.2176,-2.2402,-2.2553,-2.3276,-2.4636,-2.5181,-2.6032,-2.7268,-2.7403,-2.7789,-2.8287,-2.7973,-2.8052,-2.8587,-2.8908,-2.9289,-2.9602,-2.9761,-3.0007,-3.0312,-3.0507,-3.0762,-3.1073,-3.0387,-2.9373,-2.8222,-2.759,-2.7403,-2.7523,-2.7723,-2.7776,-2.7776,0.0,0.0,0.0,0.0,0.0,0.0,0.0,0.0,0.0,0.0,0.0,0.0,0.0,0.0,0.0,0.0,0.0,0.0,0.0,-1.5958,-1.5717,-1.5114,-1.5239,-1.5111,-1.4585,-1.4744,-1.5082,-1.573,-1.5614,-1.5771,-1.6272,-1.6412,-1.6691,-1.6978,-1.7237,-1.7661,-1.8266,-1.8893,-1.9509,-1.9951,-2.0391,-2.0566,-2.0566,0.0,0.0,0.0,0.0,0.0,0.0,0.0,0.0,0.0,0.0,0.0,0.0,-1.9091,-1.8851,-1.8612,-1.7789,-1.7554,-1.7473,-1.6976,-1.6976,-1.7057,-1.6886,-1.7465,-1.804,-1.804,-1.7797,-1.7635,-1.7797,-1.8049,-1.8282,-1.8353,-1.8683,-1.9002,-1.9311,-1.9478,-1.9715,-2.0029,-2.0557,-2.0954,-2.1205,-2.1655,-2.1959,-2.2176,-2.2402,-2.2979,-2.4047,-2.4921,-2.5779,-2.6633,-2.7456,-2.8,-2.8131,-2.8262,-2.8457,-2.8587,-2.8716,-2.8908,-2.9289,-2.954,-2.9851,-3.0158,-3.0326,-3.0568,-3.0821,-3.0312,-2.9608,-2.8698,-2.8026,-2.7523,-2.7146,-2.7214,-2.7089,-2.6804,0.0,0.0,0.0,0.0,0.0,0.0,0.0,0.0,0.0,0.0,0.0,0.0,0.0,0.0,0.0,0.0,0.0,0.0,0.0,0.0,-1.5358,-1.4934,-1.4988,-1.4922,-1.4513,-1.4497,-1.4744,-1.5243,-1.524,-1.5417,-1.585,-1.6132,-1.6421,-1.6691,-1.6968,-1.7306,-1.7788,-1.8428,-1.8912,-1.9474,-2.0061,-2.041,-2.0489,0.0,0.0,0.0,0.0,0.0,0.0,0.0,0.0,0.0,-1.9872,0.0,0.0,-1.886,-1.8451,-1.8049,-1.7383,-1.7147,-1.6984,-1.6648,-1.6566,-1.6566,-1.6319,-1.6812,-1.7383,-1.7383,-1.7221,-1.7147,-1.7392,-1.7635,-1.7797,-1.7951,-1.8371,-1.8772,-1.9002,-1.9311,-1.9557,-1.9863,-2.0333,-2.0799,-2.1051,-2.1436,-2.1731,-2.1959,-2.2252,-2.283,-2.3745,-2.442,-2.5288,-2.6358,-2.7175,-2.7656,-2.8,-2.8276,-2.8457,-2.8509,-2.8509,-2.8651,-2.8908,-2.9099,-2.9415,-2.9741,-3.0097,-3.0387,-3.0702,-3.0129,-2.967,-2.9205,-2.8287,-2.7723,-2.731,-2.6835,-2.6539,-2.6271,0.0,0.0,0.0,0.0,0.0,0.0,0.0,0.0,0.0,0.0,0.0,0.0,0.0,0.0,0.0,0.0,0.0,0.0,0.0,0.0,-1.5042,-1.5072,-1.4752,-1.4556,-1.4361,-1.4425,-1.4425,-1.4569,-1.4991,-1.5133,-1.5196,-1.5921,-1.6202,-1.6272,-1.6691,-1.6968,-1.7194,-1.7826,-1.8294,-1.8746,-1.9502,-2.0004,-2.0285,-2.0479,0.0,0.0,0.0,0.0,0.0,0.0,0.0,0.0,-1.9715,-1.924,-1.8922,-1.8692,-1.8049,-1.74,-1.731,-1.6984,-1.6648,-1.6648,-1.6484,-1.6319,-1.6087,-1.6237,-1.6312,-1.6394,-1.6566,-1.6812,-1.7229,-1.731,-1.7473,-1.7878,-1.8282,-1.862,-1.87,-1.9002,-1.946,-1.9863,-2.0177,-2.0508,-2.0829,-2.1282,-2.1578,-2.1731,-2.2176,-2.2756,-2.361,-2.3963,-2.4767,-2.6139,-2.6539,-2.7015,-2.7709,-2.8,-2.8131,-2.83,-2.83,-2.8365,-2.8587,-2.8587,-2.878,-2.9162,-2.9803,-3.028,-3.0507,-2.9931,-2.9685,-2.9546,-2.8352,-2.7842,-2.771,-2.6568,-2.614,-2.6024,0.0,0.0,0.0,0.0,0.0,0.0,0.0,0.0,0.0,0.0,0.0,0.0,0.0,0.0,0.0,0.0,0.0,0.0,0.0,0.0,-1.4584,-1.4762,-1.4676,-1.4556,-1.4361,-1.4425,-1.4425,-1.4425,-1.4641,-1.4919,-1.5204,-1.5346,-1.563,-1.5903,-1.6272,-1.6542,-1.6778,-1.7543,-1.799,-1.8275,-1.9098,-1.9611,-1.9898,-2.0217,-2.0489,0.0,0.0,0.0,0.0,0.0,0.0,0.0,-1.924,-1.8931,-1.8612,-1.7878,-1.7554,-1.731,-1.673,-1.6558,-1.6402,-1.6245,-1.6079,-1.5816,-1.5824,-1.5824,-1.5982,-1.6312,-1.6394,-1.6558,-1.6812,-1.682,-1.6984,-1.7473,-1.7635,-1.7887,-1.8612,-1.8922,-1.9231,-1.9863,-2.0255,-2.0654,-2.0906,-2.1282,-2.1512,-2.1578,-2.2101,-2.2478,-2.2681,-2.3621,-2.4253,-2.4612,-2.5963,-2.6812,-2.6947,-2.7723,-2.8079,-2.8131,-2.8131,-2.8197,-2.8365,-2.8522,-2.878,-2.9162,-2.9803,-3.0111,-3.0233,-3.0341,-2.9732,-2.8762,-2.8441,-2.7749,-2.6718,-2.6013,-2.5545,-2.5166,0.0,0.0,0.0,0.0,0.0,0.0,0.0,0.0,0.0,0.0,0.0,0.0,0.0,0.0,0.0,0.0,0.0,0.0,0.0,0.0,0.0,-1.4621,-1.4605,-1.4434,-1.4289,-1.4281,-1.4353,-1.4497,-1.4569,-1.4713,-1.4919,-1.5133,-1.5338,-1.5551,-1.6053,-1.6342,-1.6491,-1.7199,-1.7614,-1.79,-1.8477,-1.8853,-1.9155,-1.965,-1.9889,-1.9985,-2.011,0.0,0.0,0.0,0.0,0.0,0.0,0.0,-1.7968,-1.7554,-1.7147,-1.6812,-1.6476,-1.6319,-1.6245,-1.5997,-1.5824,-1.565,-1.5582,-1.5582,-1.5665,-1.5982,-1.6229,-1.6394,-1.6558,-1.6648,-1.682,-1.7066,-1.7229,-1.7635,-1.829,-1.8763,-1.924,-1.9863,-2.0255,-2.0576,-2.0741,-2.1118,-2.1359,-2.1359,-2.2025,-2.2402,-2.2402,-2.3128,-2.3768,-2.412,-2.5334,-2.6195,-2.6539,-2.739,-2.7868,-2.7934,-2.7934,-2.8052,-2.8287,-2.8509,-2.878,-2.9099,-2.9477,-2.9741,-2.9851,-3.0036,-2.956,-2.8648,-2.8376,-2.7499,-2.6378,-2.5489,-2.4947,-2.4469,0.0,0.0,0.0,0.0,0.0,0.0,0.0,0.0,0.0,0.0,0.0,0.0,0.0,0.0,0.0,0.0,0.0,0.0,0.0,0.0,0.0,0.0,-1.4355,-1.4251,-1.4,-1.3985,-1.4209,-1.4489,-1.4569,-1.4569,-1.4641,-1.4919,-1.5133,-1.5133,-1.5912,-1.6202,-1.6272,-1.689,-1.7223,-1.7403,-1.7834,-1.814,-1.8341,-1.8911,-1.9193,-1.9373,-1.9637,-1.9806,-1.9794,-1.9161,0.0,0.0,0.0,0.0,-1.7392,-1.7229,-1.6812,-1.6394,-1.6402,-1.6154,-1.6004,-1.5741,-1.5658,-1.5575,-1.5423,-1.5431,-1.5423,-1.5658,-1.6064,-1.6402,-1.6394,-1.6566,-1.6738,-1.6812,-1.7147,-1.7554,-1.804,-1.8683,-1.9231,-1.9863,-2.0186,-2.042,-2.0566,-2.0964,-2.1205,-2.1205,-2.1959,-2.2402,-2.2402,-2.2777,-2.3202,-2.3902,-2.4647,-2.5358,-2.5988,-2.6892,-2.731,-2.7364,-2.7497,-2.7842,-2.83,-2.8392,-2.8651,-2.9035,-2.9099,-2.9289,-2.9477,-2.9477,-2.9135,-2.8532,-2.7986,-2.7118,-2.6063,-2.5073,-2.4405,-2.3854,0.0,0.0,0.0,0.0,0.0,0.0,0.0,0.0,0.0,0.0,0.0,0.0,0.0,0.0,0.0,0.0,0.0,0.0,-1.3202,0.0,0.0,-1.341,-1.3661,-1.3722,-1.3572,-1.3564,-1.3783,-1.4201,-1.4353,-1.4497,-1.4569,-1.4641,-1.4713,-1.4705,-1.548,-1.5833,-1.5903,-1.6621,-1.6936,-1.7018,-1.7429,-1.7675,-1.7931,-1.8341,-1.8864,-1.9259,-1.9154,-1.9319,-1.9557,-1.8931,-1.8772,0.0,0.0,0.0,-1.731,-1.673,-1.6476,-1.6402,-1.6162,-1.5914,-1.5741,-1.5506,-1.5423,-1.5423,-1.5431,-1.5431,-1.5423,-1.5658,-1.5906,-1.6162,-1.6394,-1.6566,-1.6812,-1.7229,-1.7392,-1.7716,-1.8451,-1.8993,-1.939,-1.9863,-2.0255,-2.0566,-2.0566,-2.0964,-2.1205,-2.1205,-2.1959,-2.2402,-2.2402,-2.2628,-2.2852,-2.3139,-2.3694,-2.4108,-2.4397,-2.5836,-2.6208,-2.5652,-2.6471,-2.7297,-2.8145,-2.7802,-2.8,-2.8651,-2.8972,-2.9099,-2.9162,-2.9008,-2.8468,-2.7802,-2.7258,-2.6346,-2.5227,-2.4747,-2.4137,-2.3541,0.0,0.0,0.0,0.0,0.0,0.0,0.0,0.0,0.0,0.0,0.0,0.0,0.0,0.0,0.0,-1.3361,-1.3577,-1.3614,-1.3398,-1.3636,-1.3585,-1.318,-1.3518,-1.3597,-1.3353,-1.3564,-1.3717,-1.3928,-1.4137,-1.4274,-1.4346,-1.4346,-1.4418,-1.4641,-1.5204,-1.5621,-1.5833,-1.6342,-1.6691,-1.6927,-1.7092,-1.7245,-1.7361,-1.7759,-1.8091,-1.8313,-1.8692,-1.8979,-1.9095,-1.878,-1.8531,-1.821,-1.7554,0.0,0.0,0.0,-1.6229,-1.5989,-1.5756,-1.559,-1.5506,-1.5431,-1.5431,-1.5431,-1.5431,-1.5431,-1.5423,-1.5658,-1.5914,-1.617,-1.6394,-1.6566,-1.6812,-1.731,-1.7392,-1.7716,-1.862,-1.9082,-1.946,-1.9863,-2.0333,-2.0644,-2.0741,-2.1051,-2.1282,-2.1359,-2.1883,-2.2252,-2.2252,-2.2402,-2.2628,-2.2852,-2.3475,-2.3891,-2.4108,-2.5205,-2.5791,-2.5931,-2.6346,-2.6905,-2.7683,-2.7802,-2.8145,-2.8587,-2.8105,-2.8105,-2.8314,-2.796,-2.7417,-2.6786,-2.6333,-2.549,-2.4438,-2.4094,-2.3552,-2.3009,0.0,0.0,0.0,0.0,0.0,0.0,0.0,0.0,0.0,0.0,0.0,0.0,0.0,0.0,0.0,0.0,-1.2784,-1.2911,-1.283,-1.3087,-1.3093,-1.2576,-1.3092,-1.3287,-1.3053,-1.3346,-1.3572,-1.3797,-1.3928,-1.3985,-1.4129,-1.3905,-1.3985,-1.4353,-1.4848,-1.5267,-1.5621,-1.5982,-1.6482,-1.6908,-1.6769,-1.6839,-1.6936,-1.7229,-1.7413,-1.7578,-1.8183,-1.854,-1.8683,-1.8434,-1.8204,-1.7878,-1.7392,-1.6894,0.0,0.0,0.0,-1.5575,-1.5423,-1.5431,-1.5431,-1.5431,-1.5431,-1.5431,-1.5431,-1.5431,-1.5423,-1.5658,-1.5914,-1.617,-1.6394,-1.6566,-1.6812,-1.731,-1.7473,-1.7797,-1.862,-1.9161,-1.9539,-1.9863,-2.0333,-2.0654,-2.0819,-2.1051,-2.1282,-2.1436,-2.1807,-2.2101,-2.2101,-2.2327,-2.2478,-2.2703,-2.3254,-2.361,-2.3841,-2.4432,-2.5229,-2.6139,-2.5918,-2.6195,-2.6824,-2.7108,-2.7497,-2.8039,-2.7443,-2.7377,-2.7577,-2.704,-2.6564,-2.6102,-2.5542,-2.4743,-2.3886,-2.3558,-2.3082,-2.2567,0.0,0.0,0.0,0.0,0.0,0.0,0.0,0.0,0.0,0.0,0.0,0.0,0.0,-1.2097,-1.169,-1.0634,-1.079,-1.084,-1.0539,-1.093,-1.1234,-1.121,-1.1955,0.0,-1.2599,-1.2673,-1.3046,-1.3797,-1.3645,-1.371,-1.4057,-1.331,-1.3171,-1.3564,-1.4482,-1.4903,-1.4974,-1.5551,-1.6263,-1.6839,-1.6482,-1.6551,-1.6908,-1.6927,-1.7165,-1.7504,-1.7541,-1.8054,-1.8561,-1.7709,-1.7723,-1.7878,-1.6976,-1.673,-1.6566,0.0,0.0,0.0,-1.5431,-1.5431,-1.5431,-1.5431,-1.5431,-1.5431,-1.5431,-1.5431,-1.5423,-1.5658,-1.5914,-1.617,-1.6394,-1.6566,-1.6812,-1.731,-1.7716,-1.8121,-1.862,-1.9399,-1.9863,-1.9863,-2.0333,-2.0566,-2.0644,-2.0964,-2.1205,-2.1205,-2.1731,-2.2101,-2.2101,-2.2327,-2.2478,-2.2703,-2.2777,-2.2841,-2.3075,-2.3075,-2.3863,-2.5382,-2.4552,-2.4672,-2.5603,-2.5122,-2.5475,-2.6582,-2.743,-2.751,-2.6973,-2.6427,-2.6233,-2.6102,-2.4998,-2.4285,-2.3767,-2.3353,-2.2832,-2.2247,0.0,0.0,0.0,0.0,0.0,0.0,0.0,0.0,0.0,0.0,0.0,0.0,0.0,-1.002,-0.9658,-0.9015,-0.9281,-0.9403,-0.9428,-0.9935,-1.0215,-1.0299,-1.1186,-1.1706,-1.1632,-1.2305,-1.2746,-1.3046,-1.3193,-1.3419,-1.371,-1.2886,-1.2445,-1.2378,-1.3382,-1.4034,-1.4545,-1.5125,-1.57,-1.6193,-1.6272,-1.6421,-1.6551,-1.6769,-1.6991,-1.7156,-1.7403,-1.7678,-1.7935,-1.7835,-1.77,-1.7547,-1.7236,-1.6812,-1.6394,-1.5989,-1.5673,-1.5431,-1.5431,-1.5431,-1.5431,-1.5431,-1.4999,-1.4573,-1.4573,-1.4307,-1.43,-1.4963,-1.5387,-1.5824,-1.6484,-1.6648,-1.6976,-1.7635,-1.7878,-1.8273,-1.8993,-1.9548,-1.9863,-1.9863,-2.0333,-2.0722,-2.0964,-2.1128,-2.1282,-2.1589,-2.1807,-2.1883,-2.1883,-2.1959,-2.2187,-2.2478,-2.2478,-2.2703,-2.3001,-2.3001,-2.3497,-2.4564,-2.4264,-2.4397,-2.4981,-2.511,-2.5122,-2.5016,-2.5975,-2.6402,-2.6427,-2.5873,-2.5594,-2.5508,-2.4442,-2.3929,-2.373,-2.285,-2.2416,-2.2197,0.0,0.0,0.0,0.0,0.0,0.0,0.0,0.0,0.0,0.0,0.0,0.0,0.0,0.0,-1.2357,-1.1843,-1.1222,-1.0991,-1.1134,-0.9707,-0.899,-0.9322,-1.0212,-1.0807,-1.0962,-1.1617,-1.2131,-1.2526,-1.2649,-1.2795,-1.2746,-1.207,-1.1626,-1.1484,-1.2131,-1.2858,-1.3745,-1.4553,-1.5133,-1.5621,-1.5551,-1.5621,-1.5762,-1.6263,-1.6254,-1.6061,-1.6981,-1.7162,-1.7152,-1.7672,-1.7742,-1.7605,-1.7438,-1.6976,-1.6312,-1.6064,-1.5824,-1.559,-1.559,-1.559,-1.559,-1.5506,-1.4824,-1.4223,-1.4314,-1.3795,-1.3613,-1.4378,-1.497,-1.556,-1.6147,-1.6648,-1.7139,-1.7708,-1.7878,-1.8282,-1.8993,-1.9548,-1.9863,-1.9863,-2.0333,-2.0731,-2.1051,-2.1138,-2.1359,-2.1655,-2.1731,-2.1807,-2.1807,-2.1883,-2.2111,-2.2478,-2.2553,-2.2703,-2.3001,-2.3001,-2.3287,-2.3694,-2.3694,-2.3841,-2.4143,-2.448,-2.442,-2.4043,-2.4659,-2.5158,-2.5535,-2.5382,-2.5133,-2.4823,-2.4109,-2.3664,-2.34,-2.2522,-2.2197,-2.2197,0.0,0.0,0.0,0.0,0.0,0.0,0.0,0.0,0.0,0.0,0.0,0.0,0.0,0.0,0.0,-1.9098,-1.6796,-1.5464,-1.5723,-1.0417,-0.7668,-0.8533,-0.8993,-0.9674,-1.0738,-1.0718,-1.1222,-1.2224,0.0,0.0,0.0,-1.0795,-1.072,-1.1037,-1.087,-1.1452,-1.2565,-1.3608,-1.4489,-1.5054,-1.4258,-1.4178,-1.4601,-1.5251,-1.4879,-1.4299,-1.6254,-1.6564,-1.6272,-1.7213,-1.7752,-1.7978,-1.7574,-1.6968,-1.6394,-1.6394,-1.6245,-1.6087,0.0,0.0,0.0,-1.5741,-1.5061,-1.4398,-1.465,-1.3964,-1.3451,-1.3964,-1.4727,-1.5394,-1.5394,-1.6476,-1.74,-1.74,-1.7797,-1.8201,-1.862,-1.9399,-1.9863,-1.9863,-2.0333,-2.0654,-2.0906,-2.1061,-2.1282,-2.1502,-2.1655,-2.1807,-2.1807,-2.2035,-2.2327,-2.2703,-2.2927,-2.3001,-2.3001,-2.3001,-2.3001,-2.3001,-2.3001,-2.3001,-2.3001,-2.3001,-2.3224,-2.3593,-2.3604,-2.3824,-2.4273,-2.4957,-2.4789,-2.4001,-2.3831,-2.3448,-2.2919,-2.239,-2.2197,-2.2197,0.0,0.0,0.0,0.0,0.0,0.0,0.0,0.0,0.0,0.0,0.0,0.0,0.0,-1.7989,-1.8015,-1.7796,-1.7255,-1.73,-1.8287,-1.4762,-1.3308,-1.4763,-1.028,-0.8237,-0.9246,-0.9546,-1.0284,-1.1409,0.0,0.0,0.0,0.0,0.0,-1.0196,-1.0196,-1.034,-1.0783,-1.2345,-1.323,-1.352,-1.3528,-1.352,-1.373,-1.5446,-1.5816,-1.5604,-1.6742,-1.7024,-1.689,-1.7017,-1.7149,-1.7278,-1.7328,-1.7161,-1.6886,-1.6886,-1.6484,-1.6087,-1.6087,0.0,0.0,0.0,0.0,0.0,-1.3529,-1.2942,-1.2437,-1.2778,-1.3548,-1.4566,-1.5891,-1.6394,-1.7057,-1.8129,-1.8451,-1.8692,-1.9073,-1.9548,-1.9863,-1.9863,-2.0333,-2.0731,-2.1051,-2.1128,-2.1359,-2.1655,-2.1807,-2.1807,-2.1807,-2.2101,-2.2402,-2.2478,-2.2852,-2.3001,-2.3001,-2.3001,-2.3001,-2.3001,-2.3001,-2.3001,-2.3001,-2.3001,-2.3075,-2.3224,-2.3751,-2.3897,-2.3824,-2.4622,-2.4602,-2.4001,-2.3831,-2.3448,-2.2919,-2.239,-2.2197,-2.2197,0.0,0.0,0.0,0.0,0.0,0.0,0.0,0.0,0.0,0.0,0.0,0.0,0.0,0.0,-2.2704,-2.2756,-2.2851,-2.341,-2.4661,-2.0819,-1.9197,-2.0882,-1.584,-1.2443,-1.1272,-1.1703,-1.1447,-1.0507,0.0,0.0,0.0,0.0,0.0,0.0,-0.9669,-0.9895,-1.0265,-1.0703,-1.1224,-1.1822,-1.2117,-1.2191,-1.2492,-1.4299,-1.495,-1.4958,-1.6306,-1.6733,-1.6657,-1.7144,-1.7252,-1.7172,-1.7395,-1.7327,-1.7224,-1.7224,-1.6944,-1.6664,-1.6664,-1.6492,-1.6327,-1.6245,0.0,0.0,-1.362,-1.2772,-1.21,-1.2357,-1.3209,-1.423,-1.5228,-1.5891,-1.6714,-1.7951,-1.8273,-1.8674,-1.9311,-1.9706,-1.9942,-2.002,-2.0411,-2.0722,-2.1128,-2.1205,-2.1359,-2.1807,-2.1807,-2.1807,-2.1807,-2.2176,-2.2327,-2.2252,-2.2777,-2.2927,-2.2852,-2.2927,-2.3001,-2.3001,-2.3001,-2.3001,-2.3001,-2.3001,-2.3001,-2.3001,-2.3519,-2.3593,-2.3361,-2.3815,-2.3851,-2.3671,-2.3508,-2.3111,-2.2618,-2.2306,-2.2197,-2.2197,0.0,0.0,0.0,0.0,0.0,0.0,0.0,0.0,0.0,0.0,0.0,0.0,0.0,0.0,0.0,0.0,-3.0365,-3.0885,-3.2174,-2.7493,0.0,-2.7074,-2.357,-1.9842,-1.6135,-1.5641,-1.3768,-1.0364,0.0,0.0,0.0,0.0,0.0,0.0,0.0,-0.9593,-1.026,-0.8832,-0.8908,-0.989,-1.0265,-1.0645,-1.1105,-1.2725,-1.323,-1.3513,-1.5587,-1.6097,-1.6017,-1.7321,-1.7642,-1.7534,-1.7534,-1.7488,-1.7389,-1.7389,-1.7434,-1.7407,-1.7407,-1.7115,-1.6812,-1.6566,-1.5296,0.0,-1.4391,-1.3203,-1.2272,-1.2619,-1.3379,-1.4055,-1.4139,-1.5137,-1.6296,-1.7196,-1.7674,-1.8327,-1.9478,-1.9784,-2.002,-2.0264,-2.0489,-2.0722,-2.1128,-2.1205,-2.1359,-2.1807,-2.1807,-2.1807,-2.1807,-2.2176,-2.2252,-2.2111,-2.2628,-2.2852,-2.2703,-2.2852,-2.3001,-2.3001,-2.3001,-2.3001,-2.3001,-2.3001,-2.3001,-2.3001,-2.3075,-2.3075,-2.3032,-2.2927,-2.2925,-2.3089,-2.2989,-2.2591,-2.2123,-2.2197,-2.2197,-2.2197,0.0,0.0,0.0,0.0,0.0,0.0,0.0,0.0,0.0,0.0,0.0,0.0,0.0,0.0,0.0,0.0,-3.0078,-3.0769,-3.241,-3.1913,0.0,-3.3459,-2.7422,-2.3971,-2.383,-1.7212,-1.4184,-1.5047,0.0,0.0,0.0,0.0,0.0,0.0,0.0,-0.808,-0.7621,-0.7468,-0.7468,-0.7698,-0.9362,-1.0045,-1.0421,-1.2931,-1.3825,-1.4034,-1.5886,-1.6455,-1.6542,-1.7278,-1.7656,-1.7705,-1.7705,-1.7613,-1.7476,-1.7476,-1.7432,-1.7403,-1.7403,-1.7553,-1.7635,-1.731,-1.6296,0.0,-1.4559,-1.3724,-1.3052,-1.279,-1.313,-1.3808,-1.4629,-1.5039,-1.5538,-1.6698,-1.7025,-1.7764,-1.9399,-1.9784,-2.002,-2.0264,-2.0489,-2.0722,-2.1128,-2.1205,-2.1359,-2.1807,-2.1807,-2.1807,-2.1807,-2.2035,-2.2101,-2.2101,-2.2402,-2.2478,-2.2478,-2.2628,-2.2777,-2.2777,-2.2927,-2.3001,-2.3001,-2.3001,-2.3001,-2.3001,-2.3372,-2.3446,-2.3452,-2.291,-2.2548,-2.2343,-2.2531,-2.2261,-2.1851,-2.2123,-2.2197,-2.2197,0.0,0.0,0.0,0.0,0.0,0.0,0.0,0.0,0.0,0.0,0.0,-2.9839,-2.9801,-2.9855,-2.9926,-2.9943,0.0,0.0,0.0,-3.2717,-3.3529,-3.4999,-3.1676,-2.8803,-2.6667,-2.279,-2.013,-1.8734,0.0,0.0,0.0,0.0,0.0,0.0,0.0,-0.7544,-0.7322,-0.6468,-0.6167,-0.6402,-0.8152,-0.9296,-1.0276,-1.2131,-1.3382,-1.4314,-1.5807,-1.6802,-1.751,-1.7666,-1.7732,-1.7764,-1.7764,-1.7701,-1.767,-1.767,-1.7261,-1.6901,-1.7086,-1.6804,-1.65,-1.6429,-1.5718,0.0,0.0,-1.3899,-1.3307,-1.3137,-1.3633,-1.4384,-1.4873,-1.553,-1.6347,-1.7334,-1.7261,-1.7674,-1.9134,-1.9371,-1.9529,-1.9784,-2.0245,-2.0722,-2.1128,-2.1205,-2.1359,-2.1807,-2.1807,-2.1807,-2.1807,-2.1949,-2.2025,-2.1959,-2.2252,-2.2327,-2.2252,-2.2553,-2.2703,-2.2703,-2.2927,-2.2881,-2.2663,-2.2892,-2.2881,-2.2673,-2.3125,-2.3298,-2.3243,-2.2737,-2.2221,-2.1851,-2.1847,-2.1771,-2.1714,-2.1675,-2.1937,-2.2185,-2.6068,0.0,0.0,0.0,0.0,0.0,0.0,0.0,0.0,-2.9304,-2.949,-2.9589,-2.957,-2.97,-2.9773,-2.9844,-2.9976,0.0,-3.2147,-3.2374,-3.3147,-3.464,-3.4756,-3.2823,-2.8622,-2.8217,-2.6211,-2.2448,0.0,0.0,0.0,0.0,0.0,0.0,-0.7548,-0.7242,-0.7088,-0.5622,-0.524,-0.5789,-0.7092,-0.8461,-0.983,-1.1099,-1.2565,-1.4076,-1.5438,-1.6784,-1.792,-1.7725,-1.7706,-1.7696,-1.7423,-1.753,-1.767,-1.7394,-1.6867,-1.6312,-1.6611,-1.6087,-1.5461,-1.5561,-1.5101,-1.465,0.0,0.0,0.0,-1.3646,-1.4468,-1.5206,-1.5206,-1.6183,-1.7326,-1.798,-1.7738,-1.7658,-1.8638,-1.8798,-1.8886,-1.9054,-1.9696,-2.0323,-2.0644,-2.0886,-2.1272,-2.1731,-2.1807,-2.1807,-2.1807,-2.1959,-2.1959,-2.1807,-2.2101,-2.2176,-2.2025,-2.2317,-2.2488,-2.2488,-2.2624,-2.2459,-2.2193,-2.2663,-2.2663,-2.2346,-2.2805,-2.3001,-2.2968,-2.251,-2.2084,-2.1717,-2.1484,-2.1452,-2.1637,-2.1603,-2.1905,-2.2348,-2.6383,-2.6923,0.0,0.0,0.0,0.0,0.0,0.0,0.0,-2.9372,-2.9511,-2.9588,-2.9512,-2.9569,-2.9626,-2.9626,-3.0224,-3.1029,-3.2064,-3.2732,-3.3474,-3.4307,-3.4367,-3.4083,-3.3412,-2.9259,-2.7175,-2.7378,0.0,0.0,0.0,0.0,0.0,-0.6247,-0.7374,-0.6666,-0.4771,-0.4927,-0.5467,-0.6163,-0.6692,-0.7306,-0.8071,-1.0329,-1.1736,-1.2743,-1.5021,-1.6105,-1.6515,-1.6515,-1.7129,-1.7677,-1.6376,-1.6673,-1.7245,-1.6114,-1.5961,-1.611,-1.6153,-1.6564,-1.683,-1.6254,-1.5843,-1.5484,-1.5311,0.0,-1.4314,-1.4482,0.0,-1.5876,-1.5876,0.0,0.0,-1.7415,-1.7577,-1.7738,-1.7819,-1.7989,-1.8158,-1.8158,-1.8407,-1.8656,-1.8877,-1.9913,-2.0934,-2.1731,-2.1807,-2.1807,-2.1807,-2.1807,-2.1807,-2.1807,-2.1807,-2.1883,-2.1807,-2.1617,-2.1628,-2.1837,-2.1586,-2.1583,-2.1691,-2.2171,-2.2368,-2.2346,-2.2805,-2.3001,-2.2968,-2.251,-2.228,-2.2182,-2.2032,-2.1767,-2.1574,-2.2596,-2.3026,-2.3034,-2.6891,-2.7261,0.0,0.0,0.0,0.0,0.0,0.0,0.0,-2.9388,-2.9451,-2.9471,-2.945,-2.9491,-2.9531,-2.9491,-3.0236,-3.1075,-3.1936,-3.2631,-3.3361,-3.416,-3.4148,-3.4099,-3.4023,-3.2087,0.0,0.0,-2.6789,0.0,0.0,0.0,0.0,-0.8624,-0.5839,-0.4199,-0.35,-0.4064,-0.4616,-0.5234,-0.5851,-0.6535,-0.7443,-1.0329,-1.2625,-1.4419,-1.6018,-1.695,-1.7423,-1.7423,-1.7765,-1.7969,-1.7148,-1.701,-1.701,-1.6603,-1.6095,-1.5621,-1.5756,-1.5656,-1.5396,-1.5225,-1.513,-1.5049,-1.4967,-1.4864,-1.4824,-1.4734,0.0,0.0,0.0,0.0,0.0,0.0,-1.8479,-1.8479,-1.7908,-1.7917,-1.7997,-1.7997,-1.8086,-1.8247,-1.8559,-1.9344,-1.9982,-2.0294,-2.0372,-2.0372,-2.0372,-2.0769,-2.0901,-2.0727,-2.1179,-2.128,-2.101,-2.1021,-2.1071,-2.1132,-2.1246,-2.1231,-2.104,-2.1599,-2.1898,-2.192,-2.24,-2.2761,-2.299,-2.2794,-2.2553,-2.2324,-2.2523,-2.2436,-2.2196,-2.2468,-2.2826,-2.3072,-2.7276,-2.7539,-2.7853,0.0,0.0,0.0,0.0,0.0,-2.9262,-2.9365,-2.939,-2.9411,-2.9407,-2.9431,-2.9453,-2.9412,-3.0174,-3.1012,-3.1853,-3.2539,-3.3247,-3.4037,-3.3998,-3.3921,-3.386,-3.3972,-3.3947,-3.3807,-3.0437,0.0,0.0,0.0,0.0,0.0,-0.7276,-0.4913,-0.5205,-0.3932,-0.3834,-0.4691,-0.5464,-0.6751,-0.8552,-1.1205,-1.3578,-1.5604,-1.6742,-1.7373,-1.7774,-1.7852,-1.8056,-1.824,-1.756,-1.7295,-1.7226,-1.6881,-1.6044,-1.5254,-1.5518,-1.4996,-1.4381,-1.4567,-1.4646,-1.4649,-1.4721,-1.4969,-1.5119,-1.4946,-1.5659,0.0,0.0,0.0,-1.8807,-1.8807,0.0,-1.9204,-1.863,-1.8559,-1.823,-1.7432,-1.7513,-1.7755,-1.8399,-1.8709,-1.9027,-1.9256,-1.9243,-1.9178,-1.9178,-1.9783,-2.0049,-1.9736,-2.0477,-2.0762,-2.0431,-2.0438,-2.0446,-2.0526,-2.0759,-2.0662,-2.0407,-2.1098,-2.1396,-2.1428,-2.2051,-2.251,-2.2826,-2.2947,-2.2805,-2.2521,-2.2739,-2.2822,-2.2742,-2.2546,-2.2717,-2.2912,-2.7465,-2.7795,-2.8126,-2.8174,-2.8518,-2.8858,-2.9085,-2.9218,-2.9302,-2.9302,-2.937,-2.9411,-2.9407,-2.9411,-2.9412,-2.9412,-3.0153,-3.0968,-3.1831,-3.2539,-3.3241,-3.3961,-3.3947,-3.3842,-3.3698,-3.386,-3.378,-3.3491,-3.367,-3.1244,0.0,0.0,0.0,0.0,-1.3599,-1.1311,-1.1129,-0.4921,-0.3431,-0.5303,-0.5918,-0.8557,-1.2145,-1.3237,-1.414,-1.5117,-1.6403,-1.6673,-1.6376,-1.6594,-1.7472,-1.8257,-1.6775,-1.7189,-1.7862,-1.6306,-1.5551,-1.5204,-1.5443,-1.5122,-1.4867,-1.5032,-1.4927,-1.4784,-1.4925,-1.5095,-1.5255,-1.5511,-1.633,-1.6952,-1.6952,-1.7683,-1.8336,-1.8336,-1.9204,0.0,0.0,-1.9816,-1.8859,-1.6139,-1.6147,-1.6878,-1.7917,-1.7997,-1.839,-1.9256,-1.8994,-1.8791,-1.8791,-1.9151,-1.935,-1.934,-2.0011,-2.0441,-2.042,-1.9996,-1.9927,-1.9996,-1.9737,-1.9779,-1.9976,-2.0597,-2.095,-2.0937,-2.1898,-2.2324,-2.2379,-2.2815,-2.299,-2.2936,-2.251,-2.259,-2.2902,-2.3279,-2.3098,-2.2728,-2.7582,-2.7922,-2.8191,-2.8246,-2.8543,-2.8858,-2.9067,-2.9175,-2.924,-2.9302,-2.9347,-2.9388,-2.9407,-2.9388,-2.9409,-2.9409,-3.0089,-3.0884,-3.17,-3.2397,-3.3117,-3.3884,-3.3868,-3.3788,-3.3698,-3.3753,-3.3671,-3.3509,-3.3698,-3.2868,0.0,0.0,0.0,0.0,-1.673,-1.3116,-1.0731,-0.9186,-0.7339,-0.5488,-0.7283,-0.9241,-1.136,-1.3917,-1.5438,-1.6306,-1.7157,-1.7501,-1.7638,-1.7706,-1.8046,-1.8385,-1.7842,-1.7638,-1.756,-1.7148,-1.6594,-1.6114,-1.6193,-1.5794,-1.5322,-1.553,-1.5365,-1.5324,-1.6055,-1.6254,-1.6511,-1.6818,-1.7073,-1.7003,-1.6468,-1.7089,-1.7647,-1.7367,-1.8092,-1.8572,0.0,-1.7827,-1.7432,-1.7041,-1.6632,-1.6558,-1.6878,-1.6831,-1.6924,-1.7234,-1.6977,-1.6766,-1.6766,-1.7406,-1.7658,-1.7324,-1.8093,-1.8318,-1.812,-1.7975,-1.8115,-1.8672,-1.8657,-1.8931,-1.955,-2.004,-2.0421,-2.0747,-2.121,-2.1538,-2.1843,-2.2007,-2.2062,-2.2051,-2.1898,-2.1695,-2.165,-2.234,-2.2412,-2.2143,-2.763,-2.795,-2.8246,-2.8353,-2.8637,-2.8881,-2.904,-2.9134,-2.9218,-2.9262,-2.9326,-2.9407,-2.9407,-2.9407,-2.9386,-2.9365,-2.9786,-3.0543,-3.1594,-3.2047,-3.2746,-3.3831,-3.3807,-3.3726,-3.3633,-3.3643,-3.3605,-3.3452,-3.3502,-3.3473,0.0,0.0,0.0,0.0,-2.1061,-1.7299,-1.4825,-1.2165,-0.8868,-0.5652,-0.8125,-0.9911,-1.1396,-1.468,-1.6219,-1.6715,-1.7891,-1.8317,-1.8405,-1.8731,-1.8741,-1.8617,-1.8607,-1.8259,-1.792,-1.7852,-1.7373,-1.689,-1.689,-1.6342,-1.578,-1.6044,-1.5728,-1.5543,-1.6258,-1.6478,-1.6595,-1.681,-1.6839,-1.6632,-1.5964,-1.6489,-1.6877,-1.6366,-1.7321,-1.8015,0.0,-1.7058,-1.6828,-1.7384,-1.6895,-1.6429,-1.6312,-1.6173,-1.6071,-1.6031,-1.562,-1.5423,-1.5499,-1.6196,-1.6452,-1.6139,-1.6893,-1.7189,-1.6932,-1.6932,-1.7276,-1.7969,-1.8104,-1.8596,-1.9285,-1.9736,-2.004,-2.0342,-2.0717,-2.1035,-2.1341,-2.1516,-2.1592,-2.157,-2.1396,-2.1144,-2.0972,-2.1631,-2.1822,-2.1647,-2.7496,-2.7893,-2.8255,-2.8466,-2.8718,-2.8905,-2.8975,-2.9108,-2.9178,-2.92,-2.9304,-2.9386,-2.9386,-2.9386,-2.9365,-2.928,-2.9262,-2.9943,-3.1463,-3.1501,-3.2187,-3.3733,-3.3726,-3.3633,-3.3491,-3.3549,-3.352,-3.3364,-3.3268,-3.325,-3.3404,0.0,0.0,0.0,-2.6587,-2.3717,-2.3065,-1.3896,-0.8308,-0.5796,-0.859,-1.0718,-1.2487,-1.5625,-1.654,-1.6349,-1.8546,-1.8988,-1.8684,-1.9518,-1.9386,-1.8875,-1.9075,-1.9008,-1.8741,-1.8212,-1.7725,-1.7451,-1.7529,-1.6839,-1.6202,-1.6533,-1.5974,-1.5346,-1.5833,-1.5829,-1.5798,-1.5798,-1.5847,-1.5855,-1.5488,-1.6008,-1.6312,-1.5589,-1.6951,-1.8073,-1.8212,-1.7561,-1.7052,-1.6977,-1.6826,-1.6547,-1.6214,-1.6,-1.5772,-1.5674,-1.5189,-1.5001,-1.5157,-1.5538,-1.5762,-1.5762,-1.6455,-1.6793,-1.6793,-1.6793,-1.7139,-1.7901,-1.8037,-1.8519,-1.9285,-1.9671,-1.9868,-1.9889,-2.0553,-2.0817,-2.0928,-2.133,-2.1516,-2.1472,-2.1002,-2.0895,-2.0895,-2.1241,-2.1269,-2.1221,-2.763,-2.8035,-2.8406,-2.8619,-2.8712,-2.8791,-2.8905,-2.9017,-2.9085,-2.9178,-2.9222,-2.9262,-2.9323,-2.9283,-2.9138,-2.8879,-2.9048,-2.9724,-3.1141,-3.1302,-3.2067,-3.3652,-3.3577,-3.3481,-3.3509,-3.3386,-3.3238,-3.3117,-3.3117,-3.2844,-3.2315,0.0,0.0,0.0,-2.9981,-2.7333,-2.3813,-1.8608,-1.2891,-0.746,-1.0668,-1.2218,-1.2926,-1.6096,-1.7189,-1.7257,-1.8757,-1.9187,-1.9142,-1.9341,-1.9407,-1.9407,-1.9473,-1.9274,-1.8942,-1.8674,-1.8337,-1.8066,-1.794,-1.7323,-1.676,-1.6959,-1.6542,-1.6263,-1.7019,-1.6894,-1.6695,-1.7097,-1.6899,-1.6537,-1.6117,-1.6519,-1.6821,-1.6487,-1.7291,-1.7933,-1.7999,-1.7784,-1.7495,-1.6901,-1.6843,-1.6533,-1.5894,-1.5594,-1.5404,-1.5316,-1.4909,-1.4704,-1.4784,-1.4832,-1.4919,-1.4919,-1.5062,-1.5196,-1.5196,-1.5196,-1.5613,-1.6385,-1.6932,-1.7619,-1.8385,-1.9131,-1.9539,-1.9681,-2.0008,-2.0194,-2.0336,-2.0467,-2.0522,-2.0434,-2.038,-2.0336,-2.0336,-2.0402,-2.0575,-2.0839,-2.76,-2.8007,-2.838,-2.8536,-2.8612,-2.8712,-2.8881,-2.897,-2.904,-2.9134,-2.9178,-2.92,-2.924,-2.9093,-2.892,-2.8713,-2.8707,-2.9203,-3.0422,-3.0893,-3.1683,-3.2938,-3.3223,-3.3208,-3.3019,-3.2925,-3.2781,-3.2702,-3.2486,-3.2196,-3.1881,0.0,0.0,0.0,-3.0976,-2.9148,-2.5709,-1.9666,-1.3823,-0.8812,-1.163,-1.3027,0.0,-1.6504,-1.7677,-1.7969,-1.9044,-1.9396,-1.9341,-1.9868,-1.9802,-1.9605,-1.9791,-1.9528,-1.9142,-1.8875,-1.8674,-1.8472,-1.8212,-1.7725,-1.7392,-1.7314,-1.6899,-1.6612,-1.7235,-1.689,-1.6473,-1.6811,-1.6524,-1.6026,-1.5613,-1.6419,-1.7116,-1.7165,-1.726,-1.7198,-1.6762,-1.689,-1.6744,-1.5963,-1.5815,-1.5675,-1.5229,-1.5122,-1.5043,-1.4885,-1.4543,-1.4418,-1.4497,-1.4497,-1.4569,-1.4569,-1.4569,-1.4569,-1.4569,-1.4569,-1.4991,-1.5833,-1.6245,-1.6793,-1.755,-1.8094,-1.8432,-1.8556,-1.9177,-1.9452,-1.9594,-1.9933,-2.0085,-2.0085,-2.0085,-2.0085,-2.0085,-2.0085,-2.0205,-2.0453,-2.7478,-2.7864,-2.8201,-2.8353,-2.8502,-2.8637,-2.8839,-2.8905,-2.8952,-2.9044,-2.9048,-2.9071,-2.9071,-2.8808,-2.8621,-2.8576,-2.836,-2.8649,-2.9566,-3.0432,-3.1245,-3.1989,-3.2715,-3.2844,-3.2299,-3.2299,-3.2265,-3.2127,-3.1568,-3.1439,0.0,0.0,0.0,-3.0219,-3.0286,-2.914,-2.6578,-1.8439,-1.3092,-1.0162,-1.2371,-1.367,-1.4498,-1.6986,-1.8085,-1.8405,-1.9208,-1.9407,-1.9473,-2.0388,-2.0259,-1.9802,-1.9977,-1.9791,-1.9341,-1.8942,-1.8875,-1.8741,-1.8472,-1.8202,-1.794,-1.7666,-1.7107,-1.6751,-1.6908,-1.6403,-1.5903,-1.5833,-1.5551,-1.5204,-1.4856,-1.6088,-1.7189,-1.7638,-1.7157,-1.6394,-1.5551,-1.5877,-1.5807,-1.4848,-1.4776,0.0,-1.4641,-1.478,-1.4754,-1.4449,-1.4281,-1.4209,-1.4425,-1.4433,-1.4425,-1.4569,-1.4569,-1.4569,-1.4569,-1.4569,-1.4919,-1.5621,-1.5762,-1.6105,-1.6793,-1.6982,-1.7111,-1.717,-1.8142,-1.8623,-1.8767,-1.9594,-2.0009,-2.0085,-2.0085,-2.0085,-2.0085,-2.0085,-2.0085,-2.014,-2.7672,-2.7818,-2.7961,-2.8327,-2.8406,-2.851,-2.8694,-2.8594,-2.8569,-2.8743,-2.8489,-2.8316,-2.8368,-2.8272,-2.8129,-2.7886,-2.8273,-2.8747,-2.9255,-3.0304,-3.1124,-3.166,-3.2357,-3.2401,-3.1756,-3.1844,-3.1662,-3.1133,-3.1055,-3.0599,0.0,0.0,0.0,-2.8779,-2.8512,-2.5367,-2.0059,-1.6882,-1.4198,-1.2225,-1.4846,-1.6018,-1.6289,-1.7491,-1.8202,-1.8482,-1.8818,-1.9075,-1.9341,-1.9736,-2.0064,-2.0377,-2.0053,-1.9922,-1.9846,-1.9341,-1.9142,-1.9008,-1.8741,-1.8472,-1.8202,-1.794,-1.7598,-1.7323,-1.7176,-1.6821,-1.6394,-1.6272,-1.5912,-1.5762,-1.5982,-1.6542,-1.7097,-1.7638,-1.7423,-1.7139,-1.6655,-1.6922,-1.6784,-1.5683,-1.5621,-1.5346,-1.4641,-1.4624,-1.4632,-1.4577,-1.4425,-1.4425,-1.4569,-1.4425,-1.4425,-1.4569,-1.4569,-1.4569,-1.4425,-1.4569,-1.4641,-1.4641,-1.5409,-1.5903,-1.6035,-1.6655,-1.6982,-1.7101,-1.7307,-1.7668,-1.8162,-1.8777,-1.9452,-2.0085,-2.0085,-2.0085,-2.0085,-2.0085,-2.0085,-2.014,-2.7461,-2.7672,-2.7847,-2.7989,-2.8174,-2.8335,-2.8518,-2.8362,-2.8309,-2.8569,-2.8326,-2.8102,-2.8156,-2.7964,-2.7783,-2.7672,-2.7713,-2.7883,-2.8132,-2.9082,-2.981,-3.0276,-3.1011,-3.1265,-3.0943,-3.0977,-3.0874,-3.0559,-3.0234,-2.9848,0.0,-2.9028,-2.8527,-2.7894,-2.6509,-2.3638,-1.9765,-1.7863,-1.5722,-1.3795,-1.5807,-1.6464,-1.6394,-1.7157,-1.7784,-1.8212,-1.8114,-1.8519,-1.9142,-1.966,-2.0053,-2.0194,-2.0053,-1.9922,-1.9726,-1.933,-1.9142,-1.9075,-1.8875,-1.8607,-1.8347,-1.8076,-1.7803,-1.7588,-1.7382,-1.6959,-1.6533,-1.6473,-1.6123,-1.5974,-1.6603,-1.6612,-1.683,-1.7569,-1.7628,-1.7276,-1.6455,-1.6733,-1.6524,-1.5338,-1.5204,-1.5062,-1.4641,-1.4569,-1.4569,-1.4497,-1.4353,-1.4281,-1.4353,-1.4217,-1.4145,-1.4353,-1.4346,-1.4281,-1.4281,-1.4425,-1.4425,-1.4433,-1.4919,-1.5204,-1.5196,-1.5551,-1.5745,-1.5807,-1.6349,-1.6697,-1.7051,-1.8017,-1.871,-1.933,-1.9594,-1.966,-1.9726,-2.0009,-2.0085,-2.014,-2.7181,-2.7461,-2.7672,-2.7701,-2.7904,-2.8146,-2.8264,-2.8146,-2.8091,-2.8344,-2.8138,-2.7936,-2.788,-2.7624,-2.7461,-2.7461,-2.723,-2.7103,-2.7132,-2.7935,-2.8458,-2.8676,-2.9459,-2.9883,-2.9835,-2.9852,-2.9891,-2.9886,-2.935,-2.909,-2.9058,-2.8383,-2.7615,-2.6776,-2.49,-2.2786,-2.0535,-1.9251,-1.7269,-1.5133,-1.6324,-1.6612,-1.6394,-1.6881,-1.7442,-1.794,-1.7696,-1.8104,-1.8942,-1.9649,-1.9922,-1.9998,-1.9987,-1.9857,-1.9594,-1.9274,-1.9142,-1.9075,-1.8942,-1.8684,-1.8414,-1.8144,-1.793,-1.7716,-1.7598,-1.7166,-1.6811,-1.6821,-1.6394,-1.6324,-1.701,-1.6673,-1.6542,-1.7295,-1.7432,-1.7019,-1.5974,-1.6254,-1.6114,-1.4848,-1.4713,-1.4705,-1.4641,-1.4569,-1.4569,-1.4425,-1.4201,-1.4129,-1.4129,-1.3928,-1.3863,-1.4057,-1.4129,-1.4057,-1.4065,-1.4209,-1.4353,-1.4353,-1.4497,-1.4569,-1.4569,-1.4569,-1.4569,-1.4641,-1.5392,-1.5799,-1.607,-1.7335,-1.8027,-1.8432,-1.8977,-1.91,-1.9166,-1.9726,-1.9944,-1.9944,-2.7149,-2.7244,-2.7338,-2.7642,-2.773,-2.78,-2.7926,-2.7829,-2.7771,-2.7943,-2.773,-2.7448,-2.712,-2.7055,-2.7072,-2.7072,-2.7244,-2.7224,-2.6937,-2.7803,-2.8015,-2.7344,-2.8189,-2.857,-2.8291,-2.8478,-2.8621,-2.8763,-2.8589,-2.8284,-2.7925,-2.768,-2.6553,-2.4646,-2.4165,-2.2128,-1.9162,-1.9488,-1.8392,-1.6464,-1.7185,-1.7392,-1.7392,-1.7392,-1.7676,-1.8008,-1.8134,-1.8472,-1.8808,-1.9131,-1.9736,-2.027,-1.9802,-1.9857,-1.9977,-1.9407,-1.9208,-1.9075,-1.9075,-1.8808,-1.8482,-1.8482,-1.8212,-1.794,-1.7716,-1.7638,-1.7579,-1.7461,-1.7245,-1.7097,-1.7166,-1.6682,-1.6342,-1.6412,-1.6412,-1.6263,-1.5833,-1.6123,-1.6061,-1.5275,-1.5133,-1.4991,-1.4641,-1.4569,-1.4569,-1.4425,-1.4201,-1.4129,-1.4129,-1.3928,-1.3863,-1.4057,-1.4129,-1.3992,-1.3863,-1.4065,-1.4129,-1.4129,-1.4353,-1.4497,-1.4569,-1.4569,-1.4569,-1.4569,-1.4705,-1.5188,-1.607,-1.6853,-1.755,-1.8104,-1.8442,-1.8566,-1.8633,-1.9177,-1.9375,-1.9441,-2.6792,-2.6957,-2.712,-2.7279,-2.7417,-2.7569,-2.7701,-2.7701,-2.7577,-2.733,-2.7289,-2.7184,-2.6942,-2.6725,-2.6589,-2.6589,-2.6521,-2.6419,-2.6193,-2.653,-2.668,-2.6571,-2.6918,-2.7121,-2.7199,-2.7227,-2.7114,-2.6917,-2.725,-2.7158,-2.6612,-2.6593,-2.5576,-2.3696,-2.2214,-2.071,-1.9215,-1.868,-1.7628,-1.6473,-1.7185,-1.7332,-1.7116,-1.7166,-1.752,-1.794,-1.7706,-1.8056,-1.8684,-1.8875,-1.9274,-1.9681,-1.9483,-1.9539,-1.9528,-1.9274,-1.9142,-1.9075,-1.8942,-1.8674,-1.8482,-1.8414,-1.8212,-1.8008,-1.793,-1.7784,-1.7706,-1.7647,-1.7373,-1.7166,-1.7038,-1.683,-1.663,-1.663,-1.663,-1.6551,-1.6132,-1.6202,-1.6061,-1.5275,-1.5204,-1.5062,-1.4641,-1.4569,-1.4489,-1.4209,-1.4129,-1.4065,-1.3928,-1.3717,-1.3645,-1.3702,-1.3702,-1.371,-1.3645,-1.379,-1.3928,-1.3928,-1.4137,-1.4281,-1.4497,-1.4497,-1.4497,-1.4569,-1.4569,-1.4982,-1.5534,-1.5824,-1.6385,-1.7019,-1.7491,-1.7833,-1.8104,-1.8967,-1.9299,-1.9375,-2.6452,-2.6725,-2.6892,-2.6892,-2.7087,-2.7279,-2.7324,-2.7448,-2.7289,-2.674,-2.674,-2.6791,-2.664,-2.6347,-2.6154,-2.6137,-2.5937,-2.5754,-2.5551,-2.5497,-2.5509,-2.5652,-2.5586,-2.5706,-2.5937,-2.5818,-2.5606,-2.5431,-2.5827,-2.5756,-2.5142,-2.4931,-2.3897,-2.2063,-2.0409,-1.935,-1.8729,-1.774,-1.6966,-1.6483,-1.6957,-1.6822,-1.6406,-1.66,-1.6871,-1.7149,-1.7005,-1.7407,-1.8091,-1.8223,-1.8486,-1.8864,-1.9125,-1.9285,-1.9274,-1.9075,-1.9065,-1.9075,-1.8808,-1.8617,-1.8482,-1.8337,-1.8144,-1.8008,-1.8008,-1.7862,-1.7784,-1.7706,-1.751,-1.7245,-1.7116,-1.6978,-1.6908,-1.6968,-1.6968,-1.6769,-1.6482,-1.6482,-1.6272,-1.563,-1.5417,-1.5204,-1.4848,-1.4641,-1.4497,-1.4129,-1.4129,-1.3992,-1.3717,-1.3572,-1.3492,-1.3492,-1.3492,-1.3492,-1.3492,-1.3645,-1.3717,-1.3797,-1.3928,-1.4137,-1.4281,-1.4353,-1.4497,-1.4569,-1.4569,-1.4776,-1.5062,-1.5125,-1.5488,-1.6053,-1.6603,-1.7148,-1.7628,-1.87,-1.9034,-1.9166,-2.626,-2.6521,-2.6691,-2.6691,-2.6825,-2.6876,-2.6725,-2.6892,-2.6792,-2.6175,-2.6158,-2.6139,-2.5917,-2.5897,-2.5844,-2.5738,-2.5684,-2.5551,-2.513,-2.4997,-2.4719,-2.4359,-2.4109,-2.4157,-2.4417,-2.4217,-2.4243,-2.4531,-2.4412,-2.4047,-2.351,-2.2511,-2.1126,-1.9431,-1.9052,-1.8291,-1.7189,-1.6874,-1.6685,-1.6685,-1.6348,-1.5817,-1.5292,-1.5845,-1.5707,-1.5357,-1.622,-1.6738,-1.6991,-1.7053,-1.7242,-1.7707,-1.8785,-1.9208,-1.9208,-1.8875,-1.8942,-1.9008,-1.8617,-1.8482,-1.8482,-1.8337,-1.8144,-1.8008,-1.8008,-1.8008,-1.794,-1.7716,-1.7588,-1.747,-1.747,-1.7185,-1.6978,-1.7166,-1.7038,-1.6908,-1.6908,-1.6908,-1.6769,-1.6342,-1.5982,-1.5621,-1.5196,-1.4848,-1.4497,-1.4129,-1.4129,-1.392,-1.3492,-1.3492,-1.3492,-1.3492,-1.3492,-1.3492,-1.3492,-1.3492,-1.3572,-1.3797,-1.3797,-1.3928,-1.4129,-1.4281,-1.4497,-1.4569,-1.4569,-1.4569,-1.4641,-1.5062,-1.5204,-1.5275,-1.5982,-1.6612,-1.7207,-1.8162,-1.8499,-1.8643,-2.5791,-2.5921,-2.6049,-2.6085,-2.6314,-2.6383,-2.6123,-2.6245,-2.6087,-2.5243,-2.5166,-2.5028,-2.4655,-2.4934,-2.513,-2.5075,-2.4784,-2.4542,-2.4436,-2.4328,-2.412,-2.3724,-2.3638,-2.3422,-2.312,-2.2951,-2.2725,-2.2408,-2.2583,-2.2285,-2.1521,-2.0876,-1.9866,-1.8616,-1.7996,-1.7378,-1.6825,-1.6583,-1.6329,-1.6147,-1.6265,-1.5863,-1.5274,-1.568,-1.5413,-1.4811,-1.5551,-1.5936,-1.6256,-1.6709,-1.7096,-1.7387,-1.7734,-1.8027,-1.8164,-1.7826,-1.79,-1.79,-1.758,-1.7451,-1.7451,-1.7268,-1.7139,-1.7139,-1.7139,-1.7009,-1.6934,-1.672,-1.6543,-1.6487,-1.6412,-1.6215,-1.614,-1.6271,-1.6206,-1.6074,-1.6074,-1.6074,-1.5942,-1.5544,-1.5193,-1.4858,-1.4461,-1.4122,-1.3789,-1.3592,-1.3462,-1.3452,-1.347,-1.3492,-1.3492,-1.3492,-1.3492,-1.3492,-1.3492,-1.3492,-1.3499,-1.3572,-1.3572,-1.3783,-1.4129,-1.4281,-1.4497,-1.4569,-1.4569,-1.4569,-1.4641,-1.4713,-1.4919,-1.5204,-1.5488,-1.5833,-1.6315,-1.6941,-1.7217,-1.7285,-2.5246,-2.546,-2.5572,-2.5572,-2.5795,-2.5815,-2.5395,-2.5454,-2.5227,-2.4302,-2.4179,-2.4002,-2.3551,-2.3694,-2.3991,-2.4256,-2.4021,-2.3767,-2.3595,-2.3465,-2.329,-2.2995,-2.2875,-2.2558,-2.2095,-2.186,-2.1479,-2.097,-2.0822,-2.036,-1.9566,-1.9137,-1.8411,-1.7582,-1.7031,-1.6587,-1.6211,-1.5771,-1.5604,-1.5551,-1.5221,-1.4773,-1.4323,-1.4512,-1.4115,-1.3541,-1.4268,-1.4647,-1.4899,-1.5337,-1.5638,-1.5956,-1.5904,-1.6211,-1.6718,-1.7059,-1.7284,-1.7346,-1.6971,-1.6908,-1.6971,-1.6728,-1.6665,-1.6665,-1.6665,-1.6665,-1.6465,-1.6256,-1.6138,-1.6147,-1.601,-1.5882,-1.5817,-1.601,-1.5817,-1.5689,-1.5689,-1.5689,-1.5624,-1.5366,-1.5033,-1.4632,-1.4313,-1.3983,-1.3659,-1.3274,-1.3148,-1.3119,-1.3111,-1.3126,-1.3126,-1.3126,-1.3126,-1.3126,-1.3126,-1.3126,-1.3126,-1.3126,-1.3126,-1.3267,-1.3613,-1.3831,-1.398,-1.412,-1.4174,-1.4323,-1.4442,-1.4442,-1.4656,-1.4991,-1.5133,-1.548,-1.5956,-1.6394,-1.6603,-1.6673,-2.4775,-2.5075,-2.5291,-2.5153,-2.5214,-2.5067,-2.448,-2.4465,-2.423,-2.3302,-2.3171,-2.301,-2.2634,-2.2374,-2.2498,-2.3128,-2.3275,-2.3098,-2.2663,-2.2512,-2.236,-2.2175,-2.1874,-2.1554,-2.1277,-2.0908,-2.0459,-2.0016,-1.9174,-1.8429,-1.7799,-1.7357,-1.6864,-1.6316,-1.6124,-1.5758,-1.5225,-1.451,-1.4469,-1.4725,-1.3373,-1.2765,-1.2704,-1.2512,-1.2143,-1.1834,-1.252,-1.2887,-1.313,-1.3191,-1.3364,-1.3657,-1.3502,-1.4085,-1.5065,-1.6439,-1.7006,-1.7131,-1.6703,-1.6766,-1.6819,-1.6641,-1.6578,-1.6578,-1.6578,-1.6578,-1.6442,-1.617,-1.617,-1.6233,-1.6107,-1.5916,-1.5862,-1.6043,-1.5862,-1.5606,-1.5606,-1.5606,-1.5606,-1.5606,-1.5285,-1.4889,-1.4555,-1.4237,-1.3727,-1.3071,-1.3004,-1.287,-1.2453,-1.2453,-1.2475,-1.2519,-1.2519,-1.2519,-1.2519,-1.2519,-1.2519,-1.2519,-1.2519,-1.2593,-1.2803,-1.3005,-1.3215,-1.3423,-1.3526,-1.3767,-1.4077,-1.4077,-1.4268,-1.4561,-1.4917,-1.5404,-1.5896,-1.6271,-1.6437,-1.6533,-2.4385,-2.4508,-2.4533,-2.4533,-2.4282,-2.393,-2.3434,-2.3142,-2.2714,-2.2086,-2.1993,-2.1866,-2.1609,-2.1513,-2.1417,-2.1259,-2.1813,-2.2109,-2.2016,-2.1718,-2.1417,-2.1175,-2.0782,-2.0396,-2.0003,-1.9747,-1.9226,-1.8429,-1.8224,-1.7634,-1.6761,-1.6864,-1.6457,-1.5652,-1.5594,-1.5108,-1.4332,-1.4154,-1.3795,-1.3312,-1.307,-1.2589,-1.2042,-1.2081,-1.1648,-1.1108,-1.1794,-1.2097,-1.2205,-1.2704,-1.3009,-1.3183,-1.3252,-1.3425,-1.3821,-1.4819,-1.5554,-1.6039,-1.5782,-1.5723,-1.5782,-1.5723,-1.5623,-1.5513,-1.5453,-1.5254,-1.5125,-1.5065,-1.5014,-1.4963,-1.5065,-1.4963,-1.4902,-1.5004,-1.4893,-1.479,-1.479,-1.479,-1.479,-1.479,-1.4468,-1.4153,-1.3776,-1.3484,-1.3048,-1.2547,-1.2365,-1.2231,-1.1978,-1.1851,-1.2014,-1.2504,-1.2519,-1.2519,-1.2519,-1.2519,-1.2519,-1.2519,-1.2519,-1.2593,-1.2803,-1.3005,-1.3215,-1.3423,-1.3526,-1.3632,-1.3703,-1.3703,-1.3759,-1.3831,-1.3966,-1.4195,-1.4567,-1.4645,-1.4825,-1.5204,-2.3739,-2.3867,-2.3852,-2.3551,-2.3391,-2.3054,-2.2285,-2.1993,-2.1663,-2.1028,-2.0782,-2.0633,-2.0497,-2.0283,-2.008,-1.9761,-2.0534,-2.0993,-2.0809,-2.0497,-2.0181,-2.0003,-1.9619,-1.9307,-1.9121,-1.8685,-1.8147,-1.739,-1.7346,-1.6965,-1.6249,-1.6306,-1.6009,-1.541,-1.5362,-1.4951,-1.4282,-1.3983,-1.3563,-1.3078,-1.252,-1.2035,-1.1615,-1.1413,-1.1108,-1.0744,-1.1122,-1.1303,-1.1413,-1.1787,-1.1973,-1.2158,-1.222,-1.2458,-1.2757,-1.3243,-1.3974,-1.4647,-1.4579,-1.4519,-1.4579,-1.4805,-1.4951,-1.5098,-1.5029,-1.4911,-1.4834,-1.4715,-1.4725,-1.4734,-1.4715,-1.4666,-1.4606,-1.4715,-1.4616,-1.4515,-1.4515,-1.4515,-1.4515,-1.4515,-1.4198,-1.3881,-1.3511,-1.3216,-1.2805,-1.2243,-1.212,-1.1996,-1.1747,-1.1622,-1.1721,-1.2072,-1.208,-1.208,-1.208,-1.208,-1.208,-1.208,-1.208,-1.2145,-1.2282,-1.2412,-1.2615,-1.2809,-1.2923,-1.3138,-1.3362,-1.3362,-1.3449,-1.3584,-1.3584,-1.3703,-1.387,-1.387,-1.3989,-1.425,-2.3038,-2.3246,-2.3187,-2.2498,-2.2452,-2.2161,-2.1113,-2.0881,-2.0584,-2.0016,-1.9604,-1.9396,-1.9344,-1.904,-1.8762,-1.8501,-1.923,-1.9619,-1.9448,-1.9121,-1.8922,-1.8827,-1.8483,-1.8255,-1.8244,-1.771,-1.7213,-1.6719,-1.657,-1.6343,-1.5999,-1.5778,-1.5546,-1.5294,-1.5205,-1.4902,-1.4469,-1.3923,-1.3563,-1.326,-1.1973,-1.149,-1.1428,-1.0744,-1.0498,-1.0498,-1.0498,-1.0618,-1.0744,-1.0744,-1.087,-1.0996,-1.1059,-1.1476,-1.1958,-1.202,-1.2704,-1.345,-1.3563,-1.3631,-1.3803,-1.4154,-1.4588,-1.497,-1.4911,-1.4921,-1.4852,-1.4725,-1.4784,-1.4852,-1.4715,-1.4656,-1.4656,-1.4656,-1.4556,-1.4515,-1.4515,-1.4515,-1.4515,-1.4515,-1.4198,-1.3881,-1.3511,-1.3216,-1.2736,-1.2127,-1.2127,-1.1934,-1.1622,-1.1622,-1.1622,-1.1622,-1.1622,-1.1622,-1.1622,-1.1622,-1.1622,-1.1622,-1.1622,-1.1622,-1.1622,-1.1747,-1.1934,-1.2127,-1.2243,-1.2602,-1.3012,-1.3012,-1.3179,-1.3425,-1.3425,-1.3465,-1.3505,-1.3505,-1.3537,-1.3691,-2.2603,-2.2649,-2.2452,-2.1758,-2.1218,-2.0617,-1.9876,-1.9359,-1.891,-1.8643,-1.8548,-1.8441,-1.817,-1.8116,-1.7952,-1.7655,-1.7545,-1.7754,-1.8447,-1.8267,-1.8061,-1.7886,-1.7446,-1.7168,-1.7045,-1.6606,-1.6275,-1.6218,-1.6077,-1.5846,-1.5526,-1.5478,-1.5235,-1.4834,-1.4775,-1.435,-1.3692,-1.3571,-1.3191,-1.2573,-1.167,-1.1303,-1.124,-1.0428,-1.011,-1.011,-1.011,-1.0244,-1.0364,-1.0364,-1.0491,-1.0688,-1.0807,-1.1303,-1.1856,-1.1981,-1.2528,-1.3191,-1.3795,-1.435,-1.4725,-1.4656,-1.4647,-1.4715,-1.4625,-1.4565,-1.4575,-1.4565,-1.4565,-1.4575,-1.4565,-1.4506,-1.4506,-1.4506,-1.4506,-1.4515,-1.4515,-1.4515,-1.4515,-1.4515,-1.4198,-1.3881,-1.3511,-1.3216,-1.2736,-1.2127,-1.2127,-1.1934,-1.1622,-1.1622,-1.1622,-1.1622,-1.1622,-1.1622,-1.1622,-1.1622,-1.1622,-1.1622,-1.1622,-1.1622,-1.1622,-1.1747,-1.1934,-1.2127,-1.2243,-1.246,-1.2709,-1.2709,-1.2733,-1.2789,-1.2789,-1.2901,-1.3171,-1.3171,-1.3346,-1.3725,-2.1921,-2.1677,-2.1315,-2.0706,-2.0029,-1.9465,-1.8862,-1.8471,-1.817,-1.7995,-1.7843,-1.7623,-1.7457,-1.729,-1.7067,-1.6719,-1.6616,-1.6673,-1.7,-1.7011,-1.7011,-1.6955,-1.6673,-1.6389,-1.6036,-1.5816,-1.5652,-1.5488,-1.5439,-1.5323,-1.5196,-1.5069,-1.4883,-1.4715,-1.4606,-1.4378,-1.401,-1.3821,-1.326,-1.2328,-1.1794,-1.1178,-1.0555,-1.0174,-0.9983,-0.9983,-0.9983,-1.0047,-1.0174,-1.0238,-1.0371,-1.0498,-1.0624,-1.087,-1.1185,-1.124,-1.2097,-1.307,-1.3364,-1.3932,-1.4309,-1.424,-1.4428,-1.4556,-1.4506,-1.4515,-1.4515,-1.4515,-1.4515,-1.4515,-1.4515,-1.4515,-1.4515,-1.4515,-1.4515,-1.4515,-1.4515,-1.4515,-1.4515,-1.4515,-1.407,-1.3692,-1.3511,-1.3042,-1.2613,-1.2243,-1.212,-1.1996,-1.1747,-1.1622,-1.1622,-1.1622,-1.1622,-1.1622,-1.1622,-1.1622,-1.1622,-1.1622,-1.1622,-1.1622,-1.1622,-1.1685,-1.1809,-1.1934,-1.212,-1.2313,-1.2436,-1.256,-1.2621,-1.2621,-1.2621,-1.2663,-1.2806,-1.2806,-1.2901,-1.3124,-2.1264,-2.0818,-2.0281,-1.967,-1.9085,-1.8436,-1.7875,-1.7667,-1.7512,-1.7335,-1.7067,-1.6853,-1.6729,-1.6446,-1.6228,-1.5941,-1.5884,-1.5836,-1.5682,-1.5894,-1.6009,-1.6114,-1.5941,-1.5652,-1.5303,-1.5303,-1.5196,-1.497,-1.497,-1.497,-1.4911,-1.4775,-1.4647,-1.4538,-1.4437,-1.4327,-1.4258,-1.3881,-1.3199,-1.2397,-1.1787,-1.0982,-1.0168,-0.9983,-0.9862,-0.9862,-0.9862,-0.9926,-0.9989,-1.0117,-1.018,-1.0238,-1.0428,-1.0555,-1.0674,-1.0674,-1.1663,-1.2757,-1.2573,-1.2948,-1.339,-1.345,-1.37,-1.3941,-1.401,-1.4139,-1.4198,-1.4258,-1.4387,-1.4515,-1.4515,-1.4515,-1.4515,-1.4515,-1.4515,-1.4515,-1.4515,-1.4515,-1.4515,-1.4515,-1.389,-1.3511,-1.3511,-1.2981,-1.2498,-1.2305,-1.2182,-1.1996,-1.1809,-1.1685,-1.1622,-1.1622,-1.1622,-1.1622,-1.1622,-1.1622,-1.1622,-1.1622,-1.1622,-1.1622,-1.1622,-1.1622,-1.1685,-1.1809,-1.1996,-1.2182,-1.2305,-1.2498,-1.2621,-1.2621,-1.2621,-1.2621,-1.2621,-1.2621,-1.2621,-1.2661,-2.066,-2.0245,-1.9631,-1.8927,-1.834,-1.7699,-1.6842,-1.6684,-1.657,-1.6275,-1.6104,-1.5941,-1.5788,-1.5594,-1.542,-1.5264,-1.5274,-1.5215,-1.5098,-1.5088,-1.5196,-1.5468,-1.5196,-1.5088,-1.5029,-1.5029,-1.5029,-1.497,-1.497,-1.4902,-1.4715,-1.4715,-1.4478,-1.407,-1.407,-1.3881,-1.3571,-1.3078,-1.2826,-1.2642,-1.1399,-1.0836,-1.0654,-0.9856,-0.9548,-0.9548,-0.9548,-0.9676,-0.9804,-0.9804,-0.9926,-1.0047,-1.0047,-1.0471,-1.0954,-1.0954,-1.1516,-1.195,-1.1322,-1.164,-1.2197,-1.2389,-1.2328,-1.2258,-1.2573,-1.3017,-1.339,-1.3571,-1.407,-1.4515,-1.4515,-1.4515,-1.4515,-1.4515,-1.4515,-1.4515,-1.4515,-1.4515,-1.4515,-1.4515,-1.389,-1.3511,-1.3511,-1.2981,-1.2498,-1.2305,-1.2182,-1.1996,-1.1809,-1.1685,-1.1622,-1.1622,-1.1622,-1.1622,-1.1622,-1.1622,-1.1622,-1.1622,-1.1622,-1.1622,-1.1622,-1.1622,-1.1685,-1.1809,-1.1996,-1.2182,-1.2305,-1.2498,-1.2621,-1.2621,-1.2621,-1.2621,-1.2621,-1.2621,-1.2621,-1.2629,-1.967,-1.8809,-1.8004,-1.7786,-1.7157,-1.656,-1.6343,-1.6124,-1.6019,-1.5846,-1.571,-1.5536,-1.5381,-1.5323,-1.5205,-1.5088,-1.5098,-1.5029,-1.497,-1.4902,-1.4902,-1.5137,-1.5029,-1.497,-1.4843,-1.4834,-1.4666,-1.4369,-1.4369,-1.424,-1.3992,-1.3992,-1.3872,-1.37,-1.339,-1.3199,-1.3009,-1.2328,-1.1826,-1.1516,-1.0787,-1.0288,-0.9977,-0.9606,-0.9484,-0.9484,-0.9484,-0.9548,-0.9612,-0.974,-0.9862,-0.9862,-0.9983,-1.0168,-1.0351,-1.0288,-1.0415,-1.0541,-1.0161,-1.1024,-1.2012,-1.2074,-1.2074,-1.2012,-1.2135,-1.232,-1.2573,-1.3017,-1.3268,-1.3511,-1.3821,-1.3881,-1.395,-1.4139,-1.401,-1.395,-1.4139,-1.4198,-1.413,-1.3881,-1.364,-1.339,-1.3216,-1.2805,-1.256,-1.2498,-1.2251,-1.2058,-1.1996,-1.1747,-1.1622,-1.1622,-1.1622,-1.1622,-1.1622,-1.1622,-1.1622,-1.1622,-1.1622,-1.1622,-1.1622,-1.1622,-1.1622,-1.1685,-1.2003,-1.2127,-1.2182,-1.2498,-1.2621,-1.2621,-1.2621,-1.2621,-1.2621,-1.2621,-1.2621,-1.2621,-1.8608,-1.7731,-1.6978,-1.6978,-1.6343,-1.5846,-1.5836,-1.5672,-1.5498,-1.5498,-1.5303,-1.5128,-1.4911,-1.4852,-1.4725,-1.4547,-1.4547,-1.4547,-1.4547,-1.441,-1.4419,-1.4675,-1.4606,-1.4478,-1.435,-1.435,-1.4172,-1.3821,-1.3821,-1.3761,-1.3511,-1.3511,-1.339,-1.3086,-1.2773,-1.2466,-1.2212,-1.1461,-1.0968,-1.0598,-1.0231,-0.9798,-0.9484,-0.9484,-0.9484,-0.9484,-0.9484,-0.9484,-0.9548,-0.9676,-0.9676,-0.974,-0.9798,-0.9862,-0.9798,-0.974,-0.9676,-0.974,-0.9734,-1.0478,-1.1212,-1.1274,-1.1274,-1.1274,-1.1586,-1.1764,-1.202,-1.2589,-1.2895,-1.3139,-1.345,-1.3511,-1.3571,-1.3821,-1.3631,-1.3571,-1.3821,-1.3821,-1.3761,-1.3511,-1.339,-1.3277,-1.305,-1.2744,-1.256,-1.2498,-1.2251,-1.2058,-1.1934,-1.1747,-1.1622,-1.1622,-1.1622,-1.1622,-1.1622,-1.1622,-1.1622,-1.1622,-1.1622,-1.1622,-1.1622,-1.1622,-1.1622,-1.1622,-1.1934,-1.2127,-1.2127,-1.2436,-1.2621,-1.2621,-1.2621,-1.2621,-1.2621,-1.2621,-1.2621,-1.2621,-1.7578,-1.7146,-1.6708,-1.6539,-1.6056,-1.5556,-1.5274,-1.5215,-1.5156,-1.5029,-1.4843,-1.4538,-1.4249,-1.407,-1.3881,-1.3511,-1.3511,-1.3511,-1.3511,-1.3511,-1.3631,-1.401,-1.37,-1.3511,-1.3511,-1.3511,-1.3511,-1.3511,-1.3511,-1.3511,-1.3502,-1.3511,-1.3086,-1.2305,-1.2305,-1.1802,-1.0989,-1.0491,-1.0301,-1.0238,-0.9734,-0.9484,-0.9484,-0.9484,-0.9484,-0.9484,-0.9484,-0.9484,-0.9484,-0.9484,-0.9484,-0.9484,-0.9484,-0.9484,-0.9484,-0.9484,-0.9484,-0.9612,-1.018,-0.9926,-0.9548,-0.974,-0.9676,-0.9734,-1.0618,-1.1163,-1.171,-1.2359,-1.3025,-1.3511,-1.3502,-1.3502,-1.3502,-1.3511,-1.3502,-1.3502,-1.3511,-1.3511,-1.3511,-1.3502,-1.3216,-1.2989,-1.2989,-1.2744,-1.2498,-1.2305,-1.2182,-1.1934,-1.1622,-1.1622,-1.1622,-1.1622,-1.1622,-1.1622,-1.1622,-1.1622,-1.1622,-1.1622,-1.1622,-1.1622,-1.1622,-1.1622,-1.1622,-1.1622,-1.1934,-1.2127,-1.2127,-1.2436,-1.2621,-1.2621,-1.2621,-1.2621,-1.2621,-1.2621,-1.2621,-1.2621,-1.6698,-1.6093,-1.5536,-1.5478,-1.5323,-1.5147,-1.5088,-1.4734,-1.4488,-1.4428,-1.4121,-1.3812,-1.3692,-1.3692,-1.3631,-1.3511,-1.3511,-1.3511,-1.3511,-1.3277,-1.3164,-1.3164,-1.3398,-1.3511,-1.3511,-1.3511,-1.339,-1.3164,-1.3164,-1.3042,-1.2858,-1.2482,-1.2174,-1.1926,-1.1178,-1.0744,-1.0491,-0.9989,-0.9606,-0.9402,-0.9478,-0.9221,-0.8835,-0.9092,-0.9028,-0.8776,-0.8776,-0.8776,-0.884,-0.9087,-0.8958,-0.8835,-0.9087,-0.9285,-0.9484,-0.9484,-0.9484,-0.9548,-0.9676,-0.9606,-0.9612,-1.0053,-1.0117,-1.0053,-0.9926,-1.0541,-1.1226,-1.1421,-1.1919,-1.2421,-1.2797,-1.2858,-1.292,-1.3103,-1.2981,-1.292,-1.3094,-1.3164,-1.3103,-1.292,-1.292,-1.2928,-1.2744,-1.2629,-1.2498,-1.2305,-1.2058,-1.1809,-1.1622,-1.1622,-1.1622,-1.1622,-1.1622,-1.1622,-1.1622,-1.1622,-1.1622,-1.1622,-1.1622,-1.1622,-1.1622,-1.1622,-1.1622,-1.1622,-1.1809,-1.1996,-1.212,-1.2313,-1.2498,-1.2621,-1.2621,-1.2621,-1.2621,-1.2621,-1.2621,-1.2621,-1.5806,-1.5362,-1.497,-1.4902,-1.4902,-1.4852,-1.4606,-1.4309,-1.407,-1.3941,-1.3692,-1.345,-1.3338,-1.3277,-1.3277,-1.3155,-1.3086,-1.3025,-1.2972,-1.2736,-1.2621,-1.256,-1.2789,-1.2972,-1.2972,-1.2972,-1.285,-1.2613,-1.2613,-1.2421,-1.1981,-1.1663,-1.1226,-1.0793,-1.0168,-0.9792,-0.9542,-0.9221,-0.8964,-0.8829,-0.9028,-0.8835,-0.8517,-0.87,-0.8705,-0.8517,-0.8517,-0.8517,-0.8517,-0.8705,-0.8641,-0.8517,-0.8765,-0.8964,-0.9098,-0.9098,-0.9098,-0.9157,-0.935,-0.9285,-0.9221,-0.9792,-0.9919,-0.9926,-0.9862,-1.0301,-1.08,-1.0989,-1.1233,-1.1553,-1.1934,-1.1996,-1.2112,-1.2482,-1.2367,-1.2428,-1.2805,-1.2867,-1.2683,-1.2313,-1.2428,-1.249,-1.2305,-1.1981,-1.167,-1.1351,-1.1038,-1.0982,-1.1178,-1.1178,-1.131,-1.156,-1.1622,-1.1622,-1.1622,-1.1622,-1.1622,-1.1622,-1.1622,-1.1622,-1.1622,-1.1622,-1.1622,-1.1622,-1.1747,-1.1934,-1.212,-1.2243,-1.2428,-1.2621,-1.2621,-1.2621,-1.2621,-1.2621,-1.2621,-1.2621,-1.497,-1.4911,-1.4843,-1.4656,-1.4597,-1.4478,-1.401,-1.395,-1.3821,-1.3511,-1.345,-1.3268,-1.2989,-1.292,-1.2867,-1.256,-1.2367,-1.2243,-1.2127,-1.2127,-1.2058,-1.2058,-1.2035,-1.2012,-1.195,-1.202,-1.2012,-1.195,-1.195,-1.1578,-1.0892,-1.0892,-1.0268,-0.9274,-0.9274,-0.8947,-0.8479,-0.8479,-0.8484,-0.842,-0.8484,-0.8431,-0.8382,-0.8447,-0.8447,-0.8382,-0.8382,-0.8382,-0.8382,-0.8382,-0.8447,-0.8517,-0.8452,-0.8447,-0.8517,-0.8517,-0.8517,-0.8576,-0.9087,-0.8894,-0.8641,-0.9081,-0.935,-0.9548,-1.0047,-1.0301,-1.0491,-1.0863,-1.0982,-1.0982,-1.0982,-1.0982,-1.1178,-1.1677,-1.174,-1.1926,-1.2375,-1.2436,-1.2305,-1.1809,-1.174,-1.174,-1.1677,-1.0905,-1.0268,-0.9837,-0.9646,-0.9773,-1.0358,-1.0421,-1.0737,-1.1373,-1.1498,-1.1498,-1.1498,-1.156,-1.1622,-1.1622,-1.1622,-1.1622,-1.1622,-1.1622,-1.1622,-1.1622,-1.1747,-1.1872,-1.2058,-1.2243,-1.2375,-1.256,-1.256,-1.2621,-1.2621,-1.2621,-1.2621,-1.2621,-1.4775,-1.4488,-1.4189,-1.4189,-1.3932,-1.3752,-1.3631,-1.3398,-1.3164,-1.3103,-1.292,-1.2744,-1.2683,-1.2552,-1.2428,-1.2367,-1.2243,-1.212,-1.2127,-1.2127,-1.2058,-1.1872,-1.1616,-1.1172,-1.062,-1.1353,-1.1473,-1.0916,-1.0916,-1.067,-1.0205,-0.9831,-0.9524,-0.9274,-0.8829,-0.8531,-0.8289,-0.8289,-0.8106,-0.7923,-0.8169,-0.8016,-0.7722,-0.7987,-0.7922,-0.7722,-0.7722,-0.7722,-0.7722,-0.7722,-0.8052,-0.8452,-0.8182,-0.8317,-0.8517,-0.8517,-0.8517,-0.8517,-0.8641,-0.8576,-0.8517,-0.8641,-0.8705,-0.8835,-0.9215,-1.0098,-1.08,-1.0491,-1.0737,-1.0982,-1.0982,-1.0982,-1.1052,-1.117,-1.117,-1.124,-1.1303,-1.1365,-1.1303,-1.1178,-1.117,-1.1045,-1.0836,-1.0275,-0.9894,-0.9837,-0.9646,-0.9582,-0.9709,-0.9709,-0.9773,-0.9964,-1.0478,-1.0737,-1.0737,-1.1303,-1.1622,-1.1622,-1.1622,-1.1622,-1.1622,-1.1622,-1.1622,-1.1622,-1.1622,-1.1747,-1.1864,-1.2058,-1.2243,-1.2367,-1.256,-1.2621,-1.2621,-1.2621,-1.2621,-1.2621,-1.4419,-1.4181,-1.395,-1.3821,-1.3631,-1.345,-1.3277,-1.3103,-1.292,-1.2674,-1.2552,-1.2436,-1.2375,-1.2251,-1.2182,-1.205,-1.1996,-1.1934,-1.1872,-1.1879,-1.1742,-1.1456,-1.1285,-1.0865,-1.0149,-1.0372,-1.027,-0.9821,-0.9893,-0.9672,-0.9143,-0.9018,-0.8753,-0.8431,-0.8177,-0.7925,-0.7716,-0.7716,-0.7536,-0.7262,-0.7441,-0.7382,-0.7168,-0.7361,-0.7293,-0.7182,-0.7281,-0.744,-0.7521,-0.7521,-0.7722,-0.7987,-0.7787,-0.7852,-0.8052,-0.8052,-0.8052,-0.8052,-0.8052,-0.8052,-0.8052,-0.8052,-0.8117,-0.8382,-0.87,-0.9274,-0.9722,-0.9472,-0.9658,-0.9843,-1.0034,-1.0034,-1.0161,-1.0415,-1.0408,-1.0534,-1.0717,-1.0591,-1.0471,-1.0415,-1.0288,-0.9964,-0.9378,-0.932,-0.9128,-0.8742,-0.8619,-0.8678,-0.9005,-0.9005,-0.9198,-0.9518,-0.9843,-1.0034,-1.0034,-1.0737,-1.1052,-1.1052,-1.1435,-1.1622,-1.1622,-1.1622,-1.1622,-1.1622,-1.1622,-1.1685,-1.1802,-1.1996,-1.2182,-1.2305,-1.2498,-1.2621,-1.2621,-1.2621,-1.2621,-1.2621,-1.401,-1.389,-1.3761,-1.345,-1.339,-1.3277,-1.2981,-1.292,-1.2736,-1.2367,-1.2305,-1.2243,-1.212,-1.2058,-1.1996,-1.1802,-1.1747,-1.1747,-1.1622,-1.1622,-1.1475,-1.1092,-1.1019,-1.0654,-1.0002,-0.9384,-0.8951,-0.8777,-0.8914,-0.865,-0.8032,-0.8255,-0.8037,-0.7521,-0.7488,-0.7359,-0.7106,-0.7069,-0.6955,-0.674,-0.674,-0.6763,-0.6791,-0.6791,-0.6791,-0.6815,-0.7045,-0.721,-0.7362,-0.7459,-0.7469,-0.7478,-0.7512,-0.7521,-0.7521,-0.7521,-0.7521,-0.7521,-0.7521,-0.7521,-0.7521,-0.7521,-0.7722,-0.7987,-0.8252,-0.8452,-0.8517,-0.8517,-0.8517,-0.8576,-0.8894,-0.8888,-0.9081,-0.9524,-0.9588,-0.9709,-1.0078,-0.9894,-0.9703,-0.9588,-0.9268,-0.8823,-0.8052,-0.8296,-0.8226,-0.7521,-0.7521,-0.7717,-0.8296,-0.8361,-0.8613,-0.9134,-0.9262,-0.9326,-0.9326,-0.997,-1.0421,-1.0485,-1.1115,-1.1498,-1.1622,-1.1622,-1.1622,-1.1622,-1.1622,-1.1685,-1.1802,-1.1996,-1.212,-1.2243,-1.2436,-1.256,-1.256,-1.256,-1.2621,-1.2621,-1.3631,-1.3338,-1.3103,-1.3103,-1.2867,-1.2683,-1.2683,-1.249,-1.2367,-1.2305,-1.2182,-1.212,-1.2127,-1.1934,-1.1802,-1.1622,-1.1622,-1.1622,-1.1622,-1.1622,-1.1475,-1.1092,-1.0799,-1.0251,-0.9446,-0.8533,-0.8166,-0.8277,-0.8013,-0.7704,-0.7351,-0.7555,-0.7587,-0.7517,-0.734,-0.7088,-0.6819,-0.6695,-0.6601,-0.652,-0.652,-0.6627,-0.6791,-0.6791,-0.6791,-0.6796,-0.6824,-0.6852,-0.6899,-0.714,-0.7259,-0.7293,-0.7469,-0.7521,-0.7521,-0.7521,-0.7521,-0.7521,-0.7521,-0.7521,-0.7521,-0.7521,-0.7521,-0.7587,-0.7657,-0.8052,-0.8517,-0.8517,-0.8517,-0.8511,-0.8582,-0.8576,-0.8576,-0.8641,-0.8705,-0.8705,-0.877,-0.8705,-0.8705,-0.8705,-0.8376,-0.8117,-0.7987,-0.7787,-0.7587,-0.7521,-0.7521,-0.7521,-0.7652,-0.7652,-0.7652,-0.7782,-0.8361,-0.8619,-0.8619,-0.9326,-0.9907,-1.0485,-1.0611,-1.0989,-1.1622,-1.1622,-1.1622,-1.1622,-1.1622,-1.1622,-1.1622,-1.1802,-1.1864,-1.1926,-1.2243,-1.2367,-1.2367,-1.256,-1.2621,-1.2621,-1.3277,-1.3103,-1.292,-1.2805,-1.2621,-1.2436,-1.2436,-1.2305,-1.212,-1.2058,-1.1996,-1.1872,-1.1809,-1.1747,-1.1685,-1.1622,-1.1622,-1.1622,-1.1622,-1.1392,-1.1023,-1.0338,-1.003,-0.9438,-0.854,-0.783,-0.7512,-0.7565,-0.7327,-0.7135,-0.6998,-0.731,-0.7464,-0.735,-0.7259,-0.6979,-0.6609,-0.6515,-0.6407,-0.6309,-0.6309,-0.6365,-0.6449,-0.6449,-0.6449,-0.6463,-0.6576,-0.6693,-0.6805,-0.6955,-0.6988,-0.7002,-0.7092,-0.7201,-0.7354,-0.7354,-0.7436,-0.7521,-0.7521,-0.7521,-0.7521,-0.7521,-0.7521,-0.7521,-0.7521,-0.7722,-0.7917,-0.7917,-0.7917,-0.7987,-0.8182,-0.8252,-0.8252,-0.8252,-0.8252,-0.8252,-0.8252,-0.8052,-0.7917,-0.7917,-0.7787,-0.7722,-0.7722,-0.7587,-0.7521,-0.7521,-0.7521,-0.7521,-0.7521,-0.7521,-0.7521,-0.7521,-0.7777,-0.7912,-0.7912,-0.8619,-0.9069,-0.939,-0.9773,-1.0541,-1.1622,-1.1622,-1.1622,-1.1622,-1.1622,-1.1622,-1.1622,-1.1747,-1.1802,-1.1802,-1.2182,-1.2367,-1.2498,-1.256,-1.2621,-1.2621]}]]